<?xml version="1.0" encoding="UTF-8" standalone="no" ?>
<gpx xmlns="http://www.topografix.com/GPX/1/1" creator="www.cicloide.com" version="1.1" xmlns:xsi="http://www.w3.org/2001/XMLSchema-instance" xsi:schemaLocation="http://www.topografix.com/GPX/1/1 http://www.topografix.com/GPX/1/1/gpx.xsd">
  <trk>
    <name>www.cicloide.com 35499</name>
    <desc>www.cicloide.com 35499</desc>
    <trkseg>
      <trkpt lat="41.605683190" lon="2.540443760">
        <ele>117.90</ele>
        <time>2016-01-02T08:19:28Z</time>
      </trkpt>
      <trkpt lat="41.605682520" lon="2.540444010">
        <ele>117.90</ele>
        <time>2016-01-02T08:19:29Z</time>
      </trkpt>
      <trkpt lat="41.605712100" lon="2.540460860">
        <ele>117.90</ele>
        <time>2016-01-02T08:19:43Z</time>
      </trkpt>
      <trkpt lat="41.605738670" lon="2.540470920">
        <ele>117.90</ele>
        <time>2016-01-02T08:19:45Z</time>
      </trkpt>
      <trkpt lat="41.605764070" lon="2.540486590">
        <ele>117.90</ele>
        <time>2016-01-02T08:19:47Z</time>
      </trkpt>
      <trkpt lat="41.605870940" lon="2.540501010">
        <ele>117.90</ele>
        <time>2016-01-02T08:19:53Z</time>
      </trkpt>
      <trkpt lat="41.605916540" lon="2.540495140">
        <ele>117.90</ele>
        <time>2016-01-02T08:19:58Z</time>
      </trkpt>
      <trkpt lat="41.605928940" lon="2.540436970">
        <ele>117.90</ele>
        <time>2016-01-02T08:20:02Z</time>
      </trkpt>
      <trkpt lat="41.605893400" lon="2.540359100">
        <ele>117.90</ele>
        <time>2016-01-02T08:20:07Z</time>
      </trkpt>
      <trkpt lat="41.605985610" lon="2.540342590">
        <ele>117.90</ele>
        <time>2016-01-02T08:20:11Z</time>
      </trkpt>
      <trkpt lat="41.606066660" lon="2.540363380">
        <ele>117.90</ele>
        <time>2016-01-02T08:20:13Z</time>
      </trkpt>
      <trkpt lat="41.606331950" lon="2.540469240">
        <ele>117.90</ele>
        <time>2016-01-02T08:20:22Z</time>
      </trkpt>
      <trkpt lat="41.606465800" lon="2.540546520">
        <ele>117.90</ele>
        <time>2016-01-02T08:20:28Z</time>
      </trkpt>
      <trkpt lat="41.606599330" lon="2.540601680">
        <ele>119.34</ele>
        <time>2016-01-02T08:20:33Z</time>
      </trkpt>
      <trkpt lat="41.606841980" lon="2.540715170">
        <ele>119.82</ele>
        <time>2016-01-02T08:20:42Z</time>
      </trkpt>
      <trkpt lat="41.607077520" lon="2.540784490">
        <ele>120.78</ele>
        <time>2016-01-02T08:20:51Z</time>
      </trkpt>
      <trkpt lat="41.607270050" lon="2.540850120">
        <ele>121.26</ele>
        <time>2016-01-02T08:20:59Z</time>
      </trkpt>
      <trkpt lat="41.607485970" lon="2.540856400">
        <ele>121.74</ele>
        <time>2016-01-02T08:21:07Z</time>
      </trkpt>
      <trkpt lat="41.607708170" lon="2.540841990">
        <ele>122.22</ele>
        <time>2016-01-02T08:21:15Z</time>
      </trkpt>
      <trkpt lat="41.607844380" lon="2.540816000">
        <ele>122.22</ele>
        <time>2016-01-02T08:21:21Z</time>
      </trkpt>
      <trkpt lat="41.608002460" lon="2.540823290">
        <ele>122.71</ele>
        <time>2016-01-02T08:21:27Z</time>
      </trkpt>
      <trkpt lat="41.608179570" lon="2.540792620">
        <ele>123.19</ele>
        <time>2016-01-02T08:21:34Z</time>
      </trkpt>
      <trkpt lat="41.608307730" lon="2.540746350">
        <ele>123.67</ele>
        <time>2016-01-02T08:21:41Z</time>
      </trkpt>
      <trkpt lat="41.608406380" lon="2.540734280">
        <ele>123.67</ele>
        <time>2016-01-02T08:21:47Z</time>
      </trkpt>
      <trkpt lat="41.608529430" lon="2.540717010">
        <ele>124.15</ele>
        <time>2016-01-02T08:21:53Z</time>
      </trkpt>
      <trkpt lat="41.608704020" lon="2.540676110">
        <ele>125.11</ele>
        <time>2016-01-02T08:22:00Z</time>
      </trkpt>
      <trkpt lat="41.608936450" lon="2.540633860">
        <ele>126.07</ele>
        <time>2016-01-02T08:22:08Z</time>
      </trkpt>
      <trkpt lat="41.609099230" lon="2.540589860">
        <ele>126.07</ele>
        <time>2016-01-02T08:22:14Z</time>
      </trkpt>
      <trkpt lat="41.609254210" lon="2.540611650">
        <ele>126.55</ele>
        <time>2016-01-02T08:22:20Z</time>
      </trkpt>
      <trkpt lat="41.609409530" lon="2.540595470">
        <ele>127.51</ele>
        <time>2016-01-02T08:22:27Z</time>
      </trkpt>
      <trkpt lat="41.609556130" lon="2.540566890">
        <ele>127.99</ele>
        <time>2016-01-02T08:22:33Z</time>
      </trkpt>
      <trkpt lat="41.609754110" lon="2.540533950">
        <ele>128.47</ele>
        <time>2016-01-02T08:22:41Z</time>
      </trkpt>
      <trkpt lat="41.609873470" lon="2.540488350">
        <ele>128.95</ele>
        <time>2016-01-02T08:22:46Z</time>
      </trkpt>
      <trkpt lat="41.610036410" lon="2.540415100">
        <ele>129.92</ele>
        <time>2016-01-02T08:22:52Z</time>
      </trkpt>
      <trkpt lat="41.610253170" lon="2.540287100">
        <ele>130.40</ele>
        <time>2016-01-02T08:23:00Z</time>
      </trkpt>
      <trkpt lat="41.610482500" lon="2.540176630">
        <ele>131.84</ele>
        <time>2016-01-02T08:23:08Z</time>
      </trkpt>
      <trkpt lat="41.610684670" lon="2.540070350">
        <ele>131.84</ele>
        <time>2016-01-02T08:23:15Z</time>
      </trkpt>
      <trkpt lat="41.610956740" lon="2.539935900">
        <ele>132.80</ele>
        <time>2016-01-02T08:23:24Z</time>
      </trkpt>
      <trkpt lat="41.611194710" lon="2.539811180">
        <ele>134.24</ele>
        <time>2016-01-02T08:23:32Z</time>
      </trkpt>
      <trkpt lat="41.611425710" lon="2.539685870">
        <ele>134.72</ele>
        <time>2016-01-02T08:23:40Z</time>
      </trkpt>
      <trkpt lat="41.611635680" lon="2.539492160">
        <ele>135.68</ele>
        <time>2016-01-02T08:23:49Z</time>
      </trkpt>
      <trkpt lat="41.611834160" lon="2.539259400">
        <ele>136.16</ele>
        <time>2016-01-02T08:23:58Z</time>
      </trkpt>
      <trkpt lat="41.611972880" lon="2.539051190">
        <ele>137.13</ele>
        <time>2016-01-02T08:24:05Z</time>
      </trkpt>
      <trkpt lat="41.612092910" lon="2.538899400">
        <ele>137.61</ele>
        <time>2016-01-02T08:24:11Z</time>
      </trkpt>
      <trkpt lat="41.612207660" lon="2.538674850">
        <ele>139.05</ele>
        <time>2016-01-02T08:24:18Z</time>
      </trkpt>
      <trkpt lat="41.612363230" lon="2.538428580">
        <ele>139.53</ele>
        <time>2016-01-02T08:24:26Z</time>
      </trkpt>
      <trkpt lat="41.612591800" lon="2.538136220">
        <ele>140.97</ele>
        <time>2016-01-02T08:24:36Z</time>
      </trkpt>
      <trkpt lat="41.612773020" lon="2.537926930">
        <ele>142.41</ele>
        <time>2016-01-02T08:24:44Z</time>
      </trkpt>
      <trkpt lat="41.613005870" lon="2.537643700">
        <ele>142.89</ele>
        <time>2016-01-02T08:24:54Z</time>
      </trkpt>
      <trkpt lat="41.613215500" lon="2.537382100">
        <ele>143.85</ele>
        <time>2016-01-02T08:25:03Z</time>
      </trkpt>
      <trkpt lat="41.613421950" lon="2.537126370">
        <ele>145.30</ele>
        <time>2016-01-02T08:25:12Z</time>
      </trkpt>
      <trkpt lat="41.613619260" lon="2.536897460">
        <ele>145.78</ele>
        <time>2016-01-02T08:25:21Z</time>
      </trkpt>
      <trkpt lat="41.613701730" lon="2.536789170">
        <ele>146.26</ele>
        <time>2016-01-02T08:25:28Z</time>
      </trkpt>
      <trkpt lat="41.613730400" lon="2.536718010">
        <ele>146.26</ele>
        <time>2016-01-02T08:25:35Z</time>
      </trkpt>
      <trkpt lat="41.613851440" lon="2.536447190">
        <ele>147.22</ele>
        <time>2016-01-02T08:25:44Z</time>
      </trkpt>
      <trkpt lat="41.613957800" lon="2.536193470">
        <ele>148.18</ele>
        <time>2016-01-02T08:25:52Z</time>
      </trkpt>
      <trkpt lat="41.614100130" lon="2.535805640">
        <ele>149.14</ele>
        <time>2016-01-02T08:26:03Z</time>
      </trkpt>
      <trkpt lat="41.614250080" lon="2.535409510">
        <ele>150.10</ele>
        <time>2016-01-02T08:26:14Z</time>
      </trkpt>
      <trkpt lat="41.614394080" lon="2.535018740">
        <ele>151.54</ele>
        <time>2016-01-02T08:26:25Z</time>
      </trkpt>
      <trkpt lat="41.614515200" lon="2.534652710">
        <ele>152.03</ele>
        <time>2016-01-02T08:26:35Z</time>
      </trkpt>
      <trkpt lat="41.614630530" lon="2.534276940">
        <ele>153.95</ele>
        <time>2016-01-02T08:26:45Z</time>
      </trkpt>
      <trkpt lat="41.614750650" lon="2.533858270">
        <ele>154.91</ele>
        <time>2016-01-02T08:26:55Z</time>
      </trkpt>
      <trkpt lat="41.614867490" lon="2.533471530">
        <ele>156.35</ele>
        <time>2016-01-02T08:27:05Z</time>
      </trkpt>
      <trkpt lat="41.614964800" lon="2.533141530">
        <ele>157.79</ele>
        <time>2016-01-02T08:27:14Z</time>
      </trkpt>
      <trkpt lat="41.615071920" lon="2.532762000">
        <ele>159.24</ele>
        <time>2016-01-02T08:27:24Z</time>
      </trkpt>
      <trkpt lat="41.615161860" lon="2.532372320">
        <ele>159.72</ele>
        <time>2016-01-02T08:27:34Z</time>
      </trkpt>
      <trkpt lat="41.615232020" lon="2.531898240">
        <ele>160.20</ele>
        <time>2016-01-02T08:27:45Z</time>
      </trkpt>
      <trkpt lat="41.615196400" lon="2.531628510">
        <ele>162.12</ele>
        <time>2016-01-02T08:27:52Z</time>
      </trkpt>
      <trkpt lat="41.615124900" lon="2.531415450">
        <ele>163.08</ele>
        <time>2016-01-02T08:27:58Z</time>
      </trkpt>
      <trkpt lat="41.615130010" lon="2.531179580">
        <ele>164.04</ele>
        <time>2016-01-02T08:28:04Z</time>
      </trkpt>
      <trkpt lat="41.615174100" lon="2.530890150">
        <ele>164.52</ele>
        <time>2016-01-02T08:28:11Z</time>
      </trkpt>
      <trkpt lat="41.615198660" lon="2.530522190">
        <ele>165.48</ele>
        <time>2016-01-02T08:28:20Z</time>
      </trkpt>
      <trkpt lat="41.615198160" lon="2.530174840">
        <ele>167.41</ele>
        <time>2016-01-02T08:28:29Z</time>
      </trkpt>
      <trkpt lat="41.615197650" lon="2.529809810">
        <ele>167.89</ele>
        <time>2016-01-02T08:28:38Z</time>
      </trkpt>
      <trkpt lat="41.615210730" lon="2.529460700">
        <ele>168.85</ele>
        <time>2016-01-02T08:28:47Z</time>
      </trkpt>
      <trkpt lat="41.615221880" lon="2.529058040">
        <ele>170.77</ele>
        <time>2016-01-02T08:28:57Z</time>
      </trkpt>
      <trkpt lat="41.615294550" lon="2.528664250">
        <ele>170.77</ele>
        <time>2016-01-02T08:29:06Z</time>
      </trkpt>
      <trkpt lat="41.615349530" lon="2.528370970">
        <ele>171.73</ele>
        <time>2016-01-02T08:29:13Z</time>
      </trkpt>
      <trkpt lat="41.615414910" lon="2.528039130">
        <ele>172.69</ele>
        <time>2016-01-02T08:29:21Z</time>
      </trkpt>
      <trkpt lat="41.615477360" lon="2.527706200">
        <ele>174.14</ele>
        <time>2016-01-02T08:29:29Z</time>
      </trkpt>
      <trkpt lat="41.615537540" lon="2.527386350">
        <ele>175.10</ele>
        <time>2016-01-02T08:29:37Z</time>
      </trkpt>
      <trkpt lat="41.615599230" lon="2.527030620">
        <ele>176.06</ele>
        <time>2016-01-02T08:29:46Z</time>
      </trkpt>
      <trkpt lat="41.615610630" lon="2.526792320">
        <ele>177.50</ele>
        <time>2016-01-02T08:29:52Z</time>
      </trkpt>
      <trkpt lat="41.615590340" lon="2.526472050">
        <ele>178.94</ele>
        <time>2016-01-02T08:30:00Z</time>
      </trkpt>
      <trkpt lat="41.615547850" lon="2.526108110">
        <ele>179.90</ele>
        <time>2016-01-02T08:30:09Z</time>
      </trkpt>
      <trkpt lat="41.615532430" lon="2.525822540">
        <ele>180.38</ele>
        <time>2016-01-02T08:30:16Z</time>
      </trkpt>
      <trkpt lat="41.615539720" lon="2.525500090">
        <ele>181.35</ele>
        <time>2016-01-02T08:30:24Z</time>
      </trkpt>
      <trkpt lat="41.615540050" lon="2.525135980">
        <ele>182.79</ele>
        <time>2016-01-02T08:30:33Z</time>
      </trkpt>
      <trkpt lat="41.615556980" lon="2.524896920">
        <ele>183.27</ele>
        <time>2016-01-02T08:30:40Z</time>
      </trkpt>
      <trkpt lat="41.615554970" lon="2.524876890">
        <ele>183.75</ele>
        <time>2016-01-02T08:30:46Z</time>
      </trkpt>
      <trkpt lat="41.615531760" lon="2.524818890">
        <ele>183.75</ele>
        <time>2016-01-02T08:31:04Z</time>
      </trkpt>
      <trkpt lat="41.615541480" lon="2.524819390">
        <ele>183.27</ele>
        <time>2016-01-02T08:31:22Z</time>
      </trkpt>
      <trkpt lat="41.615561430" lon="2.524829530">
        <ele>183.27</ele>
        <time>2016-01-02T08:31:39Z</time>
      </trkpt>
      <trkpt lat="41.615558830" lon="2.524827270">
        <ele>183.27</ele>
        <time>2016-01-02T08:32:00Z</time>
      </trkpt>
      <trkpt lat="41.615569050" lon="2.524844700">
        <ele>183.27</ele>
        <time>2016-01-02T08:32:24Z</time>
      </trkpt>
      <trkpt lat="41.615559500" lon="2.524840090">
        <ele>183.27</ele>
        <time>2016-01-02T08:32:37Z</time>
      </trkpt>
      <trkpt lat="41.615563520" lon="2.524828440">
        <ele>183.27</ele>
        <time>2016-01-02T08:32:56Z</time>
      </trkpt>
      <trkpt lat="41.615578440" lon="2.524840600">
        <ele>181.83</ele>
        <time>2016-01-02T08:33:18Z</time>
      </trkpt>
      <trkpt lat="41.615576260" lon="2.524839930">
        <ele>181.83</ele>
        <time>2016-01-02T08:33:19Z</time>
      </trkpt>
      <trkpt lat="41.615570310" lon="2.524847050">
        <ele>181.83</ele>
        <time>2016-01-02T08:33:34Z</time>
      </trkpt>
      <trkpt lat="41.615573920" lon="2.524778070">
        <ele>181.83</ele>
        <time>2016-01-02T08:33:40Z</time>
      </trkpt>
      <trkpt lat="41.615594450" lon="2.524567930">
        <ele>181.83</ele>
        <time>2016-01-02T08:33:47Z</time>
      </trkpt>
      <trkpt lat="41.615613650" lon="2.524229560">
        <ele>184.23</ele>
        <time>2016-01-02T08:33:56Z</time>
      </trkpt>
      <trkpt lat="41.615647840" lon="2.524016240">
        <ele>185.19</ele>
        <time>2016-01-02T08:34:02Z</time>
      </trkpt>
      <trkpt lat="41.615662090" lon="2.523704260">
        <ele>186.63</ele>
        <time>2016-01-02T08:34:10Z</time>
      </trkpt>
      <trkpt lat="41.615685560" lon="2.523404950">
        <ele>187.59</ele>
        <time>2016-01-02T08:34:17Z</time>
      </trkpt>
      <trkpt lat="41.615737110" lon="2.523082910">
        <ele>188.56</ele>
        <time>2016-01-02T08:34:25Z</time>
      </trkpt>
      <trkpt lat="41.615783210" lon="2.522768420">
        <ele>189.04</ele>
        <time>2016-01-02T08:34:33Z</time>
      </trkpt>
      <trkpt lat="41.615821600" lon="2.522488220">
        <ele>190.48</ele>
        <time>2016-01-02T08:34:40Z</time>
      </trkpt>
      <trkpt lat="41.615878600" lon="2.522162500">
        <ele>191.92</ele>
        <time>2016-01-02T08:34:48Z</time>
      </trkpt>
      <trkpt lat="41.615910450" lon="2.521844740">
        <ele>192.88</ele>
        <time>2016-01-02T08:34:56Z</time>
      </trkpt>
      <trkpt lat="41.615952110" lon="2.521488590">
        <ele>192.88</ele>
        <time>2016-01-02T08:35:04Z</time>
      </trkpt>
      <trkpt lat="41.615968700" lon="2.521380050">
        <ele>193.36</ele>
        <time>2016-01-02T08:35:07Z</time>
      </trkpt>
      <trkpt lat="41.616001810" lon="2.521089950">
        <ele>193.84</ele>
        <time>2016-01-02T08:35:14Z</time>
      </trkpt>
      <trkpt lat="41.616072970" lon="2.520794570">
        <ele>194.32</ele>
        <time>2016-01-02T08:35:22Z</time>
      </trkpt>
      <trkpt lat="41.616180600" lon="2.520472870">
        <ele>195.28</ele>
        <time>2016-01-02T08:35:31Z</time>
      </trkpt>
      <trkpt lat="41.616271790" lon="2.520192500">
        <ele>196.25</ele>
        <time>2016-01-02T08:35:38Z</time>
      </trkpt>
      <trkpt lat="41.616368940" lon="2.519848840">
        <ele>197.69</ele>
        <time>2016-01-02T08:35:47Z</time>
      </trkpt>
      <trkpt lat="41.616462570" lon="2.519529990">
        <ele>198.65</ele>
        <time>2016-01-02T08:35:56Z</time>
      </trkpt>
      <trkpt lat="41.616519900" lon="2.519245510">
        <ele>199.13</ele>
        <time>2016-01-02T08:36:03Z</time>
      </trkpt>
      <trkpt lat="41.616563230" lon="2.518990280">
        <ele>200.09</ele>
        <time>2016-01-02T08:36:09Z</time>
      </trkpt>
      <trkpt lat="41.616629870" lon="2.518753910">
        <ele>200.09</ele>
        <time>2016-01-02T08:36:15Z</time>
      </trkpt>
      <trkpt lat="41.616666920" lon="2.518655090">
        <ele>200.09</ele>
        <time>2016-01-02T08:36:17Z</time>
      </trkpt>
      <trkpt lat="41.616736820" lon="2.518256700">
        <ele>200.09</ele>
        <time>2016-01-02T08:36:25Z</time>
      </trkpt>
      <trkpt lat="41.616727520" lon="2.517839950">
        <ele>201.05</ele>
        <time>2016-01-02T08:36:35Z</time>
      </trkpt>
      <trkpt lat="41.616742520" lon="2.517573150">
        <ele>202.49</ele>
        <time>2016-01-02T08:36:42Z</time>
      </trkpt>
      <trkpt lat="41.616756440" lon="2.517291270">
        <ele>203.46</ele>
        <time>2016-01-02T08:36:50Z</time>
      </trkpt>
      <trkpt lat="41.616793570" lon="2.516964630">
        <ele>204.42</ele>
        <time>2016-01-02T08:36:58Z</time>
      </trkpt>
      <trkpt lat="41.616814690" lon="2.516674440">
        <ele>205.86</ele>
        <time>2016-01-02T08:37:05Z</time>
      </trkpt>
      <trkpt lat="41.616839500" lon="2.516290720">
        <ele>206.82</ele>
        <time>2016-01-02T08:37:14Z</time>
      </trkpt>
      <trkpt lat="41.616848300" lon="2.516037920">
        <ele>207.78</ele>
        <time>2016-01-02T08:37:20Z</time>
      </trkpt>
      <trkpt lat="41.616857020" lon="2.515606510">
        <ele>209.70</ele>
        <time>2016-01-02T08:37:30Z</time>
      </trkpt>
      <trkpt lat="41.616872520" lon="2.515205430">
        <ele>210.67</ele>
        <time>2016-01-02T08:37:40Z</time>
      </trkpt>
      <trkpt lat="41.616884180" lon="2.514813330">
        <ele>212.59</ele>
        <time>2016-01-02T08:37:50Z</time>
      </trkpt>
      <trkpt lat="41.616879820" lon="2.514402450">
        <ele>214.03</ele>
        <time>2016-01-02T08:38:00Z</time>
      </trkpt>
      <trkpt lat="41.616888450" lon="2.514118470">
        <ele>214.99</ele>
        <time>2016-01-02T08:38:07Z</time>
      </trkpt>
      <trkpt lat="41.616890550" lon="2.513706750">
        <ele>216.43</ele>
        <time>2016-01-02T08:38:17Z</time>
      </trkpt>
      <trkpt lat="41.616892390" lon="2.513385300">
        <ele>217.88</ele>
        <time>2016-01-02T08:38:25Z</time>
      </trkpt>
      <trkpt lat="41.616899510" lon="2.513013150">
        <ele>219.32</ele>
        <time>2016-01-02T08:38:34Z</time>
      </trkpt>
      <trkpt lat="41.616850230" lon="2.512686590">
        <ele>219.80</ele>
        <time>2016-01-02T08:38:42Z</time>
      </trkpt>
      <trkpt lat="41.616769590" lon="2.512388690">
        <ele>220.76</ele>
        <time>2016-01-02T08:38:50Z</time>
      </trkpt>
      <trkpt lat="41.616685270" lon="2.512190550">
        <ele>221.72</ele>
        <time>2016-01-02T08:38:56Z</time>
      </trkpt>
      <trkpt lat="41.616604050" lon="2.512052080">
        <ele>222.20</ele>
        <time>2016-01-02T08:39:01Z</time>
      </trkpt>
      <trkpt lat="41.616514870" lon="2.511864740">
        <ele>223.16</ele>
        <time>2016-01-02T08:39:07Z</time>
      </trkpt>
      <trkpt lat="41.616429120" lon="2.511633820">
        <ele>223.64</ele>
        <time>2016-01-02T08:39:14Z</time>
      </trkpt>
      <trkpt lat="41.616392740" lon="2.511343300">
        <ele>224.12</ele>
        <time>2016-01-02T08:39:21Z</time>
      </trkpt>
      <trkpt lat="41.616430710" lon="2.511078850">
        <ele>224.61</ele>
        <time>2016-01-02T08:39:28Z</time>
      </trkpt>
      <trkpt lat="41.616498100" lon="2.510836530">
        <ele>226.05</ele>
        <time>2016-01-02T08:39:35Z</time>
      </trkpt>
      <trkpt lat="41.616621990" lon="2.510618020">
        <ele>228.45</ele>
        <time>2016-01-02T08:39:43Z</time>
      </trkpt>
      <trkpt lat="41.616730450" lon="2.510415590">
        <ele>230.85</ele>
        <time>2016-01-02T08:39:52Z</time>
      </trkpt>
      <trkpt lat="41.616776300" lon="2.510244600">
        <ele>232.78</ele>
        <time>2016-01-02T08:39:59Z</time>
      </trkpt>
      <trkpt lat="41.616777560" lon="2.510096160">
        <ele>234.22</ele>
        <time>2016-01-02T08:40:06Z</time>
      </trkpt>
      <trkpt lat="41.616785440" lon="2.509986690">
        <ele>235.18</ele>
        <time>2016-01-02T08:40:11Z</time>
      </trkpt>
      <trkpt lat="41.616848800" lon="2.509742110">
        <ele>236.62</ele>
        <time>2016-01-02T08:40:21Z</time>
      </trkpt>
      <trkpt lat="41.616910490" lon="2.509566930">
        <ele>237.10</ele>
        <time>2016-01-02T08:40:28Z</time>
      </trkpt>
      <trkpt lat="41.616845280" lon="2.509544210">
        <ele>237.58</ele>
        <time>2016-01-02T08:40:34Z</time>
      </trkpt>
      <trkpt lat="41.616832790" lon="2.509557450">
        <ele>238.06</ele>
        <time>2016-01-02T08:40:35Z</time>
      </trkpt>
      <trkpt lat="41.616747050" lon="2.509674550">
        <ele>239.02</ele>
        <time>2016-01-02T08:40:43Z</time>
      </trkpt>
      <trkpt lat="41.616644290" lon="2.509835060">
        <ele>239.99</ele>
        <time>2016-01-02T08:40:51Z</time>
      </trkpt>
      <trkpt lat="41.616609330" lon="2.509857190">
        <ele>239.99</ele>
        <time>2016-01-02T08:40:53Z</time>
      </trkpt>
      <trkpt lat="41.616516630" lon="2.509845960">
        <ele>240.47</ele>
        <time>2016-01-02T08:40:58Z</time>
      </trkpt>
      <trkpt lat="41.616372880" lon="2.509740100">
        <ele>242.87</ele>
        <time>2016-01-02T08:41:08Z</time>
      </trkpt>
      <trkpt lat="41.616342790" lon="2.509569360">
        <ele>244.31</ele>
        <time>2016-01-02T08:41:16Z</time>
      </trkpt>
      <trkpt lat="41.616338600" lon="2.509423180">
        <ele>246.23</ele>
        <time>2016-01-02T08:41:24Z</time>
      </trkpt>
      <trkpt lat="41.616324930" lon="2.509223850">
        <ele>248.16</ele>
        <time>2016-01-02T08:41:33Z</time>
      </trkpt>
      <trkpt lat="41.616298620" lon="2.509014640">
        <ele>250.56</ele>
        <time>2016-01-02T08:41:43Z</time>
      </trkpt>
      <trkpt lat="41.616253020" lon="2.508813560">
        <ele>252.48</ele>
        <time>2016-01-02T08:41:53Z</time>
      </trkpt>
      <trkpt lat="41.616230140" lon="2.508734020">
        <ele>253.44</ele>
        <time>2016-01-02T08:41:58Z</time>
      </trkpt>
      <trkpt lat="41.616188140" lon="2.508542320">
        <ele>255.85</ele>
        <time>2016-01-02T08:42:08Z</time>
      </trkpt>
      <trkpt lat="41.616187050" lon="2.508525470">
        <ele>256.33</ele>
        <time>2016-01-02T08:42:09Z</time>
      </trkpt>
      <trkpt lat="41.616167940" lon="2.508444250">
        <ele>257.29</ele>
        <time>2016-01-02T08:42:13Z</time>
      </trkpt>
      <trkpt lat="41.616104320" lon="2.508252390">
        <ele>258.73</ele>
        <time>2016-01-02T08:42:22Z</time>
      </trkpt>
      <trkpt lat="41.616058470" lon="2.508109150">
        <ele>259.69</ele>
        <time>2016-01-02T08:42:29Z</time>
      </trkpt>
      <trkpt lat="41.616008270" lon="2.507921810">
        <ele>262.10</ele>
        <time>2016-01-02T08:42:38Z</time>
      </trkpt>
      <trkpt lat="41.615932660" lon="2.507727770">
        <ele>263.06</ele>
        <time>2016-01-02T08:42:47Z</time>
      </trkpt>
      <trkpt lat="41.615876670" lon="2.507588290">
        <ele>265.46</ele>
        <time>2016-01-02T08:42:54Z</time>
      </trkpt>
      <trkpt lat="41.615846500" lon="2.507506490">
        <ele>265.94</ele>
        <time>2016-01-02T08:42:58Z</time>
      </trkpt>
      <trkpt lat="41.615824200" lon="2.507342450">
        <ele>266.90</ele>
        <time>2016-01-02T08:43:06Z</time>
      </trkpt>
      <trkpt lat="41.615786730" lon="2.507223180">
        <ele>267.86</ele>
        <time>2016-01-02T08:43:12Z</time>
      </trkpt>
      <trkpt lat="41.615745240" lon="2.507099380">
        <ele>269.31</ele>
        <time>2016-01-02T08:43:19Z</time>
      </trkpt>
      <trkpt lat="41.615728730" lon="2.507013970">
        <ele>270.27</ele>
        <time>2016-01-02T08:43:24Z</time>
      </trkpt>
      <trkpt lat="41.615714480" lon="2.506837530">
        <ele>271.23</ele>
        <time>2016-01-02T08:43:33Z</time>
      </trkpt>
      <trkpt lat="41.615727220" lon="2.506653880">
        <ele>273.15</ele>
        <time>2016-01-02T08:43:42Z</time>
      </trkpt>
      <trkpt lat="41.615735600" lon="2.506600990">
        <ele>273.63</ele>
        <time>2016-01-02T08:43:45Z</time>
      </trkpt>
      <trkpt lat="41.615760250" lon="2.506460590">
        <ele>276.04</ele>
        <time>2016-01-02T08:43:53Z</time>
      </trkpt>
      <trkpt lat="41.615819840" lon="2.506315420">
        <ele>277.96</ele>
        <time>2016-01-02T08:44:02Z</time>
      </trkpt>
      <trkpt lat="41.615887230" lon="2.506134370">
        <ele>280.36</ele>
        <time>2016-01-02T08:44:13Z</time>
      </trkpt>
      <trkpt lat="41.615929480" lon="2.505991960">
        <ele>281.80</ele>
        <time>2016-01-02T08:44:21Z</time>
      </trkpt>
      <trkpt lat="41.615997290" lon="2.505807890">
        <ele>284.21</ele>
        <time>2016-01-02T08:44:33Z</time>
      </trkpt>
      <trkpt lat="41.616053780" lon="2.505633130">
        <ele>286.13</ele>
        <time>2016-01-02T08:44:43Z</time>
      </trkpt>
      <trkpt lat="41.616105500" lon="2.505448310">
        <ele>288.05</ele>
        <time>2016-01-02T08:44:53Z</time>
      </trkpt>
      <trkpt lat="41.616151850" lon="2.505280500">
        <ele>290.46</ele>
        <time>2016-01-02T08:45:02Z</time>
      </trkpt>
      <trkpt lat="41.616172300" lon="2.505118060">
        <ele>292.86</ele>
        <time>2016-01-02T08:45:11Z</time>
      </trkpt>
      <trkpt lat="41.616146740" lon="2.504908680">
        <ele>294.30</ele>
        <time>2016-01-02T08:45:20Z</time>
      </trkpt>
      <trkpt lat="41.616037770" lon="2.504844140">
        <ele>295.26</ele>
        <time>2016-01-02T08:45:28Z</time>
      </trkpt>
      <trkpt lat="41.615888910" lon="2.504829730">
        <ele>296.70</ele>
        <time>2016-01-02T08:45:37Z</time>
      </trkpt>
      <trkpt lat="41.615719760" lon="2.504830480">
        <ele>297.18</ele>
        <time>2016-01-02T08:45:47Z</time>
      </trkpt>
      <trkpt lat="41.615562180" lon="2.504837270">
        <ele>299.59</ele>
        <time>2016-01-02T08:45:57Z</time>
      </trkpt>
      <trkpt lat="41.615440220" lon="2.504830730">
        <ele>300.55</ele>
        <time>2016-01-02T08:46:05Z</time>
      </trkpt>
      <trkpt lat="41.615377950" lon="2.504658230">
        <ele>302.47</ele>
        <time>2016-01-02T08:46:15Z</time>
      </trkpt>
      <trkpt lat="41.615377030" lon="2.504504170">
        <ele>304.88</ele>
        <time>2016-01-02T08:46:23Z</time>
      </trkpt>
      <trkpt lat="41.615373000" lon="2.504371320">
        <ele>305.84</ele>
        <time>2016-01-02T08:46:30Z</time>
      </trkpt>
      <trkpt lat="41.615387750" lon="2.504188510">
        <ele>308.24</ele>
        <time>2016-01-02T08:46:40Z</time>
      </trkpt>
      <trkpt lat="41.615409800" lon="2.503996150">
        <ele>310.64</ele>
        <time>2016-01-02T08:46:51Z</time>
      </trkpt>
      <trkpt lat="41.615428740" lon="2.503841670">
        <ele>313.05</ele>
        <time>2016-01-02T08:47:00Z</time>
      </trkpt>
      <trkpt lat="41.615416250" lon="2.503695490">
        <ele>314.97</ele>
        <time>2016-01-02T08:47:08Z</time>
      </trkpt>
      <trkpt lat="41.615413990" lon="2.503587110">
        <ele>316.41</ele>
        <time>2016-01-02T08:47:15Z</time>
      </trkpt>
      <trkpt lat="41.615409550" lon="2.503413690">
        <ele>318.33</ele>
        <time>2016-01-02T08:47:24Z</time>
      </trkpt>
      <trkpt lat="41.615408960" lon="2.503365740">
        <ele>318.33</ele>
        <time>2016-01-02T08:47:26Z</time>
      </trkpt>
      <trkpt lat="41.615339640" lon="2.503128700">
        <ele>317.85</ele>
        <time>2016-01-02T08:47:34Z</time>
      </trkpt>
      <trkpt lat="41.615186500" lon="2.502863580">
        <ele>318.33</ele>
        <time>2016-01-02T08:47:43Z</time>
      </trkpt>
      <trkpt lat="41.615143000" lon="2.502662330">
        <ele>318.33</ele>
        <time>2016-01-02T08:47:49Z</time>
      </trkpt>
      <trkpt lat="41.615092210" lon="2.502422780">
        <ele>318.33</ele>
        <time>2016-01-02T08:47:57Z</time>
      </trkpt>
      <trkpt lat="41.615070080" lon="2.502379780">
        <ele>318.81</ele>
        <time>2016-01-02T08:47:59Z</time>
      </trkpt>
      <trkpt lat="41.615019960" lon="2.502147430">
        <ele>320.74</ele>
        <time>2016-01-02T08:48:08Z</time>
      </trkpt>
      <trkpt lat="41.614974950" lon="2.501918190">
        <ele>321.70</ele>
        <time>2016-01-02T08:48:17Z</time>
      </trkpt>
      <trkpt lat="41.614960030" lon="2.501810310">
        <ele>322.66</ele>
        <time>2016-01-02T08:48:22Z</time>
      </trkpt>
      <trkpt lat="41.614952730" lon="2.501690030">
        <ele>322.66</ele>
        <time>2016-01-02T08:48:26Z</time>
      </trkpt>
      <trkpt lat="41.614957180" lon="2.501525750">
        <ele>322.66</ele>
        <time>2016-01-02T08:48:30Z</time>
      </trkpt>
      <trkpt lat="41.614831610" lon="2.501409910">
        <ele>322.66</ele>
        <time>2016-01-02T08:48:36Z</time>
      </trkpt>
      <trkpt lat="41.614648970" lon="2.501380320">
        <ele>323.14</ele>
        <time>2016-01-02T08:48:44Z</time>
      </trkpt>
      <trkpt lat="41.614524330" lon="2.501281750">
        <ele>324.10</ele>
        <time>2016-01-02T08:48:51Z</time>
      </trkpt>
      <trkpt lat="41.614390390" lon="2.501202460">
        <ele>325.54</ele>
        <time>2016-01-02T08:48:59Z</time>
      </trkpt>
      <trkpt lat="41.614308080" lon="2.501074210">
        <ele>326.99</ele>
        <time>2016-01-02T08:49:07Z</time>
      </trkpt>
      <trkpt lat="41.614278160" lon="2.500935660">
        <ele>327.95</ele>
        <time>2016-01-02T08:49:13Z</time>
      </trkpt>
      <trkpt lat="41.614239270" lon="2.500782270">
        <ele>329.87</ele>
        <time>2016-01-02T08:49:21Z</time>
      </trkpt>
      <trkpt lat="41.614145390" lon="2.500605160">
        <ele>332.75</ele>
        <time>2016-01-02T08:49:32Z</time>
      </trkpt>
      <trkpt lat="41.614056290" lon="2.500482870">
        <ele>335.16</ele>
        <time>2016-01-02T08:49:42Z</time>
      </trkpt>
      <trkpt lat="41.614048330" lon="2.500468030">
        <ele>336.12</ele>
        <time>2016-01-02T08:49:43Z</time>
      </trkpt>
      <trkpt lat="41.614005490" lon="2.500377850">
        <ele>337.56</ele>
        <time>2016-01-02T08:49:49Z</time>
      </trkpt>
      <trkpt lat="41.613908520" lon="2.500243650">
        <ele>339.96</ele>
        <time>2016-01-02T08:49:58Z</time>
      </trkpt>
      <trkpt lat="41.613825870" lon="2.500103930">
        <ele>342.37</ele>
        <time>2016-01-02T08:50:08Z</time>
      </trkpt>
      <trkpt lat="41.613842130" lon="2.500011560">
        <ele>343.33</ele>
        <time>2016-01-02T08:50:14Z</time>
      </trkpt>
      <trkpt lat="41.613895780" lon="2.500026560">
        <ele>344.29</ele>
        <time>2016-01-02T08:50:18Z</time>
      </trkpt>
      <trkpt lat="41.613979260" lon="2.500136360">
        <ele>346.69</ele>
        <time>2016-01-02T08:50:27Z</time>
      </trkpt>
      <trkpt lat="41.614091410" lon="2.500235940">
        <ele>348.62</ele>
        <time>2016-01-02T08:50:37Z</time>
      </trkpt>
      <trkpt lat="41.614160220" lon="2.500262590">
        <ele>349.10</ele>
        <time>2016-01-02T08:50:42Z</time>
      </trkpt>
      <trkpt lat="41.614284610" lon="2.500313720">
        <ele>351.02</ele>
        <time>2016-01-02T08:50:52Z</time>
      </trkpt>
      <trkpt lat="41.614413940" lon="2.500398550">
        <ele>353.90</ele>
        <time>2016-01-02T08:51:03Z</time>
      </trkpt>
      <trkpt lat="41.614509000" lon="2.500488990">
        <ele>356.31</ele>
        <time>2016-01-02T08:51:12Z</time>
      </trkpt>
      <trkpt lat="41.614593820" lon="2.500568370">
        <ele>358.23</ele>
        <time>2016-01-02T08:51:20Z</time>
      </trkpt>
      <trkpt lat="41.614693230" lon="2.500598370">
        <ele>359.19</ele>
        <time>2016-01-02T08:51:27Z</time>
      </trkpt>
      <trkpt lat="41.614850140" lon="2.500526710">
        <ele>360.15</ele>
        <time>2016-01-02T08:51:37Z</time>
      </trkpt>
      <trkpt lat="41.614871260" lon="2.500523270">
        <ele>360.15</ele>
        <time>2016-01-02T08:51:38Z</time>
      </trkpt>
      <trkpt lat="41.615045860" lon="2.500564590">
        <ele>360.15</ele>
        <time>2016-01-02T08:51:46Z</time>
      </trkpt>
      <trkpt lat="41.615196650" lon="2.500648330">
        <ele>360.63</ele>
        <time>2016-01-02T08:51:54Z</time>
      </trkpt>
      <trkpt lat="41.615311060" lon="2.500556630">
        <ele>361.59</ele>
        <time>2016-01-02T08:52:02Z</time>
      </trkpt>
      <trkpt lat="41.615441900" lon="2.500467530">
        <ele>363.04</ele>
        <time>2016-01-02T08:52:10Z</time>
      </trkpt>
      <trkpt lat="41.615600990" lon="2.500467530">
        <ele>364.00</ele>
        <time>2016-01-02T08:52:19Z</time>
      </trkpt>
      <trkpt lat="41.615763680" lon="2.500444150">
        <ele>366.40</ele>
        <time>2016-01-02T08:52:29Z</time>
      </trkpt>
      <trkpt lat="41.615793520" lon="2.500313640">
        <ele>367.84</ele>
        <time>2016-01-02T08:52:36Z</time>
      </trkpt>
      <trkpt lat="41.615719340" lon="2.500236690">
        <ele>369.76</ele>
        <time>2016-01-02T08:52:43Z</time>
      </trkpt>
      <trkpt lat="41.615593700" lon="2.500240720">
        <ele>372.17</ele>
        <time>2016-01-02T08:52:52Z</time>
      </trkpt>
      <trkpt lat="41.615547850" lon="2.500246080">
        <ele>372.65</ele>
        <time>2016-01-02T08:52:55Z</time>
      </trkpt>
      <trkpt lat="41.615457830" lon="2.500256140">
        <ele>374.57</ele>
        <time>2016-01-02T08:53:01Z</time>
      </trkpt>
      <trkpt lat="41.615276610" lon="2.500237280">
        <ele>376.97</ele>
        <time>2016-01-02T08:53:13Z</time>
      </trkpt>
      <trkpt lat="41.615189020" lon="2.500117590">
        <ele>377.94</ele>
        <time>2016-01-02T08:53:21Z</time>
      </trkpt>
      <trkpt lat="41.615075950" lon="2.499984400">
        <ele>379.38</ele>
        <time>2016-01-02T08:53:30Z</time>
      </trkpt>
      <trkpt lat="41.614927760" lon="2.500011810">
        <ele>382.26</ele>
        <time>2016-01-02T08:53:40Z</time>
      </trkpt>
      <trkpt lat="41.614847460" lon="2.500011720">
        <ele>383.70</ele>
        <time>2016-01-02T08:53:46Z</time>
      </trkpt>
      <trkpt lat="41.614795910" lon="2.499981970">
        <ele>384.66</ele>
        <time>2016-01-02T08:53:50Z</time>
      </trkpt>
      <trkpt lat="41.614693730" lon="2.499856070">
        <ele>387.55</ele>
        <time>2016-01-02T08:54:00Z</time>
      </trkpt>
      <trkpt lat="41.614618800" lon="2.499681730">
        <ele>390.43</ele>
        <time>2016-01-02T08:54:11Z</time>
      </trkpt>
      <trkpt lat="41.614577390" lon="2.499550130">
        <ele>393.32</ele>
        <time>2016-01-02T08:54:19Z</time>
      </trkpt>
      <trkpt lat="41.614559370" lon="2.499357270">
        <ele>395.24</ele>
        <time>2016-01-02T08:54:29Z</time>
      </trkpt>
      <trkpt lat="41.614560290" lon="2.499314940">
        <ele>396.20</ele>
        <time>2016-01-02T08:54:31Z</time>
      </trkpt>
      <trkpt lat="41.614593820" lon="2.499176800">
        <ele>396.68</ele>
        <time>2016-01-02T08:54:39Z</time>
      </trkpt>
      <trkpt lat="41.614604210" lon="2.499137910">
        <ele>396.68</ele>
        <time>2016-01-02T08:54:41Z</time>
      </trkpt>
      <trkpt lat="41.614650310" lon="2.498935990">
        <ele>398.60</ele>
        <time>2016-01-02T08:54:51Z</time>
      </trkpt>
      <trkpt lat="41.614659790" lon="2.498691160">
        <ele>400.53</ele>
        <time>2016-01-02T08:55:03Z</time>
      </trkpt>
      <trkpt lat="41.614701110" lon="2.498486720">
        <ele>401.97</ele>
        <time>2016-01-02T08:55:13Z</time>
      </trkpt>
      <trkpt lat="41.614728100" lon="2.498239870">
        <ele>403.89</ele>
        <time>2016-01-02T08:55:24Z</time>
      </trkpt>
      <trkpt lat="41.614715440" lon="2.498023870">
        <ele>406.77</ele>
        <time>2016-01-02T08:55:34Z</time>
      </trkpt>
      <trkpt lat="41.614661630" lon="2.497807370">
        <ele>407.26</ele>
        <time>2016-01-02T08:55:42Z</time>
      </trkpt>
      <trkpt lat="41.614647210" lon="2.497755230">
        <ele>407.26</ele>
        <time>2016-01-02T08:55:43Z</time>
      </trkpt>
      <trkpt lat="41.614550820" lon="2.497545430">
        <ele>404.37</ele>
        <time>2016-01-02T08:55:47Z</time>
      </trkpt>
      <trkpt lat="41.614349990" lon="2.497435380">
        <ele>402.45</ele>
        <time>2016-01-02T08:55:51Z</time>
      </trkpt>
      <trkpt lat="41.614222000" lon="2.497549200">
        <ele>402.45</ele>
        <time>2016-01-02T08:55:54Z</time>
      </trkpt>
      <trkpt lat="41.614121330" lon="2.497687250">
        <ele>404.37</ele>
        <time>2016-01-02T08:55:59Z</time>
      </trkpt>
      <trkpt lat="41.613997780" lon="2.497789260">
        <ele>406.29</ele>
        <time>2016-01-02T08:56:06Z</time>
      </trkpt>
      <trkpt lat="41.613838950" lon="2.497816170">
        <ele>408.70</ele>
        <time>2016-01-02T08:56:15Z</time>
      </trkpt>
      <trkpt lat="41.613714470" lon="2.497685160">
        <ele>410.14</ele>
        <time>2016-01-02T08:56:24Z</time>
      </trkpt>
      <trkpt lat="41.613608950" lon="2.497463120">
        <ele>411.58</ele>
        <time>2016-01-02T08:56:34Z</time>
      </trkpt>
      <trkpt lat="41.613482130" lon="2.497348460">
        <ele>412.54</ele>
        <time>2016-01-02T08:56:42Z</time>
      </trkpt>
      <trkpt lat="41.613311980" lon="2.497373350">
        <ele>413.50</ele>
        <time>2016-01-02T08:56:50Z</time>
      </trkpt>
      <trkpt lat="41.613185910" lon="2.497416690">
        <ele>414.95</ele>
        <time>2016-01-02T08:56:57Z</time>
      </trkpt>
      <trkpt lat="41.613082310" lon="2.497364470">
        <ele>415.91</ele>
        <time>2016-01-02T08:57:03Z</time>
      </trkpt>
      <trkpt lat="41.612959350" lon="2.497119550">
        <ele>417.35</ele>
        <time>2016-01-02T08:57:14Z</time>
      </trkpt>
      <trkpt lat="41.612869500" lon="2.496902880">
        <ele>419.27</ele>
        <time>2016-01-02T08:57:23Z</time>
      </trkpt>
      <trkpt lat="41.612798920" lon="2.496646640">
        <ele>421.68</ele>
        <time>2016-01-02T08:57:33Z</time>
      </trkpt>
      <trkpt lat="41.612744770" lon="2.496444050">
        <ele>423.12</ele>
        <time>2016-01-02T08:57:41Z</time>
      </trkpt>
      <trkpt lat="41.612675120" lon="2.496283540">
        <ele>424.08</ele>
        <time>2016-01-02T08:57:48Z</time>
      </trkpt>
      <trkpt lat="41.612618540" lon="2.496095280">
        <ele>426.00</ele>
        <time>2016-01-02T08:57:55Z</time>
      </trkpt>
      <trkpt lat="41.612593060" lon="2.495875420">
        <ele>426.96</ele>
        <time>2016-01-02T08:58:04Z</time>
      </trkpt>
      <trkpt lat="41.612608230" lon="2.495814400">
        <ele>427.92</ele>
        <time>2016-01-02T08:58:08Z</time>
      </trkpt>
      <trkpt lat="41.612768580" lon="2.495821110">
        <ele>429.37</ele>
        <time>2016-01-02T08:58:17Z</time>
      </trkpt>
      <trkpt lat="41.612928590" lon="2.495839380">
        <ele>430.33</ele>
        <time>2016-01-02T08:58:26Z</time>
      </trkpt>
      <trkpt lat="41.613089350" lon="2.495882710">
        <ele>431.29</ele>
        <time>2016-01-02T08:58:35Z</time>
      </trkpt>
      <trkpt lat="41.613272330" lon="2.495935270">
        <ele>432.73</ele>
        <time>2016-01-02T08:58:44Z</time>
      </trkpt>
      <trkpt lat="41.613438540" lon="2.495916240">
        <ele>433.69</ele>
        <time>2016-01-02T08:58:52Z</time>
      </trkpt>
      <trkpt lat="41.613576760" lon="2.495871820">
        <ele>434.17</ele>
        <time>2016-01-02T08:58:59Z</time>
      </trkpt>
      <trkpt lat="41.613733330" lon="2.495827980">
        <ele>435.13</ele>
        <time>2016-01-02T08:59:07Z</time>
      </trkpt>
      <trkpt lat="41.613930310" lon="2.495766790">
        <ele>436.10</ele>
        <time>2016-01-02T08:59:17Z</time>
      </trkpt>
      <trkpt lat="41.614092410" lon="2.495716840">
        <ele>437.06</ele>
        <time>2016-01-02T08:59:25Z</time>
      </trkpt>
      <trkpt lat="41.614286290" lon="2.495669060">
        <ele>438.98</ele>
        <time>2016-01-02T08:59:35Z</time>
      </trkpt>
      <trkpt lat="41.614465410" lon="2.495631840">
        <ele>440.42</ele>
        <time>2016-01-02T08:59:44Z</time>
      </trkpt>
      <trkpt lat="41.614596080" lon="2.495600750">
        <ele>441.86</ele>
        <time>2016-01-02T08:59:51Z</time>
      </trkpt>
      <trkpt lat="41.614733710" lon="2.495531930">
        <ele>443.31</ele>
        <time>2016-01-02T08:59:59Z</time>
      </trkpt>
      <trkpt lat="41.614882910" lon="2.495464210">
        <ele>445.71</ele>
        <time>2016-01-02T09:00:08Z</time>
      </trkpt>
      <trkpt lat="41.615003860" lon="2.495418270">
        <ele>447.15</ele>
        <time>2016-01-02T09:00:15Z</time>
      </trkpt>
      <trkpt lat="41.615145100" lon="2.495472340">
        <ele>448.59</ele>
        <time>2016-01-02T09:00:23Z</time>
      </trkpt>
      <trkpt lat="41.615210810" lon="2.495571080">
        <ele>450.03</ele>
        <time>2016-01-02T09:00:29Z</time>
      </trkpt>
      <trkpt lat="41.615271500" lon="2.495654310">
        <ele>451.96</ele>
        <time>2016-01-02T09:00:35Z</time>
      </trkpt>
      <trkpt lat="41.615371490" lon="2.495802420">
        <ele>453.88</ele>
        <time>2016-01-02T09:00:44Z</time>
      </trkpt>
      <trkpt lat="41.615450950" lon="2.495963520">
        <ele>456.28</ele>
        <time>2016-01-02T09:00:53Z</time>
      </trkpt>
      <trkpt lat="41.615492110" lon="2.496131820">
        <ele>457.24</ele>
        <time>2016-01-02T09:01:01Z</time>
      </trkpt>
      <trkpt lat="41.615540300" lon="2.496309100">
        <ele>458.69</ele>
        <time>2016-01-02T09:01:10Z</time>
      </trkpt>
      <trkpt lat="41.615649190" lon="2.496509760">
        <ele>460.61</ele>
        <time>2016-01-02T09:01:21Z</time>
      </trkpt>
      <trkpt lat="41.615711880" lon="2.496656530">
        <ele>463.01</ele>
        <time>2016-01-02T09:01:30Z</time>
      </trkpt>
      <trkpt lat="41.615807770" lon="2.496776640">
        <ele>463.97</ele>
        <time>2016-01-02T09:01:37Z</time>
      </trkpt>
      <trkpt lat="41.615822860" lon="2.496789970">
        <ele>463.97</ele>
        <time>2016-01-02T09:01:38Z</time>
      </trkpt>
      <trkpt lat="41.615953950" lon="2.496803800">
        <ele>465.42</ele>
        <time>2016-01-02T09:01:46Z</time>
      </trkpt>
      <trkpt lat="41.616032410" lon="2.496767590">
        <ele>466.38</ele>
        <time>2016-01-02T09:01:51Z</time>
      </trkpt>
      <trkpt lat="41.616154530" lon="2.496676480">
        <ele>468.30</ele>
        <time>2016-01-02T09:02:00Z</time>
      </trkpt>
      <trkpt lat="41.616260650" lon="2.496540440">
        <ele>470.22</ele>
        <time>2016-01-02T09:02:09Z</time>
      </trkpt>
      <trkpt lat="41.616343210" lon="2.496301640">
        <ele>471.66</ele>
        <time>2016-01-02T09:02:21Z</time>
      </trkpt>
      <trkpt lat="41.616369780" lon="2.496091840">
        <ele>473.11</ele>
        <time>2016-01-02T09:02:31Z</time>
      </trkpt>
      <trkpt lat="41.616372040" lon="2.495915400">
        <ele>475.51</ele>
        <time>2016-01-02T09:02:39Z</time>
      </trkpt>
      <trkpt lat="41.616369780" lon="2.495688760">
        <ele>477.91</ele>
        <time>2016-01-02T09:02:50Z</time>
      </trkpt>
      <trkpt lat="41.616391320" lon="2.495531510">
        <ele>479.84</ele>
        <time>2016-01-02T09:02:58Z</time>
      </trkpt>
      <trkpt lat="41.616493750" lon="2.495458340">
        <ele>479.84</ele>
        <time>2016-01-02T09:03:05Z</time>
      </trkpt>
      <trkpt lat="41.616680750" lon="2.495481720">
        <ele>480.32</ele>
        <time>2016-01-02T09:03:13Z</time>
      </trkpt>
      <trkpt lat="41.616903120" lon="2.495581890">
        <ele>480.80</ele>
        <time>2016-01-02T09:03:22Z</time>
      </trkpt>
      <trkpt lat="41.617207050" lon="2.495692110">
        <ele>481.28</ele>
        <time>2016-01-02T09:03:33Z</time>
      </trkpt>
      <trkpt lat="41.617392290" lon="2.495677440">
        <ele>483.20</ele>
        <time>2016-01-02T09:03:41Z</time>
      </trkpt>
      <trkpt lat="41.617584650" lon="2.495664200">
        <ele>483.68</ele>
        <time>2016-01-02T09:03:51Z</time>
      </trkpt>
      <trkpt lat="41.617702920" lon="2.495665120">
        <ele>484.64</ele>
        <time>2016-01-02T09:03:58Z</time>
      </trkpt>
      <trkpt lat="41.617818670" lon="2.495685570">
        <ele>485.12</ele>
        <time>2016-01-02T09:04:05Z</time>
      </trkpt>
      <trkpt lat="41.617933760" lon="2.495713230">
        <ele>486.56</ele>
        <time>2016-01-02T09:04:12Z</time>
      </trkpt>
      <trkpt lat="41.618096530" lon="2.495747510">
        <ele>488.49</ele>
        <time>2016-01-02T09:04:21Z</time>
      </trkpt>
      <trkpt lat="41.618229300" lon="2.495755560">
        <ele>489.93</ele>
        <time>2016-01-02T09:04:28Z</time>
      </trkpt>
      <trkpt lat="41.618377750" lon="2.495738800">
        <ele>491.37</ele>
        <time>2016-01-02T09:04:36Z</time>
      </trkpt>
      <trkpt lat="41.618488220" lon="2.495683900">
        <ele>492.33</ele>
        <time>2016-01-02T09:04:43Z</time>
      </trkpt>
      <trkpt lat="41.618586120" lon="2.495581550">
        <ele>493.77</ele>
        <time>2016-01-02T09:04:51Z</time>
      </trkpt>
      <trkpt lat="41.618749060" lon="2.495383320">
        <ele>494.74</ele>
        <time>2016-01-02T09:05:00Z</time>
      </trkpt>
      <trkpt lat="41.618873620" lon="2.495223810">
        <ele>495.22</ele>
        <time>2016-01-02T09:05:07Z</time>
      </trkpt>
      <trkpt lat="41.619019050" lon="2.495109480">
        <ele>495.70</ele>
        <time>2016-01-02T09:05:14Z</time>
      </trkpt>
      <trkpt lat="41.619247200" lon="2.495102020">
        <ele>496.18</ele>
        <time>2016-01-02T09:05:22Z</time>
      </trkpt>
      <trkpt lat="41.619485160" lon="2.495220460">
        <ele>497.62</ele>
        <time>2016-01-02T09:05:31Z</time>
      </trkpt>
      <trkpt lat="41.619693710" lon="2.495354400">
        <ele>498.58</ele>
        <time>2016-01-02T09:05:39Z</time>
      </trkpt>
      <trkpt lat="41.619835190" lon="2.495354400">
        <ele>499.06</ele>
        <time>2016-01-02T09:05:45Z</time>
      </trkpt>
      <trkpt lat="41.619952620" lon="2.495241830">
        <ele>500.02</ele>
        <time>2016-01-02T09:05:51Z</time>
      </trkpt>
      <trkpt lat="41.620120930" lon="2.495109740">
        <ele>501.46</ele>
        <time>2016-01-02T09:05:59Z</time>
      </trkpt>
      <trkpt lat="41.620248840" lon="2.494980990">
        <ele>502.43</ele>
        <time>2016-01-02T09:06:06Z</time>
      </trkpt>
      <trkpt lat="41.620348830" lon="2.494836230">
        <ele>504.35</ele>
        <time>2016-01-02T09:06:13Z</time>
      </trkpt>
      <trkpt lat="41.620477080" lon="2.494835820">
        <ele>505.31</ele>
        <time>2016-01-02T09:06:19Z</time>
      </trkpt>
      <trkpt lat="41.620594340" lon="2.494932540">
        <ele>506.75</ele>
        <time>2016-01-02T09:06:26Z</time>
      </trkpt>
      <trkpt lat="41.620771450" lon="2.495096830">
        <ele>508.67</ele>
        <time>2016-01-02T09:06:36Z</time>
      </trkpt>
      <trkpt lat="41.620937660" lon="2.495234710">
        <ele>510.60</ele>
        <time>2016-01-02T09:06:45Z</time>
      </trkpt>
      <trkpt lat="41.621104630" lon="2.495252650">
        <ele>511.56</ele>
        <time>2016-01-02T09:06:53Z</time>
      </trkpt>
      <trkpt lat="41.621205380" lon="2.495074280">
        <ele>512.04</ele>
        <time>2016-01-02T09:07:00Z</time>
      </trkpt>
      <trkpt lat="41.621312920" lon="2.494843270">
        <ele>512.52</ele>
        <time>2016-01-02T09:07:08Z</time>
      </trkpt>
      <trkpt lat="41.621383830" lon="2.494775130">
        <ele>513.00</ele>
        <time>2016-01-02T09:07:11Z</time>
      </trkpt>
      <trkpt lat="41.621412500" lon="2.494542030">
        <ele>513.00</ele>
        <time>2016-01-02T09:07:17Z</time>
      </trkpt>
      <trkpt lat="41.621380060" lon="2.494216060">
        <ele>513.48</ele>
        <time>2016-01-02T09:07:24Z</time>
      </trkpt>
      <trkpt lat="41.621455670" lon="2.493951440">
        <ele>513.48</ele>
        <time>2016-01-02T09:07:30Z</time>
      </trkpt>
      <trkpt lat="41.621565720" lon="2.493879100">
        <ele>513.48</ele>
        <time>2016-01-02T09:07:33Z</time>
      </trkpt>
      <trkpt lat="41.621671250" lon="2.493769300">
        <ele>512.52</ele>
        <time>2016-01-02T09:07:36Z</time>
      </trkpt>
      <trkpt lat="41.621839890" lon="2.493620440">
        <ele>512.04</ele>
        <time>2016-01-02T09:07:40Z</time>
      </trkpt>
      <trkpt lat="41.622043240" lon="2.493653210">
        <ele>511.56</ele>
        <time>2016-01-02T09:07:44Z</time>
      </trkpt>
      <trkpt lat="41.622104170" lon="2.493761930">
        <ele>511.08</ele>
        <time>2016-01-02T09:07:46Z</time>
      </trkpt>
      <trkpt lat="41.622347330" lon="2.493978930">
        <ele>510.60</ele>
        <time>2016-01-02T09:07:52Z</time>
      </trkpt>
      <trkpt lat="41.622395110" lon="2.493982870">
        <ele>510.60</ele>
        <time>2016-01-02T09:07:53Z</time>
      </trkpt>
      <trkpt lat="41.622567780" lon="2.493976500">
        <ele>510.12</ele>
        <time>2016-01-02T09:07:57Z</time>
      </trkpt>
      <trkpt lat="41.622752680" lon="2.494062750">
        <ele>509.64</ele>
        <time>2016-01-02T09:08:01Z</time>
      </trkpt>
      <trkpt lat="41.623013940" lon="2.494393840">
        <ele>509.64</ele>
        <time>2016-01-02T09:08:08Z</time>
      </trkpt>
      <trkpt lat="41.623141850" lon="2.494800110">
        <ele>509.64</ele>
        <time>2016-01-02T09:08:16Z</time>
      </trkpt>
      <trkpt lat="41.623188200" lon="2.495021310">
        <ele>509.64</ele>
        <time>2016-01-02T09:08:20Z</time>
      </trkpt>
      <trkpt lat="41.623202030" lon="2.495090710">
        <ele>510.60</ele>
        <time>2016-01-02T09:08:22Z</time>
      </trkpt>
      <trkpt lat="41.623195250" lon="2.495257340">
        <ele>511.08</ele>
        <time>2016-01-02T09:08:29Z</time>
      </trkpt>
      <trkpt lat="41.623180240" lon="2.495307800">
        <ele>511.08</ele>
        <time>2016-01-02T09:08:32Z</time>
      </trkpt>
      <trkpt lat="41.623124330" lon="2.495473340">
        <ele>511.56</ele>
        <time>2016-01-02T09:08:39Z</time>
      </trkpt>
      <trkpt lat="41.623110090" lon="2.495650540">
        <ele>512.04</ele>
        <time>2016-01-02T09:08:44Z</time>
      </trkpt>
      <trkpt lat="41.623192230" lon="2.495778700">
        <ele>513.00</ele>
        <time>2016-01-02T09:08:49Z</time>
      </trkpt>
      <trkpt lat="41.623255510" lon="2.495857650">
        <ele>513.00</ele>
        <time>2016-01-02T09:08:52Z</time>
      </trkpt>
      <trkpt lat="41.623371350" lon="2.496120510">
        <ele>514.44</ele>
        <time>2016-01-02T09:09:01Z</time>
      </trkpt>
      <trkpt lat="41.623507140" lon="2.496340280">
        <ele>514.44</ele>
        <time>2016-01-02T09:09:09Z</time>
      </trkpt>
      <trkpt lat="41.623664550" lon="2.496400210">
        <ele>514.92</ele>
        <time>2016-01-02T09:09:15Z</time>
      </trkpt>
      <trkpt lat="41.623857580" lon="2.496407000">
        <ele>514.92</ele>
        <time>2016-01-02T09:09:22Z</time>
      </trkpt>
      <trkpt lat="41.624051790" lon="2.496272560">
        <ele>513.00</ele>
        <time>2016-01-02T09:09:28Z</time>
      </trkpt>
      <trkpt lat="41.624190600" lon="2.496053120">
        <ele>512.04</ele>
        <time>2016-01-02T09:09:32Z</time>
      </trkpt>
      <trkpt lat="41.624256140" lon="2.495764110">
        <ele>511.56</ele>
        <time>2016-01-02T09:09:36Z</time>
      </trkpt>
      <trkpt lat="41.624269640" lon="2.495453560">
        <ele>510.60</ele>
        <time>2016-01-02T09:09:40Z</time>
      </trkpt>
      <trkpt lat="41.624244830" lon="2.495100680">
        <ele>509.16</ele>
        <time>2016-01-02T09:09:46Z</time>
      </trkpt>
      <trkpt lat="41.624234350" lon="2.494988620">
        <ele>509.16</ele>
        <time>2016-01-02T09:09:48Z</time>
      </trkpt>
      <trkpt lat="41.624244070" lon="2.494760710">
        <ele>508.67</ele>
        <time>2016-01-02T09:09:52Z</time>
      </trkpt>
      <trkpt lat="41.624338030" lon="2.494446480">
        <ele>507.23</ele>
        <time>2016-01-02T09:09:59Z</time>
      </trkpt>
      <trkpt lat="41.624268050" lon="2.494208010">
        <ele>507.23</ele>
        <time>2016-01-02T09:10:05Z</time>
      </trkpt>
      <trkpt lat="41.624242060" lon="2.494122350">
        <ele>507.23</ele>
        <time>2016-01-02T09:10:07Z</time>
      </trkpt>
      <trkpt lat="41.624159500" lon="2.493710540">
        <ele>507.23</ele>
        <time>2016-01-02T09:10:16Z</time>
      </trkpt>
      <trkpt lat="41.624099320" lon="2.493246100">
        <ele>507.23</ele>
        <time>2016-01-02T09:10:26Z</time>
      </trkpt>
      <trkpt lat="41.624091190" lon="2.493124310">
        <ele>508.19</ele>
        <time>2016-01-02T09:10:29Z</time>
      </trkpt>
      <trkpt lat="41.624081630" lon="2.493027750">
        <ele>508.19</ele>
        <time>2016-01-02T09:10:31Z</time>
      </trkpt>
      <trkpt lat="41.624058250" lon="2.492915440">
        <ele>508.19</ele>
        <time>2016-01-02T09:10:33Z</time>
      </trkpt>
      <trkpt lat="41.624059920" lon="2.492729690">
        <ele>507.23</ele>
        <time>2016-01-02T09:10:36Z</time>
      </trkpt>
      <trkpt lat="41.624110300" lon="2.492615620">
        <ele>507.23</ele>
        <time>2016-01-02T09:10:38Z</time>
      </trkpt>
      <trkpt lat="41.624190680" lon="2.492455440">
        <ele>506.27</ele>
        <time>2016-01-02T09:10:41Z</time>
      </trkpt>
      <trkpt lat="41.624260330" lon="2.492202980">
        <ele>506.75</ele>
        <time>2016-01-02T09:10:46Z</time>
      </trkpt>
      <trkpt lat="41.624327890" lon="2.491807600">
        <ele>508.19</ele>
        <time>2016-01-02T09:10:55Z</time>
      </trkpt>
      <trkpt lat="41.624326720" lon="2.491380290">
        <ele>508.19</ele>
        <time>2016-01-02T09:11:03Z</time>
      </trkpt>
      <trkpt lat="41.624368800" lon="2.491084330">
        <ele>509.16</ele>
        <time>2016-01-02T09:11:10Z</time>
      </trkpt>
      <trkpt lat="41.624448510" lon="2.490776460">
        <ele>511.08</ele>
        <time>2016-01-02T09:11:19Z</time>
      </trkpt>
      <trkpt lat="41.624592260" lon="2.490536650">
        <ele>511.08</ele>
        <time>2016-01-02T09:11:25Z</time>
      </trkpt>
      <trkpt lat="41.624646820" lon="2.490396510">
        <ele>511.08</ele>
        <time>2016-01-02T09:11:28Z</time>
      </trkpt>
      <trkpt lat="41.624786720" lon="2.490212270">
        <ele>510.60</ele>
        <time>2016-01-02T09:11:34Z</time>
      </trkpt>
      <trkpt lat="41.624950420" lon="2.489936430">
        <ele>510.60</ele>
        <time>2016-01-02T09:11:41Z</time>
      </trkpt>
      <trkpt lat="41.625015290" lon="2.489694360">
        <ele>510.60</ele>
        <time>2016-01-02T09:11:47Z</time>
      </trkpt>
      <trkpt lat="41.625082850" lon="2.489421690">
        <ele>510.60</ele>
        <time>2016-01-02T09:11:54Z</time>
      </trkpt>
      <trkpt lat="41.625133230" lon="2.489165880">
        <ele>510.60</ele>
        <time>2016-01-02T09:12:00Z</time>
      </trkpt>
      <trkpt lat="41.625175130" lon="2.488869240">
        <ele>510.60</ele>
        <time>2016-01-02T09:12:08Z</time>
      </trkpt>
      <trkpt lat="41.625245040" lon="2.488583330">
        <ele>511.08</ele>
        <time>2016-01-02T09:12:16Z</time>
      </trkpt>
      <trkpt lat="41.625235650" lon="2.488337830">
        <ele>511.56</ele>
        <time>2016-01-02T09:12:23Z</time>
      </trkpt>
      <trkpt lat="41.625207320" lon="2.488197260">
        <ele>512.04</ele>
        <time>2016-01-02T09:12:28Z</time>
      </trkpt>
      <trkpt lat="41.625169020" lon="2.488138260">
        <ele>513.00</ele>
        <time>2016-01-02T09:12:32Z</time>
      </trkpt>
      <trkpt lat="41.625005820" lon="2.488150910">
        <ele>513.00</ele>
        <time>2016-01-02T09:12:40Z</time>
      </trkpt>
      <trkpt lat="41.624933230" lon="2.488206230">
        <ele>513.00</ele>
        <time>2016-01-02T09:12:44Z</time>
      </trkpt>
      <trkpt lat="41.624748910" lon="2.488261050">
        <ele>513.00</ele>
        <time>2016-01-02T09:12:51Z</time>
      </trkpt>
      <trkpt lat="41.624629980" lon="2.488238080">
        <ele>513.00</ele>
        <time>2016-01-02T09:12:57Z</time>
      </trkpt>
      <trkpt lat="41.624509360" lon="2.488206990">
        <ele>514.92</ele>
        <time>2016-01-02T09:13:05Z</time>
      </trkpt>
      <trkpt lat="41.624355220" lon="2.488183270">
        <ele>516.37</ele>
        <time>2016-01-02T09:13:13Z</time>
      </trkpt>
      <trkpt lat="41.624198060" lon="2.488198940">
        <ele>516.37</ele>
        <time>2016-01-02T09:13:20Z</time>
      </trkpt>
      <trkpt lat="41.624032850" lon="2.488171200">
        <ele>517.33</ele>
        <time>2016-01-02T09:13:27Z</time>
      </trkpt>
      <trkpt lat="41.623887760" lon="2.488174050">
        <ele>519.25</ele>
        <time>2016-01-02T09:13:35Z</time>
      </trkpt>
      <trkpt lat="41.623868480" lon="2.488173710">
        <ele>519.25</ele>
        <time>2016-01-02T09:13:36Z</time>
      </trkpt>
      <trkpt lat="41.623751130" lon="2.488176980">
        <ele>520.21</ele>
        <time>2016-01-02T09:13:42Z</time>
      </trkpt>
      <trkpt lat="41.623600510" lon="2.488241520">
        <ele>522.61</ele>
        <time>2016-01-02T09:13:51Z</time>
      </trkpt>
      <trkpt lat="41.623454410" lon="2.488368170">
        <ele>524.54</ele>
        <time>2016-01-02T09:14:00Z</time>
      </trkpt>
      <trkpt lat="41.623319970" lon="2.488478060">
        <ele>526.46</ele>
        <time>2016-01-02T09:14:09Z</time>
      </trkpt>
      <trkpt lat="41.623226010" lon="2.488549390">
        <ele>527.90</ele>
        <time>2016-01-02T09:14:15Z</time>
      </trkpt>
      <trkpt lat="41.623185440" lon="2.488577720">
        <ele>527.90</ele>
        <time>2016-01-02T09:14:22Z</time>
      </trkpt>
      <trkpt lat="41.623175800" lon="2.488595240">
        <ele>527.90</ele>
        <time>2016-01-02T09:14:35Z</time>
      </trkpt>
      <trkpt lat="41.623093490" lon="2.488588450">
        <ele>527.90</ele>
        <time>2016-01-02T09:14:41Z</time>
      </trkpt>
      <trkpt lat="41.622965580" lon="2.488521060">
        <ele>524.54</ele>
        <time>2016-01-02T09:14:46Z</time>
      </trkpt>
      <trkpt lat="41.622883940" lon="2.488480400">
        <ele>523.58</ele>
        <time>2016-01-02T09:14:49Z</time>
      </trkpt>
      <trkpt lat="41.622733490" lon="2.488449640">
        <ele>520.69</ele>
        <time>2016-01-02T09:14:54Z</time>
      </trkpt>
      <trkpt lat="41.622711190" lon="2.488412680">
        <ele>520.21</ele>
        <time>2016-01-02T09:14:55Z</time>
      </trkpt>
      <trkpt lat="41.622609600" lon="2.488254090">
        <ele>517.33</ele>
        <time>2016-01-02T09:14:59Z</time>
      </trkpt>
      <trkpt lat="41.622578340" lon="2.488213780">
        <ele>517.33</ele>
        <time>2016-01-02T09:15:00Z</time>
      </trkpt>
      <trkpt lat="41.622453110" lon="2.488091900">
        <ele>514.44</ele>
        <time>2016-01-02T09:15:04Z</time>
      </trkpt>
      <trkpt lat="41.622276920" lon="2.487922250">
        <ele>512.52</ele>
        <time>2016-01-02T09:15:10Z</time>
      </trkpt>
      <trkpt lat="41.622312970" lon="2.487827450">
        <ele>511.56</ele>
        <time>2016-01-02T09:15:14Z</time>
      </trkpt>
      <trkpt lat="41.622349090" lon="2.487811530">
        <ele>511.56</ele>
        <time>2016-01-02T09:15:16Z</time>
      </trkpt>
      <trkpt lat="41.622482530" lon="2.487709190">
        <ele>511.56</ele>
        <time>2016-01-02T09:15:25Z</time>
      </trkpt>
      <trkpt lat="41.622606500" lon="2.487545240">
        <ele>513.48</ele>
        <time>2016-01-02T09:15:34Z</time>
      </trkpt>
      <trkpt lat="41.622627540" lon="2.487505510">
        <ele>513.96</ele>
        <time>2016-01-02T09:15:36Z</time>
      </trkpt>
      <trkpt lat="41.622729630" lon="2.487295710">
        <ele>515.88</ele>
        <time>2016-01-02T09:15:46Z</time>
      </trkpt>
      <trkpt lat="41.622766180" lon="2.487207780">
        <ele>516.85</ele>
        <time>2016-01-02T09:15:50Z</time>
      </trkpt>
      <trkpt lat="41.622830800" lon="2.486987420">
        <ele>519.73</ele>
        <time>2016-01-02T09:16:00Z</time>
      </trkpt>
      <trkpt lat="41.622897860" lon="2.486840650">
        <ele>520.21</ele>
        <time>2016-01-02T09:16:07Z</time>
      </trkpt>
      <trkpt lat="41.623030040" lon="2.486740240">
        <ele>518.77</ele>
        <time>2016-01-02T09:16:13Z</time>
      </trkpt>
      <trkpt lat="41.623168670" lon="2.486696150">
        <ele>516.85</ele>
        <time>2016-01-02T09:16:18Z</time>
      </trkpt>
      <trkpt lat="41.623340250" lon="2.486610650">
        <ele>514.92</ele>
        <time>2016-01-02T09:16:23Z</time>
      </trkpt>
      <trkpt lat="41.623496740" lon="2.486476790">
        <ele>513.00</ele>
        <time>2016-01-02T09:16:28Z</time>
      </trkpt>
      <trkpt lat="41.623550050" lon="2.486408310">
        <ele>512.52</ele>
        <time>2016-01-02T09:16:30Z</time>
      </trkpt>
      <trkpt lat="41.623669910" lon="2.486315950">
        <ele>510.60</ele>
        <time>2016-01-02T09:16:35Z</time>
      </trkpt>
      <trkpt lat="41.623687680" lon="2.486317370">
        <ele>510.60</ele>
        <time>2016-01-02T09:16:40Z</time>
      </trkpt>
      <trkpt lat="41.623694560" lon="2.486289790">
        <ele>510.60</ele>
        <time>2016-01-02T09:16:55Z</time>
      </trkpt>
      <trkpt lat="41.623695900" lon="2.486308320">
        <ele>510.60</ele>
        <time>2016-01-02T09:17:20Z</time>
      </trkpt>
      <trkpt lat="41.623684250" lon="2.486319720">
        <ele>510.60</ele>
        <time>2016-01-02T09:17:34Z</time>
      </trkpt>
      <trkpt lat="41.623672340" lon="2.486309830">
        <ele>510.60</ele>
        <time>2016-01-02T09:17:48Z</time>
      </trkpt>
      <trkpt lat="41.623695480" lon="2.486278480">
        <ele>510.60</ele>
        <time>2016-01-02T09:18:03Z</time>
      </trkpt>
      <trkpt lat="41.623691200" lon="2.486265990">
        <ele>510.60</ele>
        <time>2016-01-02T09:18:26Z</time>
      </trkpt>
      <trkpt lat="41.623678630" lon="2.486271770">
        <ele>510.60</ele>
        <time>2016-01-02T09:18:43Z</time>
      </trkpt>
      <trkpt lat="41.623678130" lon="2.486302030">
        <ele>510.60</ele>
        <time>2016-01-02T09:18:59Z</time>
      </trkpt>
      <trkpt lat="41.623679130" lon="2.486317620">
        <ele>510.60</ele>
        <time>2016-01-02T09:19:12Z</time>
      </trkpt>
      <trkpt lat="41.623679130" lon="2.486292900">
        <ele>510.60</ele>
        <time>2016-01-02T09:19:31Z</time>
      </trkpt>
      <trkpt lat="41.623690700" lon="2.486300440">
        <ele>510.60</ele>
        <time>2016-01-02T09:19:47Z</time>
      </trkpt>
      <trkpt lat="41.623711820" lon="2.486299680">
        <ele>510.60</ele>
        <time>2016-01-02T09:20:05Z</time>
      </trkpt>
      <trkpt lat="41.623815760" lon="2.486244700">
        <ele>510.12</ele>
        <time>2016-01-02T09:20:11Z</time>
      </trkpt>
      <trkpt lat="41.623848030" lon="2.486234810">
        <ele>509.64</ele>
        <time>2016-01-02T09:20:12Z</time>
      </trkpt>
      <trkpt lat="41.623960350" lon="2.486188540">
        <ele>508.67</ele>
        <time>2016-01-02T09:20:15Z</time>
      </trkpt>
      <trkpt lat="41.624114660" lon="2.486136740">
        <ele>507.23</ele>
        <time>2016-01-02T09:20:18Z</time>
      </trkpt>
      <trkpt lat="41.624235440" lon="2.486039680">
        <ele>505.31</ele>
        <time>2016-01-02T09:20:22Z</time>
      </trkpt>
      <trkpt lat="41.624245830" lon="2.486005730">
        <ele>505.31</ele>
        <time>2016-01-02T09:20:23Z</time>
      </trkpt>
      <trkpt lat="41.624257570" lon="2.485924180">
        <ele>504.35</ele>
        <time>2016-01-02T09:20:25Z</time>
      </trkpt>
      <trkpt lat="41.624138880" lon="2.485715130">
        <ele>502.43</ele>
        <time>2016-01-02T09:20:31Z</time>
      </trkpt>
      <trkpt lat="41.623983810" lon="2.485414640">
        <ele>499.06</ele>
        <time>2016-01-02T09:20:38Z</time>
      </trkpt>
      <trkpt lat="41.623853560" lon="2.485150270">
        <ele>497.14</ele>
        <time>2016-01-02T09:20:44Z</time>
      </trkpt>
      <trkpt lat="41.623919690" lon="2.485006020">
        <ele>496.18</ele>
        <time>2016-01-02T09:20:48Z</time>
      </trkpt>
      <trkpt lat="41.624019940" lon="2.484934360">
        <ele>495.22</ele>
        <time>2016-01-02T09:20:51Z</time>
      </trkpt>
      <trkpt lat="41.624091440" lon="2.484675770">
        <ele>495.22</ele>
        <time>2016-01-02T09:20:56Z</time>
      </trkpt>
      <trkpt lat="41.624061600" lon="2.484471510">
        <ele>493.77</ele>
        <time>2016-01-02T09:21:00Z</time>
      </trkpt>
      <trkpt lat="41.623893460" lon="2.484392220">
        <ele>492.33</ele>
        <time>2016-01-02T09:21:04Z</time>
      </trkpt>
      <trkpt lat="41.623802260" lon="2.484363800">
        <ele>491.85</ele>
        <time>2016-01-02T09:21:08Z</time>
      </trkpt>
      <trkpt lat="41.623771590" lon="2.484353660">
        <ele>491.85</ele>
        <time>2016-01-02T09:21:10Z</time>
      </trkpt>
      <trkpt lat="41.623727160" lon="2.484334300">
        <ele>491.85</ele>
        <time>2016-01-02T09:21:13Z</time>
      </trkpt>
      <trkpt lat="41.623541420" lon="2.484338400">
        <ele>491.37</ele>
        <time>2016-01-02T09:21:22Z</time>
      </trkpt>
      <trkpt lat="41.623310080" lon="2.484301270">
        <ele>491.37</ele>
        <time>2016-01-02T09:21:29Z</time>
      </trkpt>
      <trkpt lat="41.623210000" lon="2.484243440">
        <ele>490.89</ele>
        <time>2016-01-02T09:21:32Z</time>
      </trkpt>
      <trkpt lat="41.623187370" lon="2.484033050">
        <ele>490.89</ele>
        <time>2016-01-02T09:21:37Z</time>
      </trkpt>
      <trkpt lat="41.623244200" lon="2.483819900">
        <ele>490.89</ele>
        <time>2016-01-02T09:21:44Z</time>
      </trkpt>
      <trkpt lat="41.623274870" lon="2.483704140">
        <ele>492.81</ele>
        <time>2016-01-02T09:21:49Z</time>
      </trkpt>
      <trkpt lat="41.623314690" lon="2.483528210">
        <ele>494.26</ele>
        <time>2016-01-02T09:21:56Z</time>
      </trkpt>
      <trkpt lat="41.623262380" lon="2.483399460">
        <ele>494.26</ele>
        <time>2016-01-02T09:22:02Z</time>
      </trkpt>
      <trkpt lat="41.623247800" lon="2.483393090">
        <ele>494.74</ele>
        <time>2016-01-02T09:22:03Z</time>
      </trkpt>
      <trkpt lat="41.623196340" lon="2.483374740">
        <ele>494.74</ele>
        <time>2016-01-02T09:22:06Z</time>
      </trkpt>
      <trkpt lat="41.622991480" lon="2.483418240">
        <ele>495.22</ele>
        <time>2016-01-02T09:22:15Z</time>
      </trkpt>
      <trkpt lat="41.622832060" lon="2.483381860">
        <ele>495.70</ele>
        <time>2016-01-02T09:22:21Z</time>
      </trkpt>
      <trkpt lat="41.622753270" lon="2.483390160">
        <ele>496.66</ele>
        <time>2016-01-02T09:22:24Z</time>
      </trkpt>
      <trkpt lat="41.622531150" lon="2.483321180">
        <ele>497.14</ele>
        <time>2016-01-02T09:22:32Z</time>
      </trkpt>
      <trkpt lat="41.622392430" lon="2.483227380">
        <ele>495.22</ele>
        <time>2016-01-02T09:22:36Z</time>
      </trkpt>
      <trkpt lat="41.622265440" lon="2.482945330">
        <ele>492.81</ele>
        <time>2016-01-02T09:22:42Z</time>
      </trkpt>
      <trkpt lat="41.622250520" lon="2.482888500">
        <ele>492.81</ele>
        <time>2016-01-02T09:22:43Z</time>
      </trkpt>
      <trkpt lat="41.622186230" lon="2.482717260">
        <ele>491.85</ele>
        <time>2016-01-02T09:22:46Z</time>
      </trkpt>
      <trkpt lat="41.622076760" lon="2.482373770">
        <ele>491.85</ele>
        <time>2016-01-02T09:22:53Z</time>
      </trkpt>
      <trkpt lat="41.622094280" lon="2.482142930">
        <ele>491.85</ele>
        <time>2016-01-02T09:22:59Z</time>
      </trkpt>
      <trkpt lat="41.621969640" lon="2.481934560">
        <ele>493.77</ele>
        <time>2016-01-02T09:23:06Z</time>
      </trkpt>
      <trkpt lat="41.621888760" lon="2.481842690">
        <ele>493.77</ele>
        <time>2016-01-02T09:23:09Z</time>
      </trkpt>
      <trkpt lat="41.621816670" lon="2.481708920">
        <ele>492.33</ele>
        <time>2016-01-02T09:23:12Z</time>
      </trkpt>
      <trkpt lat="41.621708040" lon="2.481538260">
        <ele>490.89</ele>
        <time>2016-01-02T09:23:16Z</time>
      </trkpt>
      <trkpt lat="41.621757160" lon="2.481337510">
        <ele>489.45</ele>
        <time>2016-01-02T09:23:21Z</time>
      </trkpt>
      <trkpt lat="41.621807200" lon="2.481297200">
        <ele>488.97</ele>
        <time>2016-01-02T09:23:23Z</time>
      </trkpt>
      <trkpt lat="41.621905860" lon="2.480998380">
        <ele>486.56</ele>
        <time>2016-01-02T09:23:29Z</time>
      </trkpt>
      <trkpt lat="41.621888420" lon="2.480841560">
        <ele>486.56</ele>
        <time>2016-01-02T09:23:33Z</time>
      </trkpt>
      <trkpt lat="41.621928070" lon="2.480751540">
        <ele>486.56</ele>
        <time>2016-01-02T09:23:37Z</time>
      </trkpt>
      <trkpt lat="41.621857490" lon="2.480660170">
        <ele>486.56</ele>
        <time>2016-01-02T09:23:43Z</time>
      </trkpt>
      <trkpt lat="41.621807620" lon="2.480669980">
        <ele>486.56</ele>
        <time>2016-01-02T09:23:45Z</time>
      </trkpt>
      <trkpt lat="41.621626320" lon="2.480620530">
        <ele>488.49</ele>
        <time>2016-01-02T09:23:52Z</time>
      </trkpt>
      <trkpt lat="41.621443850" lon="2.480589930">
        <ele>489.93</ele>
        <time>2016-01-02T09:23:59Z</time>
      </trkpt>
      <trkpt lat="41.621252990" lon="2.480564030">
        <ele>492.33</ele>
        <time>2016-01-02T09:24:07Z</time>
      </trkpt>
      <trkpt lat="41.621231870" lon="2.480553810">
        <ele>492.33</ele>
        <time>2016-01-02T09:24:08Z</time>
      </trkpt>
      <trkpt lat="41.621159030" lon="2.480482060">
        <ele>493.77</ele>
        <time>2016-01-02T09:24:12Z</time>
      </trkpt>
      <trkpt lat="41.620982760" lon="2.480450370">
        <ele>494.26</ele>
        <time>2016-01-02T09:24:19Z</time>
      </trkpt>
      <trkpt lat="41.620804480" lon="2.480397900">
        <ele>494.74</ele>
        <time>2016-01-02T09:24:25Z</time>
      </trkpt>
      <trkpt lat="41.620643210" lon="2.480158180">
        <ele>495.22</ele>
        <time>2016-01-02T09:24:32Z</time>
      </trkpt>
      <trkpt lat="41.620510610" lon="2.479842020">
        <ele>495.70</ele>
        <time>2016-01-02T09:24:40Z</time>
      </trkpt>
      <trkpt lat="41.620354700" lon="2.479717460">
        <ele>494.26</ele>
        <time>2016-01-02T09:24:44Z</time>
      </trkpt>
      <trkpt lat="41.620268370" lon="2.479665160">
        <ele>492.81</ele>
        <time>2016-01-02T09:24:46Z</time>
      </trkpt>
      <trkpt lat="41.620208610" lon="2.479485620">
        <ele>490.41</ele>
        <time>2016-01-02T09:24:50Z</time>
      </trkpt>
      <trkpt lat="41.620351520" lon="2.479249500">
        <ele>488.49</ele>
        <time>2016-01-02T09:24:54Z</time>
      </trkpt>
      <trkpt lat="41.620336430" lon="2.478988150">
        <ele>488.01</ele>
        <time>2016-01-02T09:24:57Z</time>
      </trkpt>
      <trkpt lat="41.620237100" lon="2.478817830">
        <ele>488.01</ele>
        <time>2016-01-02T09:25:00Z</time>
      </trkpt>
      <trkpt lat="41.620136520" lon="2.478542900">
        <ele>489.45</ele>
        <time>2016-01-02T09:25:06Z</time>
      </trkpt>
      <trkpt lat="41.620201400" lon="2.478344420">
        <ele>489.45</ele>
        <time>2016-01-02T09:25:10Z</time>
      </trkpt>
      <trkpt lat="41.620250260" lon="2.477994310">
        <ele>488.01</ele>
        <time>2016-01-02T09:25:16Z</time>
      </trkpt>
      <trkpt lat="41.620314800" lon="2.477731450">
        <ele>488.01</ele>
        <time>2016-01-02T09:25:23Z</time>
      </trkpt>
      <trkpt lat="41.620385460" lon="2.477459790">
        <ele>489.45</ele>
        <time>2016-01-02T09:25:31Z</time>
      </trkpt>
      <trkpt lat="41.620313630" lon="2.477308170">
        <ele>490.41</ele>
        <time>2016-01-02T09:25:36Z</time>
      </trkpt>
      <trkpt lat="41.620171560" lon="2.477138260">
        <ele>492.33</ele>
        <time>2016-01-02T09:25:43Z</time>
      </trkpt>
      <trkpt lat="41.620021100" lon="2.477003060">
        <ele>492.33</ele>
        <time>2016-01-02T09:25:48Z</time>
      </trkpt>
      <trkpt lat="41.619984050" lon="2.476678270">
        <ele>492.33</ele>
        <time>2016-01-02T09:25:54Z</time>
      </trkpt>
      <trkpt lat="41.620011300" lon="2.476600900">
        <ele>490.89</ele>
        <time>2016-01-02T09:25:56Z</time>
      </trkpt>
      <trkpt lat="41.620048090" lon="2.476367050">
        <ele>492.81</ele>
        <time>2016-01-02T09:26:02Z</time>
      </trkpt>
      <trkpt lat="41.619956810" lon="2.476158590">
        <ele>493.29</ele>
        <time>2016-01-02T09:26:09Z</time>
      </trkpt>
      <trkpt lat="41.619770740" lon="2.476029000">
        <ele>496.18</ele>
        <time>2016-01-02T09:26:17Z</time>
      </trkpt>
      <trkpt lat="41.619603850" lon="2.475951550">
        <ele>497.14</ele>
        <time>2016-01-02T09:26:24Z</time>
      </trkpt>
      <trkpt lat="41.619499330" lon="2.475850130">
        <ele>498.58</ele>
        <time>2016-01-02T09:26:29Z</time>
      </trkpt>
      <trkpt lat="41.619567220" lon="2.475745860">
        <ele>499.06</ele>
        <time>2016-01-02T09:26:34Z</time>
      </trkpt>
      <trkpt lat="41.619744920" lon="2.475766230">
        <ele>500.98</ele>
        <time>2016-01-02T09:26:41Z</time>
      </trkpt>
      <trkpt lat="41.619769980" lon="2.475753660">
        <ele>501.46</ele>
        <time>2016-01-02T09:26:42Z</time>
      </trkpt>
      <trkpt lat="41.619814400" lon="2.475730690">
        <ele>501.46</ele>
        <time>2016-01-02T09:26:44Z</time>
      </trkpt>
      <trkpt lat="41.619935610" lon="2.475546040">
        <ele>502.91</ele>
        <time>2016-01-02T09:26:53Z</time>
      </trkpt>
      <trkpt lat="41.619957480" lon="2.475328950">
        <ele>503.39</ele>
        <time>2016-01-02T09:26:59Z</time>
      </trkpt>
      <trkpt lat="41.619927140" lon="2.475065670">
        <ele>501.95</ele>
        <time>2016-01-02T09:27:04Z</time>
      </trkpt>
      <trkpt lat="41.620013640" lon="2.474858220">
        <ele>500.02</ele>
        <time>2016-01-02T09:27:09Z</time>
      </trkpt>
      <trkpt lat="41.620055640" lon="2.474664680">
        <ele>499.54</ele>
        <time>2016-01-02T09:27:12Z</time>
      </trkpt>
      <trkpt lat="41.620068210" lon="2.474516410">
        <ele>498.58</ele>
        <time>2016-01-02T09:27:14Z</time>
      </trkpt>
      <trkpt lat="41.620193100" lon="2.474245920">
        <ele>498.58</ele>
        <time>2016-01-02T09:27:19Z</time>
      </trkpt>
      <trkpt lat="41.620225450" lon="2.474212730">
        <ele>498.58</ele>
        <time>2016-01-02T09:27:20Z</time>
      </trkpt>
      <trkpt lat="41.620335420" lon="2.474030930">
        <ele>498.58</ele>
        <time>2016-01-02T09:27:25Z</time>
      </trkpt>
      <trkpt lat="41.620247500" lon="2.473903440">
        <ele>500.02</ele>
        <time>2016-01-02T09:27:30Z</time>
      </trkpt>
      <trkpt lat="41.620187820" lon="2.473897990">
        <ele>500.02</ele>
        <time>2016-01-02T09:27:32Z</time>
      </trkpt>
      <trkpt lat="41.620024790" lon="2.473873260">
        <ele>498.58</ele>
        <time>2016-01-02T09:27:36Z</time>
      </trkpt>
      <trkpt lat="41.619938460" lon="2.473849960">
        <ele>498.10</ele>
        <time>2016-01-02T09:27:38Z</time>
      </trkpt>
      <trkpt lat="41.619828070" lon="2.473725410">
        <ele>496.18</ele>
        <time>2016-01-02T09:27:42Z</time>
      </trkpt>
      <trkpt lat="41.619650870" lon="2.473401780">
        <ele>496.18</ele>
        <time>2016-01-02T09:27:50Z</time>
      </trkpt>
      <trkpt lat="41.619468570" lon="2.473279910">
        <ele>497.62</ele>
        <time>2016-01-02T09:27:57Z</time>
      </trkpt>
      <trkpt lat="41.619455320" lon="2.473261300">
        <ele>497.62</ele>
        <time>2016-01-02T09:27:58Z</time>
      </trkpt>
      <trkpt lat="41.619348200" lon="2.473083940">
        <ele>499.54</ele>
        <time>2016-01-02T09:28:05Z</time>
      </trkpt>
      <trkpt lat="41.619314010" lon="2.473008330">
        <ele>499.54</ele>
        <time>2016-01-02T09:28:07Z</time>
      </trkpt>
      <trkpt lat="41.619287100" lon="2.472890740">
        <ele>498.10</ele>
        <time>2016-01-02T09:28:09Z</time>
      </trkpt>
      <trkpt lat="41.619286850" lon="2.472820910">
        <ele>498.10</ele>
        <time>2016-01-02T09:28:10Z</time>
      </trkpt>
      <trkpt lat="41.619293970" lon="2.472610110">
        <ele>497.14</ele>
        <time>2016-01-02T09:28:14Z</time>
      </trkpt>
      <trkpt lat="41.619186180" lon="2.472230160">
        <ele>497.14</ele>
        <time>2016-01-02T09:28:23Z</time>
      </trkpt>
      <trkpt lat="41.619059200" lon="2.471978700">
        <ele>498.58</ele>
        <time>2016-01-02T09:28:30Z</time>
      </trkpt>
      <trkpt lat="41.619061120" lon="2.471867470">
        <ele>497.14</ele>
        <time>2016-01-02T09:28:33Z</time>
      </trkpt>
      <trkpt lat="41.619139240" lon="2.471731020">
        <ele>495.70</ele>
        <time>2016-01-02T09:28:36Z</time>
      </trkpt>
      <trkpt lat="41.619213090" lon="2.471643340">
        <ele>495.22</ele>
        <time>2016-01-02T09:28:38Z</time>
      </trkpt>
      <trkpt lat="41.619351980" lon="2.471341930">
        <ele>494.74</ele>
        <time>2016-01-02T09:28:43Z</time>
      </trkpt>
      <trkpt lat="41.619405790" lon="2.470999110">
        <ele>492.81</ele>
        <time>2016-01-02T09:28:47Z</time>
      </trkpt>
      <trkpt lat="41.619441410" lon="2.470758380">
        <ele>492.81</ele>
        <time>2016-01-02T09:28:50Z</time>
      </trkpt>
      <trkpt lat="41.619382740" lon="2.470573810">
        <ele>492.81</ele>
        <time>2016-01-02T09:28:54Z</time>
      </trkpt>
      <trkpt lat="41.619285510" lon="2.470543550">
        <ele>493.77</ele>
        <time>2016-01-02T09:28:57Z</time>
      </trkpt>
      <trkpt lat="41.619191710" lon="2.470481520">
        <ele>494.74</ele>
        <time>2016-01-02T09:29:03Z</time>
      </trkpt>
      <trkpt lat="41.619166820" lon="2.470377670">
        <ele>495.70</ele>
        <time>2016-01-02T09:29:10Z</time>
      </trkpt>
      <trkpt lat="41.619134550" lon="2.470268710">
        <ele>496.18</ele>
        <time>2016-01-02T09:29:17Z</time>
      </trkpt>
      <trkpt lat="41.619145860" lon="2.470131410">
        <ele>496.18</ele>
        <time>2016-01-02T09:29:25Z</time>
      </trkpt>
      <trkpt lat="41.619167490" lon="2.469866290">
        <ele>494.74</ele>
        <time>2016-01-02T09:29:32Z</time>
      </trkpt>
      <trkpt lat="41.619139160" lon="2.469491290">
        <ele>492.81</ele>
        <time>2016-01-02T09:29:37Z</time>
      </trkpt>
      <trkpt lat="41.619211330" lon="2.469072020">
        <ele>490.89</ele>
        <time>2016-01-02T09:29:43Z</time>
      </trkpt>
      <trkpt lat="41.619281400" lon="2.468904130">
        <ele>490.41</ele>
        <time>2016-01-02T09:29:48Z</time>
      </trkpt>
      <trkpt lat="41.619260860" lon="2.468653100">
        <ele>489.45</ele>
        <time>2016-01-02T09:29:53Z</time>
      </trkpt>
      <trkpt lat="41.619227920" lon="2.468355370">
        <ele>487.53</ele>
        <time>2016-01-02T09:29:59Z</time>
      </trkpt>
      <trkpt lat="41.619192050" lon="2.468141630">
        <ele>487.53</ele>
        <time>2016-01-02T09:30:04Z</time>
      </trkpt>
      <trkpt lat="41.619203030" lon="2.467835530">
        <ele>486.08</ele>
        <time>2016-01-02T09:30:10Z</time>
      </trkpt>
      <trkpt lat="41.619179810" lon="2.467550040">
        <ele>486.08</ele>
        <time>2016-01-02T09:30:17Z</time>
      </trkpt>
      <trkpt lat="41.619167410" lon="2.467351890">
        <ele>488.97</ele>
        <time>2016-01-02T09:30:23Z</time>
      </trkpt>
      <trkpt lat="41.619162290" lon="2.467291960">
        <ele>490.41</ele>
        <time>2016-01-02T09:30:26Z</time>
      </trkpt>
      <trkpt lat="41.619165900" lon="2.467173690">
        <ele>490.89</ele>
        <time>2016-01-02T09:30:33Z</time>
      </trkpt>
      <trkpt lat="41.619167070" lon="2.467140330">
        <ele>491.37</ele>
        <time>2016-01-02T09:30:35Z</time>
      </trkpt>
      <trkpt lat="41.619130780" lon="2.466982500">
        <ele>491.37</ele>
        <time>2016-01-02T09:30:43Z</time>
      </trkpt>
      <trkpt lat="41.619106390" lon="2.466789130">
        <ele>489.93</ele>
        <time>2016-01-02T09:30:48Z</time>
      </trkpt>
      <trkpt lat="41.619062300" lon="2.466561480">
        <ele>489.45</ele>
        <time>2016-01-02T09:30:52Z</time>
      </trkpt>
      <trkpt lat="41.618954090" lon="2.466244140">
        <ele>488.97</ele>
        <time>2016-01-02T09:30:59Z</time>
      </trkpt>
      <trkpt lat="41.618947460" lon="2.466042390">
        <ele>490.41</ele>
        <time>2016-01-02T09:31:05Z</time>
      </trkpt>
      <trkpt lat="41.618968420" lon="2.465959990">
        <ele>490.89</ele>
        <time>2016-01-02T09:31:09Z</time>
      </trkpt>
      <trkpt lat="41.619032290" lon="2.465732930">
        <ele>490.89</ele>
        <time>2016-01-02T09:31:15Z</time>
      </trkpt>
      <trkpt lat="41.618998510" lon="2.465481380">
        <ele>489.45</ele>
        <time>2016-01-02T09:31:21Z</time>
      </trkpt>
      <trkpt lat="41.618967330" lon="2.465338310">
        <ele>488.97</ele>
        <time>2016-01-02T09:31:26Z</time>
      </trkpt>
      <trkpt lat="41.618865150" lon="2.465056840">
        <ele>488.97</ele>
        <time>2016-01-02T09:31:34Z</time>
      </trkpt>
      <trkpt lat="41.618803970" lon="2.464814690">
        <ele>489.45</ele>
        <time>2016-01-02T09:31:40Z</time>
      </trkpt>
      <trkpt lat="41.618706070" lon="2.464569850">
        <ele>489.45</ele>
        <time>2016-01-02T09:31:47Z</time>
      </trkpt>
      <trkpt lat="41.618643370" lon="2.464218820">
        <ele>488.49</ele>
        <time>2016-01-02T09:31:54Z</time>
      </trkpt>
      <trkpt lat="41.618643450" lon="2.463905750">
        <ele>488.01</ele>
        <time>2016-01-02T09:32:01Z</time>
      </trkpt>
      <trkpt lat="41.618581850" lon="2.463723780">
        <ele>486.56</ele>
        <time>2016-01-02T09:32:05Z</time>
      </trkpt>
      <trkpt lat="41.618560470" lon="2.463675670">
        <ele>486.56</ele>
        <time>2016-01-02T09:32:06Z</time>
      </trkpt>
      <trkpt lat="41.618519570" lon="2.463404520">
        <ele>485.12</ele>
        <time>2016-01-02T09:32:10Z</time>
      </trkpt>
      <trkpt lat="41.618544460" lon="2.463245090">
        <ele>484.16</ele>
        <time>2016-01-02T09:32:12Z</time>
      </trkpt>
      <trkpt lat="41.618558800" lon="2.463164790">
        <ele>483.68</ele>
        <time>2016-01-02T09:32:13Z</time>
      </trkpt>
      <trkpt lat="41.618542700" lon="2.462910820">
        <ele>483.68</ele>
        <time>2016-01-02T09:32:17Z</time>
      </trkpt>
      <trkpt lat="41.618436080" lon="2.462676880">
        <ele>483.68</ele>
        <time>2016-01-02T09:32:24Z</time>
      </trkpt>
      <trkpt lat="41.618397110" lon="2.462506060">
        <ele>483.68</ele>
        <time>2016-01-02T09:32:29Z</time>
      </trkpt>
      <trkpt lat="41.618389230" lon="2.462437160">
        <ele>485.12</ele>
        <time>2016-01-02T09:32:31Z</time>
      </trkpt>
      <trkpt lat="41.618370540" lon="2.462230130">
        <ele>486.08</ele>
        <time>2016-01-02T09:32:38Z</time>
      </trkpt>
      <trkpt lat="41.618275650" lon="2.462101380">
        <ele>486.56</ele>
        <time>2016-01-02T09:32:44Z</time>
      </trkpt>
      <trkpt lat="41.618240120" lon="2.462049330">
        <ele>486.56</ele>
        <time>2016-01-02T09:32:46Z</time>
      </trkpt>
      <trkpt lat="41.618122770" lon="2.461785130">
        <ele>487.53</ele>
        <time>2016-01-02T09:32:55Z</time>
      </trkpt>
      <trkpt lat="41.618081280" lon="2.461687320">
        <ele>488.01</ele>
        <time>2016-01-02T09:32:59Z</time>
      </trkpt>
      <trkpt lat="41.617967870" lon="2.461544240">
        <ele>489.93</ele>
        <time>2016-01-02T09:33:07Z</time>
      </trkpt>
      <trkpt lat="41.617936770" lon="2.461509200">
        <ele>490.89</ele>
        <time>2016-01-02T09:33:10Z</time>
      </trkpt>
      <trkpt lat="41.617925880" lon="2.461479700">
        <ele>491.85</ele>
        <time>2016-01-02T09:33:12Z</time>
      </trkpt>
      <trkpt lat="41.617949350" lon="2.461396630">
        <ele>493.29</ele>
        <time>2016-01-02T09:33:18Z</time>
      </trkpt>
      <trkpt lat="41.617951280" lon="2.461356060">
        <ele>493.77</ele>
        <time>2016-01-02T09:33:20Z</time>
      </trkpt>
      <trkpt lat="41.617965110" lon="2.461136120">
        <ele>493.77</ele>
        <time>2016-01-02T09:33:28Z</time>
      </trkpt>
      <trkpt lat="41.618023190" lon="2.460960520">
        <ele>493.77</ele>
        <time>2016-01-02T09:33:35Z</time>
      </trkpt>
      <trkpt lat="41.618009110" lon="2.460815680">
        <ele>493.77</ele>
        <time>2016-01-02T09:33:42Z</time>
      </trkpt>
      <trkpt lat="41.618013800" lon="2.460614350">
        <ele>493.77</ele>
        <time>2016-01-02T09:33:48Z</time>
      </trkpt>
      <trkpt lat="41.618046660" lon="2.460447460">
        <ele>494.74</ele>
        <time>2016-01-02T09:33:55Z</time>
      </trkpt>
      <trkpt lat="41.618057310" lon="2.460328940">
        <ele>495.22</ele>
        <time>2016-01-02T09:34:02Z</time>
      </trkpt>
      <trkpt lat="41.618090670" lon="2.460194500">
        <ele>495.70</ele>
        <time>2016-01-02T09:34:09Z</time>
      </trkpt>
      <trkpt lat="41.618128050" lon="2.460062400">
        <ele>495.70</ele>
        <time>2016-01-02T09:34:15Z</time>
      </trkpt>
      <trkpt lat="41.618182200" lon="2.459896610">
        <ele>496.66</ele>
        <time>2016-01-02T09:34:23Z</time>
      </trkpt>
      <trkpt lat="41.618209520" lon="2.459772300">
        <ele>496.66</ele>
        <time>2016-01-02T09:34:29Z</time>
      </trkpt>
      <trkpt lat="41.618233160" lon="2.459567030">
        <ele>496.66</ele>
        <time>2016-01-02T09:34:37Z</time>
      </trkpt>
      <trkpt lat="41.618271720" lon="2.459476920">
        <ele>497.62</ele>
        <time>2016-01-02T09:34:41Z</time>
      </trkpt>
      <trkpt lat="41.618305910" lon="2.459447420">
        <ele>498.10</ele>
        <time>2016-01-02T09:34:44Z</time>
      </trkpt>
      <trkpt lat="41.618322510" lon="2.459249270">
        <ele>499.06</ele>
        <time>2016-01-02T09:34:52Z</time>
      </trkpt>
      <trkpt lat="41.618244810" lon="2.458984070">
        <ele>500.02</ele>
        <time>2016-01-02T09:35:02Z</time>
      </trkpt>
      <trkpt lat="41.618191080" lon="2.458778960">
        <ele>501.95</ele>
        <time>2016-01-02T09:35:11Z</time>
      </trkpt>
      <trkpt lat="41.618152190" lon="2.458598750">
        <ele>504.35</ele>
        <time>2016-01-02T09:35:20Z</time>
      </trkpt>
      <trkpt lat="41.618131490" lon="2.458421220">
        <ele>505.31</ele>
        <time>2016-01-02T09:35:28Z</time>
      </trkpt>
      <trkpt lat="41.618129560" lon="2.458216120">
        <ele>506.75</ele>
        <time>2016-01-02T09:35:36Z</time>
      </trkpt>
      <trkpt lat="41.618122690" lon="2.457988470">
        <ele>508.67</ele>
        <time>2016-01-02T09:35:45Z</time>
      </trkpt>
      <trkpt lat="41.618140120" lon="2.457916550">
        <ele>509.64</ele>
        <time>2016-01-02T09:35:49Z</time>
      </trkpt>
      <trkpt lat="41.618148000" lon="2.457835160">
        <ele>511.56</ele>
        <time>2016-01-02T09:35:54Z</time>
      </trkpt>
      <trkpt lat="41.618168790" lon="2.457767940">
        <ele>512.04</ele>
        <time>2016-01-02T09:35:58Z</time>
      </trkpt>
      <trkpt lat="41.618206840" lon="2.457619490">
        <ele>514.44</ele>
        <time>2016-01-02T09:36:06Z</time>
      </trkpt>
      <trkpt lat="41.618221260" lon="2.457451600">
        <ele>516.85</ele>
        <time>2016-01-02T09:36:15Z</time>
      </trkpt>
      <trkpt lat="41.618206170" lon="2.457316320">
        <ele>517.81</ele>
        <time>2016-01-02T09:36:22Z</time>
      </trkpt>
      <trkpt lat="41.618231900" lon="2.457101160">
        <ele>517.81</ele>
        <time>2016-01-02T09:36:29Z</time>
      </trkpt>
      <trkpt lat="41.618226790" lon="2.456855060">
        <ele>516.37</ele>
        <time>2016-01-02T09:36:36Z</time>
      </trkpt>
      <trkpt lat="41.618208010" lon="2.456759430">
        <ele>516.37</ele>
        <time>2016-01-02T09:36:39Z</time>
      </trkpt>
      <trkpt lat="41.618175740" lon="2.456609390">
        <ele>517.81</ele>
        <time>2016-01-02T09:36:45Z</time>
      </trkpt>
      <trkpt lat="41.618099050" lon="2.456437650">
        <ele>517.81</ele>
        <time>2016-01-02T09:36:51Z</time>
      </trkpt>
      <trkpt lat="41.618080020" lon="2.456360360">
        <ele>516.85</ele>
        <time>2016-01-02T09:36:54Z</time>
      </trkpt>
      <trkpt lat="41.618019590" lon="2.456215860">
        <ele>516.85</ele>
        <time>2016-01-02T09:37:00Z</time>
      </trkpt>
      <trkpt lat="41.617993520" lon="2.456157360">
        <ele>516.85</ele>
        <time>2016-01-02T09:37:02Z</time>
      </trkpt>
      <trkpt lat="41.617885390" lon="2.455887290">
        <ele>518.29</ele>
        <time>2016-01-02T09:37:11Z</time>
      </trkpt>
      <trkpt lat="41.617845160" lon="2.455612450">
        <ele>518.77</ele>
        <time>2016-01-02T09:37:19Z</time>
      </trkpt>
      <trkpt lat="41.617802250" lon="2.455346070">
        <ele>518.77</ele>
        <time>2016-01-02T09:37:26Z</time>
      </trkpt>
      <trkpt lat="41.617737700" lon="2.455100480">
        <ele>518.77</ele>
        <time>2016-01-02T09:37:32Z</time>
      </trkpt>
      <trkpt lat="41.617654890" lon="2.454874840">
        <ele>519.25</ele>
        <time>2016-01-02T09:37:38Z</time>
      </trkpt>
      <trkpt lat="41.617541320" lon="2.454692870">
        <ele>518.77</ele>
        <time>2016-01-02T09:37:43Z</time>
      </trkpt>
      <trkpt lat="41.617478960" lon="2.454574770">
        <ele>517.81</ele>
        <time>2016-01-02T09:37:45Z</time>
      </trkpt>
      <trkpt lat="41.617390190" lon="2.454354160">
        <ele>517.33</ele>
        <time>2016-01-02T09:37:48Z</time>
      </trkpt>
      <trkpt lat="41.617152650" lon="2.454046040">
        <ele>516.37</ele>
        <time>2016-01-02T09:37:54Z</time>
      </trkpt>
      <trkpt lat="41.617100090" lon="2.454021060">
        <ele>516.37</ele>
        <time>2016-01-02T09:37:55Z</time>
      </trkpt>
      <trkpt lat="41.616790550" lon="2.453823410">
        <ele>515.88</ele>
        <time>2016-01-02T09:38:03Z</time>
      </trkpt>
      <trkpt lat="41.616672030" lon="2.453611770">
        <ele>518.29</ele>
        <time>2016-01-02T09:38:10Z</time>
      </trkpt>
      <trkpt lat="41.616537830" lon="2.453404910">
        <ele>520.69</ele>
        <time>2016-01-02T09:38:18Z</time>
      </trkpt>
      <trkpt lat="41.616408500" lon="2.453265010">
        <ele>522.13</ele>
        <time>2016-01-02T09:38:25Z</time>
      </trkpt>
      <trkpt lat="41.616186130" lon="2.453137190">
        <ele>522.61</ele>
        <time>2016-01-02T09:38:33Z</time>
      </trkpt>
      <trkpt lat="41.616035090" lon="2.453020430">
        <ele>522.61</ele>
        <time>2016-01-02T09:38:39Z</time>
      </trkpt>
      <trkpt lat="41.615828060" lon="2.452836030">
        <ele>522.61</ele>
        <time>2016-01-02T09:38:47Z</time>
      </trkpt>
      <trkpt lat="41.615715650" lon="2.452620280">
        <ele>522.61</ele>
        <time>2016-01-02T09:38:53Z</time>
      </trkpt>
      <trkpt lat="41.615638210" lon="2.452251220">
        <ele>522.61</ele>
        <time>2016-01-02T09:39:00Z</time>
      </trkpt>
      <trkpt lat="41.615643400" lon="2.452147700">
        <ele>522.61</ele>
        <time>2016-01-02T09:39:02Z</time>
      </trkpt>
      <trkpt lat="41.615715740" lon="2.452039410">
        <ele>520.69</ele>
        <time>2016-01-02T09:39:06Z</time>
      </trkpt>
      <trkpt lat="41.615799640" lon="2.451944360">
        <ele>519.25</ele>
        <time>2016-01-02T09:39:09Z</time>
      </trkpt>
      <trkpt lat="41.615988570" lon="2.451862970">
        <ele>517.81</ele>
        <time>2016-01-02T09:39:14Z</time>
      </trkpt>
      <trkpt lat="41.616090160" lon="2.451745460">
        <ele>515.40</ele>
        <time>2016-01-02T09:39:18Z</time>
      </trkpt>
      <trkpt lat="41.616172640" lon="2.451613530">
        <ele>512.52</ele>
        <time>2016-01-02T09:39:22Z</time>
      </trkpt>
      <trkpt lat="41.616248580" lon="2.451409430">
        <ele>509.16</ele>
        <time>2016-01-02T09:39:26Z</time>
      </trkpt>
      <trkpt lat="41.616295930" lon="2.451200470">
        <ele>507.23</ele>
        <time>2016-01-02T09:39:29Z</time>
      </trkpt>
      <trkpt lat="41.616315710" lon="2.451039450">
        <ele>506.75</ele>
        <time>2016-01-02T09:39:31Z</time>
      </trkpt>
      <trkpt lat="41.616334240" lon="2.450918580">
        <ele>505.79</ele>
        <time>2016-01-02T09:39:33Z</time>
      </trkpt>
      <trkpt lat="41.616391320" lon="2.450798220">
        <ele>503.87</ele>
        <time>2016-01-02T09:39:37Z</time>
      </trkpt>
      <trkpt lat="41.616570940" lon="2.450534360">
        <ele>502.91</ele>
        <time>2016-01-02T09:39:44Z</time>
      </trkpt>
      <trkpt lat="41.616585440" lon="2.450506610">
        <ele>502.43</ele>
        <time>2016-01-02T09:39:45Z</time>
      </trkpt>
      <trkpt lat="41.616617710" lon="2.450378540">
        <ele>502.43</ele>
        <time>2016-01-02T09:39:49Z</time>
      </trkpt>
      <trkpt lat="41.616619640" lon="2.450296140">
        <ele>501.95</ele>
        <time>2016-01-02T09:39:52Z</time>
      </trkpt>
      <trkpt lat="41.616573460" lon="2.450144350">
        <ele>499.54</ele>
        <time>2016-01-02T09:39:58Z</time>
      </trkpt>
      <trkpt lat="41.616631710" lon="2.449930690">
        <ele>496.18</ele>
        <time>2016-01-02T09:40:03Z</time>
      </trkpt>
      <trkpt lat="41.616650820" lon="2.449913760">
        <ele>496.18</ele>
        <time>2016-01-02T09:40:04Z</time>
      </trkpt>
      <trkpt lat="41.616808240" lon="2.449767910">
        <ele>494.26</ele>
        <time>2016-01-02T09:40:09Z</time>
      </trkpt>
      <trkpt lat="41.616922650" lon="2.449519310">
        <ele>492.81</ele>
        <time>2016-01-02T09:40:13Z</time>
      </trkpt>
      <trkpt lat="41.617029100" lon="2.449140860">
        <ele>490.41</ele>
        <time>2016-01-02T09:40:19Z</time>
      </trkpt>
      <trkpt lat="41.617133370" lon="2.448964090">
        <ele>488.01</ele>
        <time>2016-01-02T09:40:25Z</time>
      </trkpt>
      <trkpt lat="41.617188190" lon="2.448775500">
        <ele>487.05</ele>
        <time>2016-01-02T09:40:31Z</time>
      </trkpt>
      <trkpt lat="41.617233110" lon="2.448471490">
        <ele>484.64</ele>
        <time>2016-01-02T09:40:37Z</time>
      </trkpt>
      <trkpt lat="41.617244680" lon="2.448350700">
        <ele>483.20</ele>
        <time>2016-01-02T09:40:39Z</time>
      </trkpt>
      <trkpt lat="41.617324060" lon="2.448063960">
        <ele>479.84</ele>
        <time>2016-01-02T09:40:44Z</time>
      </trkpt>
      <trkpt lat="41.617340490" lon="2.448012240">
        <ele>478.87</ele>
        <time>2016-01-02T09:40:45Z</time>
      </trkpt>
      <trkpt lat="41.617382230" lon="2.447764220">
        <ele>475.99</ele>
        <time>2016-01-02T09:40:50Z</time>
      </trkpt>
      <trkpt lat="41.617431930" lon="2.447609570">
        <ele>475.03</ele>
        <time>2016-01-02T09:40:53Z</time>
      </trkpt>
      <trkpt lat="41.617407630" lon="2.447256530">
        <ele>473.11</ele>
        <time>2016-01-02T09:40:58Z</time>
      </trkpt>
      <trkpt lat="41.617479120" lon="2.446924690">
        <ele>473.11</ele>
        <time>2016-01-02T09:41:04Z</time>
      </trkpt>
      <trkpt lat="41.617571660" lon="2.446776500">
        <ele>472.63</ele>
        <time>2016-01-02T09:41:08Z</time>
      </trkpt>
      <trkpt lat="41.617689590" lon="2.446453960">
        <ele>471.18</ele>
        <time>2016-01-02T09:41:15Z</time>
      </trkpt>
      <trkpt lat="41.617825300" lon="2.446301490">
        <ele>469.26</ele>
        <time>2016-01-02T09:41:19Z</time>
      </trkpt>
      <trkpt lat="41.617972230" lon="2.446064120">
        <ele>467.82</ele>
        <time>2016-01-02T09:41:24Z</time>
      </trkpt>
      <trkpt lat="41.618008940" lon="2.446027410">
        <ele>467.34</ele>
        <time>2016-01-02T09:41:25Z</time>
      </trkpt>
      <trkpt lat="41.618142800" lon="2.445854320">
        <ele>464.93</ele>
        <time>2016-01-02T09:41:30Z</time>
      </trkpt>
      <trkpt lat="41.618281770" lon="2.445537060">
        <ele>462.05</ele>
        <time>2016-01-02T09:41:36Z</time>
      </trkpt>
      <trkpt lat="41.618343130" lon="2.445289130">
        <ele>460.61</ele>
        <time>2016-01-02T09:41:41Z</time>
      </trkpt>
      <trkpt lat="41.618394260" lon="2.445039930">
        <ele>459.17</ele>
        <time>2016-01-02T09:41:46Z</time>
      </trkpt>
      <trkpt lat="41.618410690" lon="2.444813200">
        <ele>457.72</ele>
        <time>2016-01-02T09:41:50Z</time>
      </trkpt>
      <trkpt lat="41.618430300" lon="2.444666770">
        <ele>457.24</ele>
        <time>2016-01-02T09:41:52Z</time>
      </trkpt>
      <trkpt lat="41.618470530" lon="2.444493520">
        <ele>455.32</ele>
        <time>2016-01-02T09:41:55Z</time>
      </trkpt>
      <trkpt lat="41.618485540" lon="2.444443140">
        <ele>455.32</ele>
        <time>2016-01-02T09:41:56Z</time>
      </trkpt>
      <trkpt lat="41.618501630" lon="2.444366700">
        <ele>454.84</ele>
        <time>2016-01-02T09:41:58Z</time>
      </trkpt>
      <trkpt lat="41.618511520" lon="2.444333420">
        <ele>453.88</ele>
        <time>2016-01-02T09:42:05Z</time>
      </trkpt>
      <trkpt lat="41.618516630" lon="2.444327560">
        <ele>453.88</ele>
        <time>2016-01-02T09:42:16Z</time>
      </trkpt>
      <trkpt lat="41.618529040" lon="2.444328310">
        <ele>453.88</ele>
        <time>2016-01-02T09:42:29Z</time>
      </trkpt>
      <trkpt lat="41.618603640" lon="2.444363930">
        <ele>452.92</ele>
        <time>2016-01-02T09:42:35Z</time>
      </trkpt>
      <trkpt lat="41.618693740" lon="2.444516820">
        <ele>451.00</ele>
        <time>2016-01-02T09:42:42Z</time>
      </trkpt>
      <trkpt lat="41.618751830" lon="2.444738270">
        <ele>449.55</ele>
        <time>2016-01-02T09:42:48Z</time>
      </trkpt>
      <trkpt lat="41.618786200" lon="2.444944800">
        <ele>448.11</ele>
        <time>2016-01-02T09:42:52Z</time>
      </trkpt>
      <trkpt lat="41.618834640" lon="2.445105980">
        <ele>447.63</ele>
        <time>2016-01-02T09:42:55Z</time>
      </trkpt>
      <trkpt lat="41.618830450" lon="2.445337660">
        <ele>445.71</ele>
        <time>2016-01-02T09:42:59Z</time>
      </trkpt>
      <trkpt lat="41.618799610" lon="2.445543520">
        <ele>445.23</ele>
        <time>2016-01-02T09:43:03Z</time>
      </trkpt>
      <trkpt lat="41.618936820" lon="2.445757170">
        <ele>445.23</ele>
        <time>2016-01-02T09:43:09Z</time>
      </trkpt>
      <trkpt lat="41.619116530" lon="2.445843090">
        <ele>445.23</ele>
        <time>2016-01-02T09:43:16Z</time>
      </trkpt>
      <trkpt lat="41.619273520" lon="2.445887600">
        <ele>446.19</ele>
        <time>2016-01-02T09:43:23Z</time>
      </trkpt>
      <trkpt lat="41.619459180" lon="2.445961110">
        <ele>447.15</ele>
        <time>2016-01-02T09:43:31Z</time>
      </trkpt>
      <trkpt lat="41.619594210" lon="2.445939140">
        <ele>449.55</ele>
        <time>2016-01-02T09:43:39Z</time>
      </trkpt>
      <trkpt lat="41.619683810" lon="2.445830680">
        <ele>450.52</ele>
        <time>2016-01-02T09:43:46Z</time>
      </trkpt>
      <trkpt lat="41.619747520" lon="2.445868740">
        <ele>452.44</ele>
        <time>2016-01-02T09:43:52Z</time>
      </trkpt>
      <trkpt lat="41.619750200" lon="2.446094460">
        <ele>452.92</ele>
        <time>2016-01-02T09:44:00Z</time>
      </trkpt>
      <trkpt lat="41.619831670" lon="2.446214570">
        <ele>454.84</ele>
        <time>2016-01-02T09:44:07Z</time>
      </trkpt>
      <trkpt lat="41.619914900" lon="2.446261090">
        <ele>455.80</ele>
        <time>2016-01-02T09:44:12Z</time>
      </trkpt>
      <trkpt lat="41.619977270" lon="2.446195300">
        <ele>456.28</ele>
        <time>2016-01-02T09:44:16Z</time>
      </trkpt>
      <trkpt lat="41.620002410" lon="2.445971500">
        <ele>456.76</ele>
        <time>2016-01-02T09:44:24Z</time>
      </trkpt>
      <trkpt lat="41.619970730" lon="2.445705790">
        <ele>457.72</ele>
        <time>2016-01-02T09:44:34Z</time>
      </trkpt>
      <trkpt lat="41.620016240" lon="2.445474870">
        <ele>458.21</ele>
        <time>2016-01-02T09:44:41Z</time>
      </trkpt>
      <trkpt lat="41.620185390" lon="2.445211680">
        <ele>456.28</ele>
        <time>2016-01-02T09:44:49Z</time>
      </trkpt>
      <trkpt lat="41.620189330" lon="2.445180920">
        <ele>456.28</ele>
        <time>2016-01-02T09:44:50Z</time>
      </trkpt>
      <trkpt lat="41.620202150" lon="2.445124680">
        <ele>456.28</ele>
        <time>2016-01-02T09:44:52Z</time>
      </trkpt>
      <trkpt lat="41.620315890" lon="2.445103470">
        <ele>457.24</ele>
        <time>2016-01-02T09:44:58Z</time>
      </trkpt>
      <trkpt lat="41.620439530" lon="2.445166920">
        <ele>460.13</ele>
        <time>2016-01-02T09:45:06Z</time>
      </trkpt>
      <trkpt lat="41.620449500" lon="2.445180830">
        <ele>461.09</ele>
        <time>2016-01-02T09:45:07Z</time>
      </trkpt>
      <trkpt lat="41.620480600" lon="2.445183350">
        <ele>462.05</ele>
        <time>2016-01-02T09:45:10Z</time>
      </trkpt>
      <trkpt lat="41.620592580" lon="2.445108500">
        <ele>463.01</ele>
        <time>2016-01-02T09:45:18Z</time>
      </trkpt>
      <trkpt lat="41.620660980" lon="2.445055110">
        <ele>463.49</ele>
        <time>2016-01-02T09:45:23Z</time>
      </trkpt>
      <trkpt lat="41.620727780" lon="2.445027110">
        <ele>464.93</ele>
        <time>2016-01-02T09:45:28Z</time>
      </trkpt>
      <trkpt lat="41.620847810" lon="2.444958710">
        <ele>463.01</ele>
        <time>2016-01-02T09:45:35Z</time>
      </trkpt>
      <trkpt lat="41.621022820" lon="2.444869360">
        <ele>460.13</ele>
        <time>2016-01-02T09:45:42Z</time>
      </trkpt>
      <trkpt lat="41.621102200" lon="2.444839690">
        <ele>458.69</ele>
        <time>2016-01-02T09:45:45Z</time>
      </trkpt>
      <trkpt lat="41.621164480" lon="2.444807590">
        <ele>458.21</ele>
        <time>2016-01-02T09:45:48Z</time>
      </trkpt>
      <trkpt lat="41.621280400" lon="2.444769370">
        <ele>456.76</ele>
        <time>2016-01-02T09:45:53Z</time>
      </trkpt>
      <trkpt lat="41.621460020" lon="2.444751010">
        <ele>454.84</ele>
        <time>2016-01-02T09:46:02Z</time>
      </trkpt>
      <trkpt lat="41.621653060" lon="2.444783360">
        <ele>452.92</ele>
        <time>2016-01-02T09:46:08Z</time>
      </trkpt>
      <trkpt lat="41.621764290" lon="2.444930630">
        <ele>451.96</ele>
        <time>2016-01-02T09:46:13Z</time>
      </trkpt>
      <trkpt lat="41.621853720" lon="2.445150830">
        <ele>450.03</ele>
        <time>2016-01-02T09:46:19Z</time>
      </trkpt>
      <trkpt lat="41.621924210" lon="2.445309080">
        <ele>448.59</ele>
        <time>2016-01-02T09:46:24Z</time>
      </trkpt>
      <trkpt lat="41.621957740" lon="2.445446120">
        <ele>448.11</ele>
        <time>2016-01-02T09:46:27Z</time>
      </trkpt>
      <trkpt lat="41.622068630" lon="2.445771760">
        <ele>445.23</ele>
        <time>2016-01-02T09:46:34Z</time>
      </trkpt>
      <trkpt lat="41.622118420" lon="2.445818450">
        <ele>443.79</ele>
        <time>2016-01-02T09:46:36Z</time>
      </trkpt>
      <trkpt lat="41.622168550" lon="2.445777880">
        <ele>443.79</ele>
        <time>2016-01-02T09:46:43Z</time>
      </trkpt>
      <trkpt lat="41.622166950" lon="2.445769080">
        <ele>443.79</ele>
        <time>2016-01-02T09:46:45Z</time>
      </trkpt>
      <trkpt lat="41.622227390" lon="2.445676460">
        <ele>442.34</ele>
        <time>2016-01-02T09:46:50Z</time>
      </trkpt>
      <trkpt lat="41.622276840" lon="2.445714510">
        <ele>441.86</ele>
        <time>2016-01-02T09:46:52Z</time>
      </trkpt>
      <trkpt lat="41.622362590" lon="2.445827920">
        <ele>440.42</ele>
        <time>2016-01-02T09:46:55Z</time>
      </trkpt>
      <trkpt lat="41.622486810" lon="2.446007460">
        <ele>440.42</ele>
        <time>2016-01-02T09:47:01Z</time>
      </trkpt>
      <trkpt lat="41.622589900" lon="2.446168810">
        <ele>439.46</ele>
        <time>2016-01-02T09:47:06Z</time>
      </trkpt>
      <trkpt lat="41.622817140" lon="2.446309040">
        <ele>439.46</ele>
        <time>2016-01-02T09:47:13Z</time>
      </trkpt>
      <trkpt lat="41.622964910" lon="2.446311220">
        <ele>439.46</ele>
        <time>2016-01-02T09:47:17Z</time>
      </trkpt>
      <trkpt lat="41.623036740" lon="2.446258750">
        <ele>439.46</ele>
        <time>2016-01-02T09:47:20Z</time>
      </trkpt>
      <trkpt lat="41.623070770" lon="2.446134610">
        <ele>440.90</ele>
        <time>2016-01-02T09:47:26Z</time>
      </trkpt>
      <trkpt lat="41.623081420" lon="2.446002680">
        <ele>440.90</ele>
        <time>2016-01-02T09:47:31Z</time>
      </trkpt>
      <trkpt lat="41.623100360" lon="2.445789860">
        <ele>439.46</ele>
        <time>2016-01-02T09:47:39Z</time>
      </trkpt>
      <trkpt lat="41.623122410" lon="2.445552240">
        <ele>438.98</ele>
        <time>2016-01-02T09:47:45Z</time>
      </trkpt>
      <trkpt lat="41.623197760" lon="2.445467330">
        <ele>437.54</ele>
        <time>2016-01-02T09:47:50Z</time>
      </trkpt>
      <trkpt lat="41.623253920" lon="2.445678890">
        <ele>436.10</ele>
        <time>2016-01-02T09:47:56Z</time>
      </trkpt>
      <trkpt lat="41.623333380" lon="2.445898580">
        <ele>434.65</ele>
        <time>2016-01-02T09:48:02Z</time>
      </trkpt>
      <trkpt lat="41.623376380" lon="2.446069730">
        <ele>433.21</ele>
        <time>2016-01-02T09:48:07Z</time>
      </trkpt>
      <trkpt lat="41.623439160" lon="2.446223540">
        <ele>431.77</ele>
        <time>2016-01-02T09:48:11Z</time>
      </trkpt>
      <trkpt lat="41.623542680" lon="2.446380700">
        <ele>429.37</ele>
        <time>2016-01-02T09:48:14Z</time>
      </trkpt>
      <trkpt lat="41.623624570" lon="2.446466530">
        <ele>428.89</ele>
        <time>2016-01-02T09:48:16Z</time>
      </trkpt>
      <trkpt lat="41.623757920" lon="2.446536020">
        <ele>426.96</ele>
        <time>2016-01-02T09:48:19Z</time>
      </trkpt>
      <trkpt lat="41.623965710" lon="2.446720000">
        <ele>424.56</ele>
        <time>2016-01-02T09:48:25Z</time>
      </trkpt>
      <trkpt lat="41.624056230" lon="2.446898370">
        <ele>424.08</ele>
        <time>2016-01-02T09:48:29Z</time>
      </trkpt>
      <trkpt lat="41.624325380" lon="2.447199870">
        <ele>422.64</ele>
        <time>2016-01-02T09:48:36Z</time>
      </trkpt>
      <trkpt lat="41.624498210" lon="2.447165750">
        <ele>422.64</ele>
        <time>2016-01-02T09:48:41Z</time>
      </trkpt>
      <trkpt lat="41.624569960" lon="2.446975400">
        <ele>421.19</ele>
        <time>2016-01-02T09:48:47Z</time>
      </trkpt>
      <trkpt lat="41.624631650" lon="2.446804740">
        <ele>420.71</ele>
        <time>2016-01-02T09:48:52Z</time>
      </trkpt>
      <trkpt lat="41.624714300" lon="2.446660910">
        <ele>419.75</ele>
        <time>2016-01-02T09:48:59Z</time>
      </trkpt>
      <trkpt lat="41.624712120" lon="2.446515900">
        <ele>418.79</ele>
        <time>2016-01-02T09:49:06Z</time>
      </trkpt>
      <trkpt lat="41.624676240" lon="2.446422700">
        <ele>417.83</ele>
        <time>2016-01-02T09:49:10Z</time>
      </trkpt>
      <trkpt lat="41.624583790" lon="2.446260510">
        <ele>416.39</ele>
        <time>2016-01-02T09:49:16Z</time>
      </trkpt>
      <trkpt lat="41.624568540" lon="2.446032940">
        <ele>414.95</ele>
        <time>2016-01-02T09:49:23Z</time>
      </trkpt>
      <trkpt lat="41.624576250" lon="2.445779470">
        <ele>413.98</ele>
        <time>2016-01-02T09:49:29Z</time>
      </trkpt>
      <trkpt lat="41.624572220" lon="2.445572270">
        <ele>413.02</ele>
        <time>2016-01-02T09:49:34Z</time>
      </trkpt>
      <trkpt lat="41.624568290" lon="2.445341930">
        <ele>411.58</ele>
        <time>2016-01-02T09:49:40Z</time>
      </trkpt>
      <trkpt lat="41.624592170" lon="2.445068770">
        <ele>410.62</ele>
        <time>2016-01-02T09:49:45Z</time>
      </trkpt>
      <trkpt lat="41.624664090" lon="2.444848410">
        <ele>409.18</ele>
        <time>2016-01-02T09:49:50Z</time>
      </trkpt>
      <trkpt lat="41.624757970" lon="2.444652190">
        <ele>407.26</ele>
        <time>2016-01-02T09:49:56Z</time>
      </trkpt>
      <trkpt lat="41.624846400" lon="2.444361840">
        <ele>405.81</ele>
        <time>2016-01-02T09:50:02Z</time>
      </trkpt>
      <trkpt lat="41.624910940" lon="2.444089930">
        <ele>403.41</ele>
        <time>2016-01-02T09:50:09Z</time>
      </trkpt>
      <trkpt lat="41.625041110" lon="2.443895220">
        <ele>402.45</ele>
        <time>2016-01-02T09:50:14Z</time>
      </trkpt>
      <trkpt lat="41.625301700" lon="2.443676620">
        <ele>401.49</ele>
        <time>2016-01-02T09:50:22Z</time>
      </trkpt>
      <trkpt lat="41.625341430" lon="2.443669490">
        <ele>401.49</ele>
        <time>2016-01-02T09:50:23Z</time>
      </trkpt>
      <trkpt lat="41.625514520" lon="2.443605290">
        <ele>401.01</ele>
        <time>2016-01-02T09:50:27Z</time>
      </trkpt>
      <trkpt lat="41.625704870" lon="2.443469840">
        <ele>399.57</ele>
        <time>2016-01-02T09:50:33Z</time>
      </trkpt>
      <trkpt lat="41.625837560" lon="2.443254760">
        <ele>397.16</ele>
        <time>2016-01-02T09:50:39Z</time>
      </trkpt>
      <trkpt lat="41.625895060" lon="2.443167000">
        <ele>395.72</ele>
        <time>2016-01-02T09:50:41Z</time>
      </trkpt>
      <trkpt lat="41.626060520" lon="2.442946720">
        <ele>393.32</ele>
        <time>2016-01-02T09:50:46Z</time>
      </trkpt>
      <trkpt lat="41.626245170" lon="2.442951250">
        <ele>391.87</ele>
        <time>2016-01-02T09:50:50Z</time>
      </trkpt>
      <trkpt lat="41.626314240" lon="2.442828200">
        <ele>391.39</ele>
        <time>2016-01-02T09:50:54Z</time>
      </trkpt>
      <trkpt lat="41.626289930" lon="2.442742290">
        <ele>390.91</ele>
        <time>2016-01-02T09:50:57Z</time>
      </trkpt>
      <trkpt lat="41.626266370" lon="2.442611280">
        <ele>388.99</ele>
        <time>2016-01-02T09:51:02Z</time>
      </trkpt>
      <trkpt lat="41.626279450" lon="2.442377090">
        <ele>388.99</ele>
        <time>2016-01-02T09:51:09Z</time>
      </trkpt>
      <trkpt lat="41.626281040" lon="2.442293180">
        <ele>388.03</ele>
        <time>2016-01-02T09:51:11Z</time>
      </trkpt>
      <trkpt lat="41.626359750" lon="2.442193270">
        <ele>386.59</ele>
        <time>2016-01-02T09:51:15Z</time>
      </trkpt>
      <trkpt lat="41.626412220" lon="2.442123200">
        <ele>386.11</ele>
        <time>2016-01-02T09:51:20Z</time>
      </trkpt>
      <trkpt lat="41.626421190" lon="2.442096130">
        <ele>386.11</ele>
        <time>2016-01-02T09:51:31Z</time>
      </trkpt>
      <trkpt lat="41.626349770" lon="2.442028060">
        <ele>385.63</ele>
        <time>2016-01-02T09:51:36Z</time>
      </trkpt>
      <trkpt lat="41.626322950" lon="2.441907280">
        <ele>383.22</ele>
        <time>2016-01-02T09:51:41Z</time>
      </trkpt>
      <trkpt lat="41.626320440" lon="2.441825980">
        <ele>382.74</ele>
        <time>2016-01-02T09:51:44Z</time>
      </trkpt>
      <trkpt lat="41.626388830" lon="2.441615840">
        <ele>382.74</ele>
        <time>2016-01-02T09:51:52Z</time>
      </trkpt>
      <trkpt lat="41.626452960" lon="2.441463960">
        <ele>382.74</ele>
        <time>2016-01-02T09:51:58Z</time>
      </trkpt>
      <trkpt lat="41.626552110" lon="2.441234890">
        <ele>382.26</ele>
        <time>2016-01-02T09:52:04Z</time>
      </trkpt>
      <trkpt lat="41.626660830" lon="2.441035820">
        <ele>381.30</ele>
        <time>2016-01-02T09:52:10Z</time>
      </trkpt>
      <trkpt lat="41.626672900" lon="2.441022740">
        <ele>381.30</ele>
        <time>2016-01-02T09:52:11Z</time>
      </trkpt>
      <trkpt lat="41.626776670" lon="2.440930120">
        <ele>381.30</ele>
        <time>2016-01-02T09:52:18Z</time>
      </trkpt>
      <trkpt lat="41.626884620" lon="2.440770030">
        <ele>380.82</ele>
        <time>2016-01-02T09:52:24Z</time>
      </trkpt>
      <trkpt lat="41.626912120" lon="2.440579500">
        <ele>380.82</ele>
        <time>2016-01-02T09:52:29Z</time>
      </trkpt>
      <trkpt lat="41.626906080" lon="2.440330980">
        <ele>379.38</ele>
        <time>2016-01-02T09:52:35Z</time>
      </trkpt>
      <trkpt lat="41.626939110" lon="2.440021600">
        <ele>376.49</ele>
        <time>2016-01-02T09:52:41Z</time>
      </trkpt>
      <trkpt lat="41.626948490" lon="2.439980200">
        <ele>376.01</ele>
        <time>2016-01-02T09:52:42Z</time>
      </trkpt>
      <trkpt lat="41.626944640" lon="2.439910540">
        <ele>375.53</ele>
        <time>2016-01-02T09:52:44Z</time>
      </trkpt>
      <trkpt lat="41.626921000" lon="2.439885320">
        <ele>375.05</ele>
        <time>2016-01-02T09:52:46Z</time>
      </trkpt>
      <trkpt lat="41.626814640" lon="2.439956980">
        <ele>374.57</ele>
        <time>2016-01-02T09:52:52Z</time>
      </trkpt>
      <trkpt lat="41.626745900" lon="2.439989670">
        <ele>373.61</ele>
        <time>2016-01-02T09:52:54Z</time>
      </trkpt>
      <trkpt lat="41.626558400" lon="2.440038960">
        <ele>373.13</ele>
        <time>2016-01-02T09:53:00Z</time>
      </trkpt>
      <trkpt lat="41.626498970" lon="2.439935610">
        <ele>373.13</ele>
        <time>2016-01-02T09:53:03Z</time>
      </trkpt>
      <trkpt lat="41.626515070" lon="2.439526910">
        <ele>372.65</ele>
        <time>2016-01-02T09:53:12Z</time>
      </trkpt>
      <trkpt lat="41.626502490" lon="2.439457170">
        <ele>373.61</ele>
        <time>2016-01-02T09:53:14Z</time>
      </trkpt>
      <trkpt lat="41.626469640" lon="2.439394720">
        <ele>373.61</ele>
        <time>2016-01-02T09:53:16Z</time>
      </trkpt>
      <trkpt lat="41.626192780" lon="2.439286430">
        <ele>373.61</ele>
        <time>2016-01-02T09:53:24Z</time>
      </trkpt>
      <trkpt lat="41.626118850" lon="2.439302770">
        <ele>373.61</ele>
        <time>2016-01-02T09:53:26Z</time>
      </trkpt>
      <trkpt lat="41.626025480" lon="2.439179730">
        <ele>373.61</ele>
        <time>2016-01-02T09:53:31Z</time>
      </trkpt>
      <trkpt lat="41.625996650" lon="2.439016950">
        <ele>373.61</ele>
        <time>2016-01-02T09:53:35Z</time>
      </trkpt>
      <trkpt lat="41.625893380" lon="2.438752420">
        <ele>374.57</ele>
        <time>2016-01-02T09:53:43Z</time>
      </trkpt>
      <trkpt lat="41.625745440" lon="2.438561560">
        <ele>375.53</ele>
        <time>2016-01-02T09:53:50Z</time>
      </trkpt>
      <trkpt lat="41.625634380" lon="2.438415800">
        <ele>376.01</ele>
        <time>2016-01-02T09:53:55Z</time>
      </trkpt>
      <trkpt lat="41.625676960" lon="2.438282440">
        <ele>376.01</ele>
        <time>2016-01-02T09:54:00Z</time>
      </trkpt>
      <trkpt lat="41.625693140" lon="2.438262750">
        <ele>376.49</ele>
        <time>2016-01-02T09:54:01Z</time>
      </trkpt>
      <trkpt lat="41.625740160" lon="2.438198290">
        <ele>376.49</ele>
        <time>2016-01-02T09:54:04Z</time>
      </trkpt>
      <trkpt lat="41.625749800" lon="2.437995780">
        <ele>376.49</ele>
        <time>2016-01-02T09:54:10Z</time>
      </trkpt>
      <trkpt lat="41.625713590" lon="2.437752880">
        <ele>376.49</ele>
        <time>2016-01-02T09:54:16Z</time>
      </trkpt>
      <trkpt lat="41.625676460" lon="2.437632680">
        <ele>374.57</ele>
        <time>2016-01-02T09:54:18Z</time>
      </trkpt>
      <trkpt lat="41.625614850" lon="2.437466130">
        <ele>374.57</ele>
        <time>2016-01-02T09:54:21Z</time>
      </trkpt>
      <trkpt lat="41.625464140" lon="2.437193050">
        <ele>374.09</ele>
        <time>2016-01-02T09:54:27Z</time>
      </trkpt>
      <trkpt lat="41.625464730" lon="2.437063210">
        <ele>373.61</ele>
        <time>2016-01-02T09:54:29Z</time>
      </trkpt>
      <trkpt lat="41.625493230" lon="2.436880490">
        <ele>373.13</ele>
        <time>2016-01-02T09:54:32Z</time>
      </trkpt>
      <trkpt lat="41.625604790" lon="2.436827760">
        <ele>372.65</ele>
        <time>2016-01-02T09:54:36Z</time>
      </trkpt>
      <trkpt lat="41.625902520" lon="2.436763890">
        <ele>372.65</ele>
        <time>2016-01-02T09:54:46Z</time>
      </trkpt>
      <trkpt lat="41.626101670" lon="2.436667750">
        <ele>373.61</ele>
        <time>2016-01-02T09:54:53Z</time>
      </trkpt>
      <trkpt lat="41.626267210" lon="2.436620480">
        <ele>374.09</ele>
        <time>2016-01-02T09:54:59Z</time>
      </trkpt>
      <trkpt lat="41.626515900" lon="2.436508080">
        <ele>374.09</ele>
        <time>2016-01-02T09:55:06Z</time>
      </trkpt>
      <trkpt lat="41.626745990" lon="2.436378330">
        <ele>374.09</ele>
        <time>2016-01-02T09:55:12Z</time>
      </trkpt>
      <trkpt lat="41.626954700" lon="2.436260230">
        <ele>374.09</ele>
        <time>2016-01-02T09:55:19Z</time>
      </trkpt>
      <trkpt lat="41.627112030" lon="2.436200460">
        <ele>375.05</ele>
        <time>2016-01-02T09:55:25Z</time>
      </trkpt>
      <trkpt lat="41.627227440" lon="2.436085630">
        <ele>376.49</ele>
        <time>2016-01-02T09:55:30Z</time>
      </trkpt>
      <trkpt lat="41.627292570" lon="2.435845490">
        <ele>377.94</ele>
        <time>2016-01-02T09:55:36Z</time>
      </trkpt>
      <trkpt lat="41.627259040" lon="2.435569390">
        <ele>377.94</ele>
        <time>2016-01-02T09:55:43Z</time>
      </trkpt>
      <trkpt lat="41.627152260" lon="2.435271160">
        <ele>378.42</ele>
        <time>2016-01-02T09:55:52Z</time>
      </trkpt>
      <trkpt lat="41.627050420" lon="2.435022130">
        <ele>380.34</ele>
        <time>2016-01-02T09:56:00Z</time>
      </trkpt>
      <trkpt lat="41.626924190" lon="2.434820300">
        <ele>380.82</ele>
        <time>2016-01-02T09:56:07Z</time>
      </trkpt>
      <trkpt lat="41.626793350" lon="2.434630450">
        <ele>382.26</ele>
        <time>2016-01-02T09:56:14Z</time>
      </trkpt>
      <trkpt lat="41.626717240" lon="2.434364910">
        <ele>382.26</ele>
        <time>2016-01-02T09:56:21Z</time>
      </trkpt>
      <trkpt lat="41.626650520" lon="2.434113120">
        <ele>382.26</ele>
        <time>2016-01-02T09:56:28Z</time>
      </trkpt>
      <trkpt lat="41.626605510" lon="2.433896450">
        <ele>383.22</ele>
        <time>2016-01-02T09:56:34Z</time>
      </trkpt>
      <trkpt lat="41.626609110" lon="2.433696790">
        <ele>383.22</ele>
        <time>2016-01-02T09:56:39Z</time>
      </trkpt>
      <trkpt lat="41.626694270" lon="2.433509450">
        <ele>383.70</ele>
        <time>2016-01-02T09:56:44Z</time>
      </trkpt>
      <trkpt lat="41.626741130" lon="2.433179960">
        <ele>381.78</ele>
        <time>2016-01-02T09:56:49Z</time>
      </trkpt>
      <trkpt lat="41.626817990" lon="2.432804200">
        <ele>381.30</ele>
        <time>2016-01-02T09:56:56Z</time>
      </trkpt>
      <trkpt lat="41.626945390" lon="2.432563890">
        <ele>381.30</ele>
        <time>2016-01-02T09:57:03Z</time>
      </trkpt>
      <trkpt lat="41.626903230" lon="2.432327190">
        <ele>381.30</ele>
        <time>2016-01-02T09:57:09Z</time>
      </trkpt>
      <trkpt lat="41.626773650" lon="2.432150240">
        <ele>381.30</ele>
        <time>2016-01-02T09:57:14Z</time>
      </trkpt>
      <trkpt lat="41.626678850" lon="2.432099950">
        <ele>380.82</ele>
        <time>2016-01-02T09:57:16Z</time>
      </trkpt>
      <trkpt lat="41.626462090" lon="2.431966680">
        <ele>379.86</ele>
        <time>2016-01-02T09:57:21Z</time>
      </trkpt>
      <trkpt lat="41.626432920" lon="2.431930720">
        <ele>379.86</ele>
        <time>2016-01-02T09:57:22Z</time>
      </trkpt>
      <trkpt lat="41.626429910" lon="2.431725950">
        <ele>379.38</ele>
        <time>2016-01-02T09:57:28Z</time>
      </trkpt>
      <trkpt lat="41.626574830" lon="2.431553620">
        <ele>380.34</ele>
        <time>2016-01-02T09:57:35Z</time>
      </trkpt>
      <trkpt lat="41.626666020" lon="2.431413890">
        <ele>380.34</ele>
        <time>2016-01-02T09:57:39Z</time>
      </trkpt>
      <trkpt lat="41.626623190" lon="2.431189590">
        <ele>380.82</ele>
        <time>2016-01-02T09:57:46Z</time>
      </trkpt>
      <trkpt lat="41.626575830" lon="2.431114910">
        <ele>380.82</ele>
        <time>2016-01-02T09:57:50Z</time>
      </trkpt>
      <trkpt lat="41.626623530" lon="2.430978030">
        <ele>381.30</ele>
        <time>2016-01-02T09:57:55Z</time>
      </trkpt>
      <trkpt lat="41.626660740" lon="2.430973680">
        <ele>381.30</ele>
        <time>2016-01-02T09:57:56Z</time>
      </trkpt>
      <trkpt lat="41.626930140" lon="2.430936380">
        <ele>381.30</ele>
        <time>2016-01-02T09:58:03Z</time>
      </trkpt>
      <trkpt lat="41.627047150" lon="2.430919440">
        <ele>379.86</ele>
        <time>2016-01-02T09:58:06Z</time>
      </trkpt>
      <trkpt lat="41.627221070" lon="2.430864880">
        <ele>381.78</ele>
        <time>2016-01-02T09:58:12Z</time>
      </trkpt>
      <trkpt lat="41.627348230" lon="2.430778630">
        <ele>382.26</ele>
        <time>2016-01-02T09:58:17Z</time>
      </trkpt>
      <trkpt lat="41.627346550" lon="2.430538740">
        <ele>382.26</ele>
        <time>2016-01-02T09:58:22Z</time>
      </trkpt>
      <trkpt lat="41.627328530" lon="2.430477550">
        <ele>382.26</ele>
        <time>2016-01-02T09:58:23Z</time>
      </trkpt>
      <trkpt lat="41.627224260" lon="2.430107240">
        <ele>380.82</ele>
        <time>2016-01-02T09:58:30Z</time>
      </trkpt>
      <trkpt lat="41.627089480" lon="2.429852510">
        <ele>380.82</ele>
        <time>2016-01-02T09:58:37Z</time>
      </trkpt>
      <trkpt lat="41.627069700" lon="2.429824010">
        <ele>380.82</ele>
        <time>2016-01-02T09:58:38Z</time>
      </trkpt>
      <trkpt lat="41.627111860" lon="2.429635000">
        <ele>380.34</ele>
        <time>2016-01-02T09:58:43Z</time>
      </trkpt>
      <trkpt lat="41.627208920" lon="2.429446070">
        <ele>380.34</ele>
        <time>2016-01-02T09:58:49Z</time>
      </trkpt>
      <trkpt lat="41.627175810" lon="2.429255130">
        <ele>380.34</ele>
        <time>2016-01-02T09:58:53Z</time>
      </trkpt>
      <trkpt lat="41.627131390" lon="2.429148350">
        <ele>379.38</ele>
        <time>2016-01-02T09:58:55Z</time>
      </trkpt>
      <trkpt lat="41.627149490" lon="2.428959500">
        <ele>378.42</ele>
        <time>2016-01-02T09:58:59Z</time>
      </trkpt>
      <trkpt lat="41.627300790" lon="2.428934610">
        <ele>378.42</ele>
        <time>2016-01-02T09:59:04Z</time>
      </trkpt>
      <trkpt lat="41.627358370" lon="2.428919020">
        <ele>378.42</ele>
        <time>2016-01-02T09:59:06Z</time>
      </trkpt>
      <trkpt lat="41.627440930" lon="2.428883650">
        <ele>379.86</ele>
        <time>2016-01-02T09:59:10Z</time>
      </trkpt>
      <trkpt lat="41.627589210" lon="2.428780890">
        <ele>380.82</ele>
        <time>2016-01-02T09:59:17Z</time>
      </trkpt>
      <trkpt lat="41.627763470" lon="2.428491210">
        <ele>381.30</ele>
        <time>2016-01-02T09:59:25Z</time>
      </trkpt>
      <trkpt lat="41.627836220" lon="2.428098850">
        <ele>381.30</ele>
        <time>2016-01-02T09:59:32Z</time>
      </trkpt>
      <trkpt lat="41.627867910" lon="2.427785950">
        <ele>381.30</ele>
        <time>2016-01-02T09:59:38Z</time>
      </trkpt>
      <trkpt lat="41.627901520" lon="2.427674640">
        <ele>381.30</ele>
        <time>2016-01-02T09:59:40Z</time>
      </trkpt>
      <trkpt lat="41.628090280" lon="2.427522510">
        <ele>378.90</ele>
        <time>2016-01-02T09:59:45Z</time>
      </trkpt>
      <trkpt lat="41.628131100" lon="2.427512120">
        <ele>378.90</ele>
        <time>2016-01-02T09:59:46Z</time>
      </trkpt>
      <trkpt lat="41.628363950" lon="2.427424280">
        <ele>378.90</ele>
        <time>2016-01-02T09:59:53Z</time>
      </trkpt>
      <trkpt lat="41.628537790" lon="2.427366360">
        <ele>379.86</ele>
        <time>2016-01-02T09:59:59Z</time>
      </trkpt>
      <trkpt lat="41.628629400" lon="2.427284210">
        <ele>381.30</ele>
        <time>2016-01-02T10:00:03Z</time>
      </trkpt>
      <trkpt lat="41.628652120" lon="2.427065030">
        <ele>382.26</ele>
        <time>2016-01-02T10:00:10Z</time>
      </trkpt>
      <trkpt lat="41.628599980" lon="2.426817590">
        <ele>383.70</ele>
        <time>2016-01-02T10:00:19Z</time>
      </trkpt>
      <trkpt lat="41.628558320" lon="2.426610390">
        <ele>382.74</ele>
        <time>2016-01-02T10:00:25Z</time>
      </trkpt>
      <trkpt lat="41.628547170" lon="2.426563620">
        <ele>382.74</ele>
        <time>2016-01-02T10:00:26Z</time>
      </trkpt>
      <trkpt lat="41.628538790" lon="2.426508130">
        <ele>381.78</ele>
        <time>2016-01-02T10:00:27Z</time>
      </trkpt>
      <trkpt lat="41.628486740" lon="2.426324070">
        <ele>381.30</ele>
        <time>2016-01-02T10:00:30Z</time>
      </trkpt>
      <trkpt lat="41.628434440" lon="2.426041600">
        <ele>379.86</ele>
        <time>2016-01-02T10:00:34Z</time>
      </trkpt>
      <trkpt lat="41.628261100" lon="2.425713030">
        <ele>379.38</ele>
        <time>2016-01-02T10:00:40Z</time>
      </trkpt>
      <trkpt lat="41.628245510" lon="2.425532560">
        <ele>379.38</ele>
        <time>2016-01-02T10:00:44Z</time>
      </trkpt>
      <trkpt lat="41.628319520" lon="2.425407510">
        <ele>379.38</ele>
        <time>2016-01-02T10:00:49Z</time>
      </trkpt>
      <trkpt lat="41.628392780" lon="2.425331060">
        <ele>381.30</ele>
        <time>2016-01-02T10:00:55Z</time>
      </trkpt>
      <trkpt lat="41.628498560" lon="2.425234420">
        <ele>382.26</ele>
        <time>2016-01-02T10:01:02Z</time>
      </trkpt>
      <trkpt lat="41.628536280" lon="2.425197870">
        <ele>382.74</ele>
        <time>2016-01-02T10:01:04Z</time>
      </trkpt>
      <trkpt lat="41.628541730" lon="2.425048090">
        <ele>383.70</ele>
        <time>2016-01-02T10:01:10Z</time>
      </trkpt>
      <trkpt lat="41.628504590" lon="2.425045160">
        <ele>384.18</ele>
        <time>2016-01-02T10:01:12Z</time>
      </trkpt>
      <trkpt lat="41.628338470" lon="2.425072150">
        <ele>385.63</ele>
        <time>2016-01-02T10:01:20Z</time>
      </trkpt>
      <trkpt lat="41.628227660" lon="2.425010870">
        <ele>386.11</ele>
        <time>2016-01-02T10:01:25Z</time>
      </trkpt>
      <trkpt lat="41.628152890" lon="2.424886320">
        <ele>388.03</ele>
        <time>2016-01-02T10:01:31Z</time>
      </trkpt>
      <trkpt lat="41.628153980" lon="2.424789930">
        <ele>388.99</ele>
        <time>2016-01-02T10:01:37Z</time>
      </trkpt>
      <trkpt lat="41.628189850" lon="2.424602170">
        <ele>388.99</ele>
        <time>2016-01-02T10:01:42Z</time>
      </trkpt>
      <trkpt lat="41.628241740" lon="2.424477280">
        <ele>387.07</ele>
        <time>2016-01-02T10:01:45Z</time>
      </trkpt>
      <trkpt lat="41.628265790" lon="2.424435710">
        <ele>386.11</ele>
        <time>2016-01-02T10:01:46Z</time>
      </trkpt>
      <trkpt lat="41.628364110" lon="2.424316770">
        <ele>384.66</ele>
        <time>2016-01-02T10:01:49Z</time>
      </trkpt>
      <trkpt lat="41.628467040" lon="2.424141590">
        <ele>382.74</ele>
        <time>2016-01-02T10:01:54Z</time>
      </trkpt>
      <trkpt lat="41.628511550" lon="2.423983000">
        <ele>382.26</ele>
        <time>2016-01-02T10:01:58Z</time>
      </trkpt>
      <trkpt lat="41.628638450" lon="2.423777310">
        <ele>380.34</ele>
        <time>2016-01-02T10:02:05Z</time>
      </trkpt>
      <trkpt lat="41.628776670" lon="2.423782920">
        <ele>377.45</ele>
        <time>2016-01-02T10:02:10Z</time>
      </trkpt>
      <trkpt lat="41.628808100" lon="2.423785100">
        <ele>377.45</ele>
        <time>2016-01-02T10:02:11Z</time>
      </trkpt>
      <trkpt lat="41.628946490" lon="2.423628190">
        <ele>375.05</ele>
        <time>2016-01-02T10:02:18Z</time>
      </trkpt>
      <trkpt lat="41.628956210" lon="2.423459380">
        <ele>374.57</ele>
        <time>2016-01-02T10:02:23Z</time>
      </trkpt>
      <trkpt lat="41.628853030" lon="2.423238860">
        <ele>372.17</ele>
        <time>2016-01-02T10:02:30Z</time>
      </trkpt>
      <trkpt lat="41.628703250" lon="2.423105250">
        <ele>370.24</ele>
        <time>2016-01-02T10:02:36Z</time>
      </trkpt>
      <trkpt lat="41.628584890" lon="2.423002150">
        <ele>368.80</ele>
        <time>2016-01-02T10:02:42Z</time>
      </trkpt>
      <trkpt lat="41.628529570" lon="2.422942050">
        <ele>368.32</ele>
        <time>2016-01-02T10:02:45Z</time>
      </trkpt>
      <trkpt lat="41.628519850" lon="2.422825460">
        <ele>368.80</ele>
        <time>2016-01-02T10:02:49Z</time>
      </trkpt>
      <trkpt lat="41.628515570" lon="2.422717580">
        <ele>369.76</ele>
        <time>2016-01-02T10:02:53Z</time>
      </trkpt>
      <trkpt lat="41.628516330" lon="2.422636110">
        <ele>370.73</ele>
        <time>2016-01-02T10:02:56Z</time>
      </trkpt>
      <trkpt lat="41.628528060" lon="2.422446180">
        <ele>371.69</ele>
        <time>2016-01-02T10:03:03Z</time>
      </trkpt>
      <trkpt lat="41.628531080" lon="2.422385240">
        <ele>371.69</ele>
        <time>2016-01-02T10:03:05Z</time>
      </trkpt>
      <trkpt lat="41.628412230" lon="2.422170830">
        <ele>373.13</ele>
        <time>2016-01-02T10:03:14Z</time>
      </trkpt>
      <trkpt lat="41.628315670" lon="2.422051730">
        <ele>374.09</ele>
        <time>2016-01-02T10:03:20Z</time>
      </trkpt>
      <trkpt lat="41.628229420" lon="2.421910240">
        <ele>375.05</ele>
        <time>2016-01-02T10:03:26Z</time>
      </trkpt>
      <trkpt lat="41.628187590" lon="2.421812420">
        <ele>375.53</ele>
        <time>2016-01-02T10:03:30Z</time>
      </trkpt>
      <trkpt lat="41.628136880" lon="2.421598520">
        <ele>376.97</ele>
        <time>2016-01-02T10:03:38Z</time>
      </trkpt>
      <trkpt lat="41.628086840" lon="2.421347900">
        <ele>377.45</ele>
        <time>2016-01-02T10:03:45Z</time>
      </trkpt>
      <trkpt lat="41.628013500" lon="2.421130640">
        <ele>378.90</ele>
        <time>2016-01-02T10:03:52Z</time>
      </trkpt>
      <trkpt lat="41.627941410" lon="2.421002060">
        <ele>380.82</ele>
        <time>2016-01-02T10:03:57Z</time>
      </trkpt>
      <trkpt lat="41.627851390" lon="2.420903070">
        <ele>381.78</ele>
        <time>2016-01-02T10:04:02Z</time>
      </trkpt>
      <trkpt lat="41.627757850" lon="2.420759320">
        <ele>383.22</ele>
        <time>2016-01-02T10:04:10Z</time>
      </trkpt>
      <trkpt lat="41.627658610" lon="2.420608780">
        <ele>384.66</ele>
        <time>2016-01-02T10:04:18Z</time>
      </trkpt>
      <trkpt lat="41.627620560" lon="2.420519350">
        <ele>384.18</ele>
        <time>2016-01-02T10:04:25Z</time>
      </trkpt>
      <trkpt lat="41.627612930" lon="2.420515660">
        <ele>384.18</ele>
        <time>2016-01-02T10:04:37Z</time>
      </trkpt>
      <trkpt lat="41.627607400" lon="2.420519510">
        <ele>384.18</ele>
        <time>2016-01-02T10:04:50Z</time>
      </trkpt>
      <trkpt lat="41.627605050" lon="2.420514150">
        <ele>384.18</ele>
        <time>2016-01-02T10:05:02Z</time>
      </trkpt>
      <trkpt lat="41.627608320" lon="2.420498560">
        <ele>384.18</ele>
        <time>2016-01-02T10:05:15Z</time>
      </trkpt>
      <trkpt lat="41.627600860" lon="2.420465030">
        <ele>384.18</ele>
        <time>2016-01-02T10:05:25Z</time>
      </trkpt>
      <trkpt lat="41.627607810" lon="2.420428570">
        <ele>384.18</ele>
        <time>2016-01-02T10:05:27Z</time>
      </trkpt>
      <trkpt lat="41.627664310" lon="2.420215590">
        <ele>384.18</ele>
        <time>2016-01-02T10:05:34Z</time>
      </trkpt>
      <trkpt lat="41.627724490" lon="2.419952810">
        <ele>384.18</ele>
        <time>2016-01-02T10:05:42Z</time>
      </trkpt>
      <trkpt lat="41.627793220" lon="2.419688620">
        <ele>384.18</ele>
        <time>2016-01-02T10:05:49Z</time>
      </trkpt>
      <trkpt lat="41.627924820" lon="2.419510920">
        <ele>383.22</ele>
        <time>2016-01-02T10:05:54Z</time>
      </trkpt>
      <trkpt lat="41.628092200" lon="2.419243120">
        <ele>381.78</ele>
        <time>2016-01-02T10:06:00Z</time>
      </trkpt>
      <trkpt lat="41.628197730" lon="2.419005490">
        <ele>380.82</ele>
        <time>2016-01-02T10:06:04Z</time>
      </trkpt>
      <trkpt lat="41.628344080" lon="2.418644650">
        <ele>380.34</ele>
        <time>2016-01-02T10:06:11Z</time>
      </trkpt>
      <trkpt lat="41.628514990" lon="2.418210890">
        <ele>380.34</ele>
        <time>2016-01-02T10:06:20Z</time>
      </trkpt>
      <trkpt lat="41.628547510" lon="2.417919030">
        <ele>381.30</ele>
        <time>2016-01-02T10:06:27Z</time>
      </trkpt>
      <trkpt lat="41.628544740" lon="2.417879130">
        <ele>381.30</ele>
        <time>2016-01-02T10:06:28Z</time>
      </trkpt>
      <trkpt lat="41.628493450" lon="2.417526840">
        <ele>383.22</ele>
        <time>2016-01-02T10:06:37Z</time>
      </trkpt>
      <trkpt lat="41.628461010" lon="2.417129540">
        <ele>384.66</ele>
        <time>2016-01-02T10:06:47Z</time>
      </trkpt>
      <trkpt lat="41.628367220" lon="2.416795180">
        <ele>385.63</ele>
        <time>2016-01-02T10:06:55Z</time>
      </trkpt>
      <trkpt lat="41.628279960" lon="2.416571050">
        <ele>385.63</ele>
        <time>2016-01-02T10:07:00Z</time>
      </trkpt>
      <trkpt lat="41.628178040" lon="2.416234020">
        <ele>384.18</ele>
        <time>2016-01-02T10:07:06Z</time>
      </trkpt>
      <trkpt lat="41.628021290" lon="2.415712240">
        <ele>381.78</ele>
        <time>2016-01-02T10:07:13Z</time>
      </trkpt>
      <trkpt lat="41.627809150" lon="2.415015960">
        <ele>379.86</ele>
        <time>2016-01-02T10:07:21Z</time>
      </trkpt>
      <trkpt lat="41.627787520" lon="2.414945880">
        <ele>379.86</ele>
        <time>2016-01-02T10:07:22Z</time>
      </trkpt>
      <trkpt lat="41.627647210" lon="2.414678080">
        <ele>381.78</ele>
        <time>2016-01-02T10:07:28Z</time>
      </trkpt>
      <trkpt lat="41.627529860" lon="2.414423110">
        <ele>383.70</ele>
        <time>2016-01-02T10:07:37Z</time>
      </trkpt>
      <trkpt lat="41.627471440" lon="2.414183890">
        <ele>385.63</ele>
        <time>2016-01-02T10:07:44Z</time>
      </trkpt>
      <trkpt lat="41.627467000" lon="2.413847270">
        <ele>385.63</ele>
        <time>2016-01-02T10:07:51Z</time>
      </trkpt>
      <trkpt lat="41.627454590" lon="2.413735370">
        <ele>385.63</ele>
        <time>2016-01-02T10:07:53Z</time>
      </trkpt>
      <trkpt lat="41.627426600" lon="2.413489860">
        <ele>384.18</ele>
        <time>2016-01-02T10:07:57Z</time>
      </trkpt>
      <trkpt lat="41.627351830" lon="2.413310740">
        <ele>383.22</ele>
        <time>2016-01-02T10:08:00Z</time>
      </trkpt>
      <trkpt lat="41.626960730" lon="2.412868430">
        <ele>381.78</ele>
        <time>2016-01-02T10:08:09Z</time>
      </trkpt>
      <trkpt lat="41.626869030" lon="2.412772620">
        <ele>381.78</ele>
        <time>2016-01-02T10:08:11Z</time>
      </trkpt>
      <trkpt lat="41.626554800" lon="2.412175580">
        <ele>379.86</ele>
        <time>2016-01-02T10:08:20Z</time>
      </trkpt>
      <trkpt lat="41.626220440" lon="2.411400930">
        <ele>376.97</ele>
        <time>2016-01-02T10:08:29Z</time>
      </trkpt>
      <trkpt lat="41.625915340" lon="2.411001950">
        <ele>375.05</ele>
        <time>2016-01-02T10:08:35Z</time>
      </trkpt>
      <trkpt lat="41.625721970" lon="2.410808490">
        <ele>373.61</ele>
        <time>2016-01-02T10:08:38Z</time>
      </trkpt>
      <trkpt lat="41.625346210" lon="2.410420580">
        <ele>370.24</ele>
        <time>2016-01-02T10:08:44Z</time>
      </trkpt>
      <trkpt lat="41.625210670" lon="2.410034420">
        <ele>367.84</ele>
        <time>2016-01-02T10:08:48Z</time>
      </trkpt>
      <trkpt lat="41.625197010" lon="2.409299420">
        <ele>363.52</ele>
        <time>2016-01-02T10:08:54Z</time>
      </trkpt>
      <trkpt lat="41.625333050" lon="2.408862630">
        <ele>359.19</ele>
        <time>2016-01-02T10:08:58Z</time>
      </trkpt>
      <trkpt lat="41.625506140" lon="2.408546550">
        <ele>355.83</ele>
        <time>2016-01-02T10:09:02Z</time>
      </trkpt>
      <trkpt lat="41.625568920" lon="2.408262910">
        <ele>354.38</ele>
        <time>2016-01-02T10:09:05Z</time>
      </trkpt>
      <trkpt lat="41.625558270" lon="2.408051350">
        <ele>352.94</ele>
        <time>2016-01-02T10:09:07Z</time>
      </trkpt>
      <trkpt lat="41.625558610" lon="2.407421870">
        <ele>348.13</ele>
        <time>2016-01-02T10:09:12Z</time>
      </trkpt>
      <trkpt lat="41.625604960" lon="2.406965640">
        <ele>344.77</ele>
        <time>2016-01-02T10:09:15Z</time>
      </trkpt>
      <trkpt lat="41.625653410" lon="2.406487450">
        <ele>340.92</ele>
        <time>2016-01-02T10:09:18Z</time>
      </trkpt>
      <trkpt lat="41.625681570" lon="2.405832830">
        <ele>336.60</ele>
        <time>2016-01-02T10:09:22Z</time>
      </trkpt>
      <trkpt lat="41.625663300" lon="2.405550020">
        <ele>334.20</ele>
        <time>2016-01-02T10:09:24Z</time>
      </trkpt>
      <trkpt lat="41.625565980" lon="2.405229580">
        <ele>331.79</ele>
        <time>2016-01-02T10:09:27Z</time>
      </trkpt>
      <trkpt lat="41.625362220" lon="2.404995310">
        <ele>329.87</ele>
        <time>2016-01-02T10:09:30Z</time>
      </trkpt>
      <trkpt lat="41.624945640" lon="2.404679060">
        <ele>325.54</ele>
        <time>2016-01-02T10:09:35Z</time>
      </trkpt>
      <trkpt lat="41.624693680" lon="2.404499100">
        <ele>322.66</ele>
        <time>2016-01-02T10:09:38Z</time>
      </trkpt>
      <trkpt lat="41.624484720" lon="2.404336240">
        <ele>319.78</ele>
        <time>2016-01-02T10:09:41Z</time>
      </trkpt>
      <trkpt lat="41.624388490" lon="2.404245300">
        <ele>317.85</ele>
        <time>2016-01-02T10:09:43Z</time>
      </trkpt>
      <trkpt lat="41.624320010" lon="2.404154020">
        <ele>316.89</ele>
        <time>2016-01-02T10:09:45Z</time>
      </trkpt>
      <trkpt lat="41.624253130" lon="2.403912950">
        <ele>314.97</ele>
        <time>2016-01-02T10:09:51Z</time>
      </trkpt>
      <trkpt lat="41.624263520" lon="2.403752610">
        <ele>315.45</ele>
        <time>2016-01-02T10:09:56Z</time>
      </trkpt>
      <trkpt lat="41.624282380" lon="2.403582710">
        <ele>315.45</ele>
        <time>2016-01-02T10:10:02Z</time>
      </trkpt>
      <trkpt lat="41.624258990" lon="2.403536770">
        <ele>316.89</ele>
        <time>2016-01-02T10:10:04Z</time>
      </trkpt>
      <trkpt lat="41.624250110" lon="2.403511880">
        <ele>316.89</ele>
        <time>2016-01-02T10:10:05Z</time>
      </trkpt>
      <trkpt lat="41.624216250" lon="2.403301830">
        <ele>317.37</ele>
        <time>2016-01-02T10:10:12Z</time>
      </trkpt>
      <trkpt lat="41.624126060" lon="2.403008550">
        <ele>318.81</ele>
        <time>2016-01-02T10:10:21Z</time>
      </trkpt>
      <trkpt lat="41.624070480" lon="2.402781060">
        <ele>319.30</ele>
        <time>2016-01-02T10:10:27Z</time>
      </trkpt>
      <trkpt lat="41.623995630" lon="2.402470180">
        <ele>320.74</ele>
        <time>2016-01-02T10:10:35Z</time>
      </trkpt>
      <trkpt lat="41.623909970" lon="2.402181590">
        <ele>322.66</ele>
        <time>2016-01-02T10:10:44Z</time>
      </trkpt>
      <trkpt lat="41.623845010" lon="2.401994250">
        <ele>324.58</ele>
        <time>2016-01-02T10:10:52Z</time>
      </trkpt>
      <trkpt lat="41.623799080" lon="2.401858550">
        <ele>327.47</ele>
        <time>2016-01-02T10:10:59Z</time>
      </trkpt>
      <trkpt lat="41.623755580" lon="2.401658980">
        <ele>328.43</ele>
        <time>2016-01-02T10:11:06Z</time>
      </trkpt>
      <trkpt lat="41.623692710" lon="2.401509860">
        <ele>329.87</ele>
        <time>2016-01-02T10:11:13Z</time>
      </trkpt>
      <trkpt lat="41.623609650" lon="2.401373820">
        <ele>330.83</ele>
        <time>2016-01-02T10:11:20Z</time>
      </trkpt>
      <trkpt lat="41.623591120" lon="2.401352530">
        <ele>330.83</ele>
        <time>2016-01-02T10:11:28Z</time>
      </trkpt>
      <trkpt lat="41.623581990" lon="2.401321860">
        <ele>331.31</ele>
        <time>2016-01-02T10:11:37Z</time>
      </trkpt>
      <trkpt lat="41.623565060" lon="2.401304000">
        <ele>331.31</ele>
        <time>2016-01-02T10:11:44Z</time>
      </trkpt>
      <trkpt lat="41.623461790" lon="2.401169970">
        <ele>331.31</ele>
        <time>2016-01-02T10:11:52Z</time>
      </trkpt>
      <trkpt lat="41.623347800" lon="2.401063780">
        <ele>331.31</ele>
        <time>2016-01-02T10:11:59Z</time>
      </trkpt>
      <trkpt lat="41.623234220" lon="2.400931260">
        <ele>331.31</ele>
        <time>2016-01-02T10:12:07Z</time>
      </trkpt>
      <trkpt lat="41.623107650" lon="2.400805110">
        <ele>332.27</ele>
        <time>2016-01-02T10:12:14Z</time>
      </trkpt>
      <trkpt lat="41.623087870" lon="2.400793710">
        <ele>332.27</ele>
        <time>2016-01-02T10:12:15Z</time>
      </trkpt>
      <trkpt lat="41.623005810" lon="2.400775020">
        <ele>332.75</ele>
        <time>2016-01-02T10:12:20Z</time>
      </trkpt>
      <trkpt lat="41.622880090" lon="2.400818350">
        <ele>333.71</ele>
        <time>2016-01-02T10:12:28Z</time>
      </trkpt>
      <trkpt lat="41.622756620" lon="2.400917010">
        <ele>334.68</ele>
        <time>2016-01-02T10:12:36Z</time>
      </trkpt>
      <trkpt lat="41.622662490" lon="2.401030580">
        <ele>335.16</ele>
        <time>2016-01-02T10:12:43Z</time>
      </trkpt>
      <trkpt lat="41.622496870" lon="2.401190510">
        <ele>335.64</ele>
        <time>2016-01-02T10:12:50Z</time>
      </trkpt>
      <trkpt lat="41.622339200" lon="2.401219930">
        <ele>335.64</ele>
        <time>2016-01-02T10:12:56Z</time>
      </trkpt>
      <trkpt lat="41.622153630" lon="2.401086990">
        <ele>335.64</ele>
        <time>2016-01-02T10:13:04Z</time>
      </trkpt>
      <trkpt lat="41.621945420" lon="2.400992030">
        <ele>336.12</ele>
        <time>2016-01-02T10:13:13Z</time>
      </trkpt>
      <trkpt lat="41.621716850" lon="2.400915000">
        <ele>336.12</ele>
        <time>2016-01-02T10:13:21Z</time>
      </trkpt>
      <trkpt lat="41.621541580" lon="2.400856490">
        <ele>336.12</ele>
        <time>2016-01-02T10:13:27Z</time>
      </trkpt>
      <trkpt lat="41.621307810" lon="2.400824390">
        <ele>336.12</ele>
        <time>2016-01-02T10:13:35Z</time>
      </trkpt>
      <trkpt lat="41.621135140" lon="2.400827320">
        <ele>336.12</ele>
        <time>2016-01-02T10:13:41Z</time>
      </trkpt>
      <trkpt lat="41.620884690" lon="2.400819190">
        <ele>336.12</ele>
        <time>2016-01-02T10:13:49Z</time>
      </trkpt>
      <trkpt lat="41.620824260" lon="2.400802090">
        <ele>336.12</ele>
        <time>2016-01-02T10:13:51Z</time>
      </trkpt>
      <trkpt lat="41.620795420" lon="2.400635960">
        <ele>336.12</ele>
        <time>2016-01-02T10:13:56Z</time>
      </trkpt>
      <trkpt lat="41.620916210" lon="2.400289540">
        <ele>336.60</ele>
        <time>2016-01-02T10:14:06Z</time>
      </trkpt>
      <trkpt lat="41.621032970" lon="2.399898520">
        <ele>336.60</ele>
        <time>2016-01-02T10:14:16Z</time>
      </trkpt>
      <trkpt lat="41.621046540" lon="2.399624770">
        <ele>336.60</ele>
        <time>2016-01-02T10:14:22Z</time>
      </trkpt>
      <trkpt lat="41.620993910" lon="2.399375830">
        <ele>336.60</ele>
        <time>2016-01-02T10:14:28Z</time>
      </trkpt>
      <trkpt lat="41.620904140" lon="2.399130320">
        <ele>336.60</ele>
        <time>2016-01-02T10:14:34Z</time>
      </trkpt>
      <trkpt lat="41.620745220" lon="2.398857410">
        <ele>336.60</ele>
        <time>2016-01-02T10:14:41Z</time>
      </trkpt>
      <trkpt lat="41.620631980" lon="2.398768060">
        <ele>336.60</ele>
        <time>2016-01-02T10:14:44Z</time>
      </trkpt>
      <trkpt lat="41.620558550" lon="2.398710560">
        <ele>336.60</ele>
        <time>2016-01-02T10:14:46Z</time>
      </trkpt>
      <trkpt lat="41.620225540" lon="2.398488350">
        <ele>336.60</ele>
        <time>2016-01-02T10:14:55Z</time>
      </trkpt>
      <trkpt lat="41.619935690" lon="2.398283580">
        <ele>336.60</ele>
        <time>2016-01-02T10:15:03Z</time>
      </trkpt>
      <trkpt lat="41.619597570" lon="2.398015530">
        <ele>336.60</ele>
        <time>2016-01-02T10:15:12Z</time>
      </trkpt>
      <trkpt lat="41.619571160" lon="2.397975970">
        <ele>336.60</ele>
        <time>2016-01-02T10:15:13Z</time>
      </trkpt>
      <trkpt lat="41.619461860" lon="2.397550330">
        <ele>336.60</ele>
        <time>2016-01-02T10:15:21Z</time>
      </trkpt>
      <trkpt lat="41.619479800" lon="2.397223860">
        <ele>336.60</ele>
        <time>2016-01-02T10:15:27Z</time>
      </trkpt>
      <trkpt lat="41.619460270" lon="2.397125960">
        <ele>336.60</ele>
        <time>2016-01-02T10:15:29Z</time>
      </trkpt>
      <trkpt lat="41.619257090" lon="2.397011380">
        <ele>336.60</ele>
        <time>2016-01-02T10:15:35Z</time>
      </trkpt>
      <trkpt lat="41.619189450" lon="2.397007940">
        <ele>336.60</ele>
        <time>2016-01-02T10:15:37Z</time>
      </trkpt>
      <trkpt lat="41.618897090" lon="2.397040130">
        <ele>336.60</ele>
        <time>2016-01-02T10:15:44Z</time>
      </trkpt>
      <trkpt lat="41.618613950" lon="2.397055050">
        <ele>336.60</ele>
        <time>2016-01-02T10:15:50Z</time>
      </trkpt>
      <trkpt lat="41.618428960" lon="2.397020770">
        <ele>336.60</ele>
        <time>2016-01-02T10:15:54Z</time>
      </trkpt>
      <trkpt lat="41.618232320" lon="2.396870810">
        <ele>336.60</ele>
        <time>2016-01-02T10:15:59Z</time>
      </trkpt>
      <trkpt lat="41.618141290" lon="2.396748770">
        <ele>336.60</ele>
        <time>2016-01-02T10:16:02Z</time>
      </trkpt>
      <trkpt lat="41.618068200" lon="2.396421630">
        <ele>336.60</ele>
        <time>2016-01-02T10:16:08Z</time>
      </trkpt>
      <trkpt lat="41.618053030" lon="2.396369410">
        <ele>336.60</ele>
        <time>2016-01-02T10:16:09Z</time>
      </trkpt>
      <trkpt lat="41.618021260" lon="2.396274360">
        <ele>336.60</ele>
        <time>2016-01-02T10:16:11Z</time>
      </trkpt>
      <trkpt lat="41.617995200" lon="2.395862810">
        <ele>336.60</ele>
        <time>2016-01-02T10:16:18Z</time>
      </trkpt>
      <trkpt lat="41.617983380" lon="2.395749310">
        <ele>336.60</ele>
        <time>2016-01-02T10:16:20Z</time>
      </trkpt>
      <trkpt lat="41.618056380" lon="2.395396600">
        <ele>336.60</ele>
        <time>2016-01-02T10:16:26Z</time>
      </trkpt>
      <trkpt lat="41.618093680" lon="2.395269030">
        <ele>335.16</ele>
        <time>2016-01-02T10:16:28Z</time>
      </trkpt>
      <trkpt lat="41.618054960" lon="2.395079940">
        <ele>335.16</ele>
        <time>2016-01-02T10:16:31Z</time>
      </trkpt>
      <trkpt lat="41.617980280" lon="2.394731670">
        <ele>335.16</ele>
        <time>2016-01-02T10:16:38Z</time>
      </trkpt>
      <trkpt lat="41.617959070" lon="2.394451460">
        <ele>337.08</ele>
        <time>2016-01-02T10:16:45Z</time>
      </trkpt>
      <trkpt lat="41.617966950" lon="2.394307540">
        <ele>338.04</ele>
        <time>2016-01-02T10:16:51Z</time>
      </trkpt>
      <trkpt lat="41.617975080" lon="2.394170160">
        <ele>339.00</ele>
        <time>2016-01-02T10:16:58Z</time>
      </trkpt>
      <trkpt lat="41.618030150" lon="2.393914100">
        <ele>339.96</ele>
        <time>2016-01-02T10:17:07Z</time>
      </trkpt>
      <trkpt lat="41.618129890" lon="2.393705140">
        <ele>341.89</ele>
        <time>2016-01-02T10:17:16Z</time>
      </trkpt>
      <trkpt lat="41.618152190" lon="2.393660040">
        <ele>342.37</ele>
        <time>2016-01-02T10:17:18Z</time>
      </trkpt>
      <trkpt lat="41.618178760" lon="2.393530710">
        <ele>344.29</ele>
        <time>2016-01-02T10:17:24Z</time>
      </trkpt>
      <trkpt lat="41.618247740" lon="2.393337170">
        <ele>346.69</ele>
        <time>2016-01-02T10:17:33Z</time>
      </trkpt>
      <trkpt lat="41.618284120" lon="2.393221250">
        <ele>348.13</ele>
        <time>2016-01-02T10:17:39Z</time>
      </trkpt>
      <trkpt lat="41.618320410" lon="2.393139690">
        <ele>348.62</ele>
        <time>2016-01-02T10:17:43Z</time>
      </trkpt>
      <trkpt lat="41.618350840" lon="2.393120250">
        <ele>349.58</ele>
        <time>2016-01-02T10:17:45Z</time>
      </trkpt>
      <trkpt lat="41.618434580" lon="2.393128290">
        <ele>350.54</ele>
        <time>2016-01-02T10:17:50Z</time>
      </trkpt>
      <trkpt lat="41.618564240" lon="2.393187050">
        <ele>351.98</ele>
        <time>2016-01-02T10:17:59Z</time>
      </trkpt>
      <trkpt lat="41.618638590" lon="2.393244630">
        <ele>353.42</ele>
        <time>2016-01-02T10:18:06Z</time>
      </trkpt>
      <trkpt lat="41.618685950" lon="2.393250000">
        <ele>353.90</ele>
        <time>2016-01-02T10:18:10Z</time>
      </trkpt>
      <trkpt lat="41.618711680" lon="2.393222090">
        <ele>353.90</ele>
        <time>2016-01-02T10:18:13Z</time>
      </trkpt>
      <trkpt lat="41.618701540" lon="2.393164920">
        <ele>354.38</ele>
        <time>2016-01-02T10:18:17Z</time>
      </trkpt>
      <trkpt lat="41.618600450" lon="2.392960400">
        <ele>354.38</ele>
        <time>2016-01-02T10:18:27Z</time>
      </trkpt>
      <trkpt lat="41.618489390" lon="2.392794020">
        <ele>355.34</ele>
        <time>2016-01-02T10:18:35Z</time>
      </trkpt>
      <trkpt lat="41.618363670" lon="2.392590010">
        <ele>356.31</ele>
        <time>2016-01-02T10:18:44Z</time>
      </trkpt>
      <trkpt lat="41.618214130" lon="2.392329500">
        <ele>358.23</ele>
        <time>2016-01-02T10:18:55Z</time>
      </trkpt>
      <trkpt lat="41.618111960" lon="2.392125310">
        <ele>359.19</ele>
        <time>2016-01-02T10:19:03Z</time>
      </trkpt>
      <trkpt lat="41.618055970" lon="2.392001850">
        <ele>360.15</ele>
        <time>2016-01-02T10:19:08Z</time>
      </trkpt>
      <trkpt lat="41.617911460" lon="2.391893470">
        <ele>361.59</ele>
        <time>2016-01-02T10:19:16Z</time>
      </trkpt>
      <trkpt lat="41.617773160" lon="2.391879720">
        <ele>363.04</ele>
        <time>2016-01-02T10:19:24Z</time>
      </trkpt>
      <trkpt lat="41.617624380" lon="2.391918200">
        <ele>365.44</ele>
        <time>2016-01-02T10:19:32Z</time>
      </trkpt>
      <trkpt lat="41.617510890" lon="2.391981400">
        <ele>367.36</ele>
        <time>2016-01-02T10:19:39Z</time>
      </trkpt>
      <trkpt lat="41.617339650" lon="2.392011660">
        <ele>369.76</ele>
        <time>2016-01-02T10:19:47Z</time>
      </trkpt>
      <trkpt lat="41.617157090" lon="2.391998660">
        <ele>371.69</ele>
        <time>2016-01-02T10:19:55Z</time>
      </trkpt>
      <trkpt lat="41.616947290" lon="2.391994220">
        <ele>373.61</ele>
        <time>2016-01-02T10:20:04Z</time>
      </trkpt>
      <trkpt lat="41.616714780" lon="2.391969580">
        <ele>374.09</ele>
        <time>2016-01-02T10:20:13Z</time>
      </trkpt>
      <trkpt lat="41.616495090" lon="2.391930440">
        <ele>375.53</ele>
        <time>2016-01-02T10:20:22Z</time>
      </trkpt>
      <trkpt lat="41.616387300" lon="2.391964970">
        <ele>376.01</ele>
        <time>2016-01-02T10:20:26Z</time>
      </trkpt>
      <trkpt lat="41.616358630" lon="2.392122800">
        <ele>377.45</ele>
        <time>2016-01-02T10:20:32Z</time>
      </trkpt>
      <trkpt lat="41.616344970" lon="2.392386830">
        <ele>379.38</ele>
        <time>2016-01-02T10:20:41Z</time>
      </trkpt>
      <trkpt lat="41.616328790" lon="2.392592520">
        <ele>380.34</ele>
        <time>2016-01-02T10:20:48Z</time>
      </trkpt>
      <trkpt lat="41.616254780" lon="2.392815900">
        <ele>381.78</ele>
        <time>2016-01-02T10:20:56Z</time>
      </trkpt>
      <trkpt lat="41.616203400" lon="2.392886390">
        <ele>382.74</ele>
        <time>2016-01-02T10:21:00Z</time>
      </trkpt>
      <trkpt lat="41.616158390" lon="2.392819590">
        <ele>384.18</ele>
        <time>2016-01-02T10:21:06Z</time>
      </trkpt>
      <trkpt lat="41.616161240" lon="2.392754960">
        <ele>384.66</ele>
        <time>2016-01-02T10:21:09Z</time>
      </trkpt>
      <trkpt lat="41.616123600" lon="2.392531080">
        <ele>386.11</ele>
        <time>2016-01-02T10:21:18Z</time>
      </trkpt>
      <trkpt lat="41.616080100" lon="2.392402590">
        <ele>387.55</ele>
        <time>2016-01-02T10:21:24Z</time>
      </trkpt>
      <trkpt lat="41.615958900" lon="2.392197650">
        <ele>388.03</ele>
        <time>2016-01-02T10:21:33Z</time>
      </trkpt>
      <trkpt lat="41.615830820" lon="2.392035130">
        <ele>389.95</ele>
        <time>2016-01-02T10:21:41Z</time>
      </trkpt>
      <trkpt lat="41.615730660" lon="2.391830360">
        <ele>391.87</ele>
        <time>2016-01-02T10:21:49Z</time>
      </trkpt>
      <trkpt lat="41.615661670" lon="2.391586780">
        <ele>392.84</ele>
        <time>2016-01-02T10:21:57Z</time>
      </trkpt>
      <trkpt lat="41.615612810" lon="2.391355190">
        <ele>394.76</ele>
        <time>2016-01-02T10:22:06Z</time>
      </trkpt>
      <trkpt lat="41.615546170" lon="2.391131390">
        <ele>397.16</ele>
        <time>2016-01-02T10:22:15Z</time>
      </trkpt>
      <trkpt lat="41.615502670" lon="2.390887810">
        <ele>400.53</ele>
        <time>2016-01-02T10:22:24Z</time>
      </trkpt>
      <trkpt lat="41.615536780" lon="2.390592010">
        <ele>402.93</ele>
        <time>2016-01-02T10:22:35Z</time>
      </trkpt>
      <trkpt lat="41.615674670" lon="2.390467370">
        <ele>404.85</ele>
        <time>2016-01-02T10:22:44Z</time>
      </trkpt>
      <trkpt lat="41.615805340" lon="2.390401580">
        <ele>405.81</ele>
        <time>2016-01-02T10:22:51Z</time>
      </trkpt>
      <trkpt lat="41.615948920" lon="2.390288670">
        <ele>406.77</ele>
        <time>2016-01-02T10:22:59Z</time>
      </trkpt>
      <trkpt lat="41.616041630" lon="2.390102680">
        <ele>408.22</ele>
        <time>2016-01-02T10:23:06Z</time>
      </trkpt>
      <trkpt lat="41.616027290" lon="2.389849630">
        <ele>408.22</ele>
        <time>2016-01-02T10:23:13Z</time>
      </trkpt>
      <trkpt lat="41.615971390" lon="2.389540840">
        <ele>408.22</ele>
        <time>2016-01-02T10:23:19Z</time>
      </trkpt>
      <trkpt lat="41.615930570" lon="2.389232640">
        <ele>408.22</ele>
        <time>2016-01-02T10:23:27Z</time>
      </trkpt>
      <trkpt lat="41.615929900" lon="2.389198770">
        <ele>408.22</ele>
        <time>2016-01-02T10:23:28Z</time>
      </trkpt>
      <trkpt lat="41.616043970" lon="2.388885960">
        <ele>408.22</ele>
        <time>2016-01-02T10:23:36Z</time>
      </trkpt>
      <trkpt lat="41.616174230" lon="2.388807590">
        <ele>409.18</ele>
        <time>2016-01-02T10:23:41Z</time>
      </trkpt>
      <trkpt lat="41.616394340" lon="2.388715220">
        <ele>409.66</ele>
        <time>2016-01-02T10:23:49Z</time>
      </trkpt>
      <trkpt lat="41.616670100" lon="2.388670960">
        <ele>409.66</ele>
        <time>2016-01-02T10:23:57Z</time>
      </trkpt>
      <trkpt lat="41.616922310" lon="2.388748500">
        <ele>410.14</ele>
        <time>2016-01-02T10:24:05Z</time>
      </trkpt>
      <trkpt lat="41.617046700" lon="2.388695360">
        <ele>410.62</ele>
        <time>2016-01-02T10:24:11Z</time>
      </trkpt>
      <trkpt lat="41.617019960" lon="2.388539870">
        <ele>413.50</ele>
        <time>2016-01-02T10:24:19Z</time>
      </trkpt>
      <trkpt lat="41.617017780" lon="2.388521100">
        <ele>413.98</ele>
        <time>2016-01-02T10:24:20Z</time>
      </trkpt>
      <trkpt lat="41.617047370" lon="2.388375670">
        <ele>415.43</ele>
        <time>2016-01-02T10:24:27Z</time>
      </trkpt>
      <trkpt lat="41.617091460" lon="2.388168130">
        <ele>417.35</ele>
        <time>2016-01-02T10:24:35Z</time>
      </trkpt>
      <trkpt lat="41.617122470" lon="2.387930510">
        <ele>417.83</ele>
        <time>2016-01-02T10:24:43Z</time>
      </trkpt>
      <trkpt lat="41.617123650" lon="2.387852890">
        <ele>417.83</ele>
        <time>2016-01-02T10:24:45Z</time>
      </trkpt>
      <trkpt lat="41.617207630" lon="2.387777120">
        <ele>417.83</ele>
        <time>2016-01-02T10:24:50Z</time>
      </trkpt>
      <trkpt lat="41.617271500" lon="2.387719280">
        <ele>417.83</ele>
        <time>2016-01-02T10:24:53Z</time>
      </trkpt>
      <trkpt lat="41.617378880" lon="2.387631940">
        <ele>417.83</ele>
        <time>2016-01-02T10:24:59Z</time>
      </trkpt>
      <trkpt lat="41.617431510" lon="2.387513340">
        <ele>416.87</ele>
        <time>2016-01-02T10:25:07Z</time>
      </trkpt>
      <trkpt lat="41.617439980" lon="2.387475870">
        <ele>416.39</ele>
        <time>2016-01-02T10:25:09Z</time>
      </trkpt>
      <trkpt lat="41.617463780" lon="2.387287030">
        <ele>415.43</ele>
        <time>2016-01-02T10:25:14Z</time>
      </trkpt>
      <trkpt lat="41.617518430" lon="2.387079490">
        <ele>414.47</ele>
        <time>2016-01-02T10:25:18Z</time>
      </trkpt>
      <trkpt lat="41.617613320" lon="2.386842120">
        <ele>413.02</ele>
        <time>2016-01-02T10:25:24Z</time>
      </trkpt>
      <trkpt lat="41.617676520" lon="2.386711780">
        <ele>412.54</ele>
        <time>2016-01-02T10:25:30Z</time>
      </trkpt>
      <trkpt lat="41.617720610" lon="2.386617400">
        <ele>412.06</ele>
        <time>2016-01-02T10:25:35Z</time>
      </trkpt>
      <trkpt lat="41.617839040" lon="2.386490830">
        <ele>412.06</ele>
        <time>2016-01-02T10:25:41Z</time>
      </trkpt>
      <trkpt lat="41.617981030" lon="2.386409020">
        <ele>412.06</ele>
        <time>2016-01-02T10:25:48Z</time>
      </trkpt>
      <trkpt lat="41.618106010" lon="2.386313140">
        <ele>412.06</ele>
        <time>2016-01-02T10:25:54Z</time>
      </trkpt>
      <trkpt lat="41.618255790" lon="2.386179360">
        <ele>412.06</ele>
        <time>2016-01-02T10:26:01Z</time>
      </trkpt>
      <trkpt lat="41.618383950" lon="2.386138210">
        <ele>412.06</ele>
        <time>2016-01-02T10:26:08Z</time>
      </trkpt>
      <trkpt lat="41.618430130" lon="2.386160500">
        <ele>413.50</ele>
        <time>2016-01-02T10:26:11Z</time>
      </trkpt>
      <trkpt lat="41.618551590" lon="2.386200650">
        <ele>413.98</ele>
        <time>2016-01-02T10:26:19Z</time>
      </trkpt>
      <trkpt lat="41.618610010" lon="2.386175340">
        <ele>413.98</ele>
        <time>2016-01-02T10:26:23Z</time>
      </trkpt>
      <trkpt lat="41.618637080" lon="2.386171230">
        <ele>413.98</ele>
        <time>2016-01-02T10:26:25Z</time>
      </trkpt>
      <trkpt lat="41.618732720" lon="2.386147840">
        <ele>415.91</ele>
        <time>2016-01-02T10:26:33Z</time>
      </trkpt>
      <trkpt lat="41.618753590" lon="2.386126890">
        <ele>415.91</ele>
        <time>2016-01-02T10:26:35Z</time>
      </trkpt>
      <trkpt lat="41.618783770" lon="2.386089590">
        <ele>415.91</ele>
        <time>2016-01-02T10:26:42Z</time>
      </trkpt>
      <trkpt lat="41.618795580" lon="2.386072240">
        <ele>415.91</ele>
        <time>2016-01-02T10:26:49Z</time>
      </trkpt>
      <trkpt lat="41.618795920" lon="2.386089170">
        <ele>415.91</ele>
        <time>2016-01-02T10:26:58Z</time>
      </trkpt>
      <trkpt lat="41.618801790" lon="2.386120100">
        <ele>415.91</ele>
        <time>2016-01-02T10:27:18Z</time>
      </trkpt>
      <trkpt lat="41.618806650" lon="2.386136780">
        <ele>415.91</ele>
        <time>2016-01-02T10:27:42Z</time>
      </trkpt>
      <trkpt lat="41.618805060" lon="2.386111300">
        <ele>417.35</ele>
        <time>2016-01-02T10:27:59Z</time>
      </trkpt>
      <trkpt lat="41.618802960" lon="2.386117250">
        <ele>416.39</ele>
        <time>2016-01-02T10:28:19Z</time>
      </trkpt>
      <trkpt lat="41.618809750" lon="2.386127810">
        <ele>415.91</ele>
        <time>2016-01-02T10:28:39Z</time>
      </trkpt>
      <trkpt lat="41.618821230" lon="2.386116410">
        <ele>415.91</ele>
        <time>2016-01-02T10:29:02Z</time>
      </trkpt>
      <trkpt lat="41.618812350" lon="2.386079620">
        <ele>415.91</ele>
        <time>2016-01-02T10:29:18Z</time>
      </trkpt>
      <trkpt lat="41.618799860" lon="2.386085230">
        <ele>415.91</ele>
        <time>2016-01-02T10:29:36Z</time>
      </trkpt>
      <trkpt lat="41.618815370" lon="2.386160750">
        <ele>415.43</ele>
        <time>2016-01-02T10:30:05Z</time>
      </trkpt>
      <trkpt lat="41.618823410" lon="2.386150860">
        <ele>416.87</ele>
        <time>2016-01-02T10:30:34Z</time>
      </trkpt>
      <trkpt lat="41.618823500" lon="2.386148350">
        <ele>415.91</ele>
        <time>2016-01-02T10:30:37Z</time>
      </trkpt>
      <trkpt lat="41.618821820" lon="2.386148430">
        <ele>415.91</ele>
        <time>2016-01-02T10:30:53Z</time>
      </trkpt>
      <trkpt lat="41.618816200" lon="2.386162680">
        <ele>416.87</ele>
        <time>2016-01-02T10:31:21Z</time>
      </trkpt>
      <trkpt lat="41.618819470" lon="2.386153380">
        <ele>416.87</ele>
        <time>2016-01-02T10:31:46Z</time>
      </trkpt>
      <trkpt lat="41.618828440" lon="2.386109200">
        <ele>415.43</ele>
        <time>2016-01-02T10:32:07Z</time>
      </trkpt>
      <trkpt lat="41.618838670" lon="2.386085320">
        <ele>415.43</ele>
        <time>2016-01-02T10:32:26Z</time>
      </trkpt>
      <trkpt lat="41.618833550" lon="2.386100910">
        <ele>415.43</ele>
        <time>2016-01-02T10:32:46Z</time>
      </trkpt>
      <trkpt lat="41.618820140" lon="2.386134940">
        <ele>415.43</ele>
        <time>2016-01-02T10:33:09Z</time>
      </trkpt>
      <trkpt lat="41.618830700" lon="2.386104680">
        <ele>415.43</ele>
        <time>2016-01-02T10:33:38Z</time>
      </trkpt>
      <trkpt lat="41.618828780" lon="2.386102920">
        <ele>415.43</ele>
        <time>2016-01-02T10:34:01Z</time>
      </trkpt>
      <trkpt lat="41.618827940" lon="2.386086910">
        <ele>415.43</ele>
        <time>2016-01-02T10:34:22Z</time>
      </trkpt>
      <trkpt lat="41.618835900" lon="2.386108030">
        <ele>414.95</ele>
        <time>2016-01-02T10:34:48Z</time>
      </trkpt>
      <trkpt lat="41.618846210" lon="2.386104430">
        <ele>414.95</ele>
        <time>2016-01-02T10:35:07Z</time>
      </trkpt>
      <trkpt lat="41.618847800" lon="2.386112470">
        <ele>414.95</ele>
        <time>2016-01-02T10:35:26Z</time>
      </trkpt>
      <trkpt lat="41.618828530" lon="2.386120270">
        <ele>414.95</ele>
        <time>2016-01-02T10:35:44Z</time>
      </trkpt>
      <trkpt lat="41.618827440" lon="2.386111890">
        <ele>415.91</ele>
        <time>2016-01-02T10:35:59Z</time>
      </trkpt>
      <trkpt lat="41.618834980" lon="2.386097300">
        <ele>415.91</ele>
        <time>2016-01-02T10:36:12Z</time>
      </trkpt>
      <trkpt lat="41.618838330" lon="2.386096710">
        <ele>415.43</ele>
        <time>2016-01-02T10:36:24Z</time>
      </trkpt>
      <trkpt lat="41.618845960" lon="2.386109540">
        <ele>416.39</ele>
        <time>2016-01-02T10:36:41Z</time>
      </trkpt>
      <trkpt lat="41.618850230" lon="2.386110710">
        <ele>416.39</ele>
        <time>2016-01-02T10:36:59Z</time>
      </trkpt>
      <trkpt lat="41.618842440" lon="2.386114320">
        <ele>416.39</ele>
        <time>2016-01-02T10:37:23Z</time>
      </trkpt>
      <trkpt lat="41.618837410" lon="2.386106770">
        <ele>416.39</ele>
        <time>2016-01-02T10:37:43Z</time>
      </trkpt>
      <trkpt lat="41.618824330" lon="2.386118590">
        <ele>415.91</ele>
        <time>2016-01-02T10:38:10Z</time>
      </trkpt>
      <trkpt lat="41.618830540" lon="2.386118510">
        <ele>415.91</ele>
        <time>2016-01-02T10:38:15Z</time>
      </trkpt>
      <trkpt lat="41.618811510" lon="2.386135690">
        <ele>415.91</ele>
        <time>2016-01-02T10:38:20Z</time>
      </trkpt>
      <trkpt lat="41.618695590" lon="2.386143570">
        <ele>414.95</ele>
        <time>2016-01-02T10:38:27Z</time>
      </trkpt>
      <trkpt lat="41.618627860" lon="2.386185560">
        <ele>413.98</ele>
        <time>2016-01-02T10:38:34Z</time>
      </trkpt>
      <trkpt lat="41.618619150" lon="2.386189500">
        <ele>413.98</ele>
        <time>2016-01-02T10:38:37Z</time>
      </trkpt>
      <trkpt lat="41.618473800" lon="2.386159580">
        <ele>413.98</ele>
        <time>2016-01-02T10:38:45Z</time>
      </trkpt>
      <trkpt lat="41.618350760" lon="2.386127900">
        <ele>413.02</ele>
        <time>2016-01-02T10:38:50Z</time>
      </trkpt>
      <trkpt lat="41.618178680" lon="2.386276090">
        <ele>413.02</ele>
        <time>2016-01-02T10:38:56Z</time>
      </trkpt>
      <trkpt lat="41.618065770" lon="2.386352950">
        <ele>412.54</ele>
        <time>2016-01-02T10:39:01Z</time>
      </trkpt>
      <trkpt lat="41.617814990" lon="2.386515390">
        <ele>412.06</ele>
        <time>2016-01-02T10:39:10Z</time>
      </trkpt>
      <trkpt lat="41.617764110" lon="2.386560740">
        <ele>412.06</ele>
        <time>2016-01-02T10:39:12Z</time>
      </trkpt>
      <trkpt lat="41.617598650" lon="2.386609440">
        <ele>410.14</ele>
        <time>2016-01-02T10:39:16Z</time>
      </trkpt>
      <trkpt lat="41.617400840" lon="2.386720830">
        <ele>408.70</ele>
        <time>2016-01-02T10:39:20Z</time>
      </trkpt>
      <trkpt lat="41.617252220" lon="2.386879420">
        <ele>406.77</ele>
        <time>2016-01-02T10:39:25Z</time>
      </trkpt>
      <trkpt lat="41.617214760" lon="2.386911600">
        <ele>406.77</ele>
        <time>2016-01-02T10:39:26Z</time>
      </trkpt>
      <trkpt lat="41.616864980" lon="2.387108240">
        <ele>406.29</ele>
        <time>2016-01-02T10:39:35Z</time>
      </trkpt>
      <trkpt lat="41.616687370" lon="2.387148640">
        <ele>406.29</ele>
        <time>2016-01-02T10:39:41Z</time>
      </trkpt>
      <trkpt lat="41.616542530" lon="2.387136990">
        <ele>406.29</ele>
        <time>2016-01-02T10:39:45Z</time>
      </trkpt>
      <trkpt lat="41.616331810" lon="2.387280070">
        <ele>403.41</ele>
        <time>2016-01-02T10:39:49Z</time>
      </trkpt>
      <trkpt lat="41.616272130" lon="2.387341340">
        <ele>402.93</ele>
        <time>2016-01-02T10:39:50Z</time>
      </trkpt>
      <trkpt lat="41.616073140" lon="2.387551480">
        <ele>401.49</ele>
        <time>2016-01-02T10:39:54Z</time>
      </trkpt>
      <trkpt lat="41.615963930" lon="2.387832190">
        <ele>403.41</ele>
        <time>2016-01-02T10:39:59Z</time>
      </trkpt>
      <trkpt lat="41.615960660" lon="2.387881810">
        <ele>403.41</ele>
        <time>2016-01-02T10:40:00Z</time>
      </trkpt>
      <trkpt lat="41.615929390" lon="2.388305180">
        <ele>404.37</ele>
        <time>2016-01-02T10:40:10Z</time>
      </trkpt>
      <trkpt lat="41.615925030" lon="2.388566860">
        <ele>405.33</ele>
        <time>2016-01-02T10:40:19Z</time>
      </trkpt>
      <trkpt lat="41.615913890" lon="2.388758720">
        <ele>405.81</ele>
        <time>2016-01-02T10:40:26Z</time>
      </trkpt>
      <trkpt lat="41.615912800" lon="2.388795020">
        <ele>405.81</ele>
        <time>2016-01-02T10:40:31Z</time>
      </trkpt>
      <trkpt lat="41.615909860" lon="2.388789740">
        <ele>406.29</ele>
        <time>2016-01-02T10:40:52Z</time>
      </trkpt>
      <trkpt lat="41.615900810" lon="2.388804820">
        <ele>406.29</ele>
        <time>2016-01-02T10:41:15Z</time>
      </trkpt>
      <trkpt lat="41.615902240" lon="2.388805080">
        <ele>405.33</ele>
        <time>2016-01-02T10:41:23Z</time>
      </trkpt>
      <trkpt lat="41.615905920" lon="2.388807590">
        <ele>405.33</ele>
        <time>2016-01-02T10:41:33Z</time>
      </trkpt>
      <trkpt lat="41.615906680" lon="2.388807000">
        <ele>406.29</ele>
        <time>2016-01-02T10:41:40Z</time>
      </trkpt>
      <trkpt lat="41.615898800" lon="2.388795690">
        <ele>404.37</ele>
        <time>2016-01-02T10:42:34Z</time>
      </trkpt>
      <trkpt lat="41.615861330" lon="2.388863080">
        <ele>404.37</ele>
        <time>2016-01-02T10:42:43Z</time>
      </trkpt>
      <trkpt lat="41.615843650" lon="2.388868020">
        <ele>404.37</ele>
        <time>2016-01-02T10:42:57Z</time>
      </trkpt>
      <trkpt lat="41.615877340" lon="2.388866430">
        <ele>404.37</ele>
        <time>2016-01-02T10:43:07Z</time>
      </trkpt>
      <trkpt lat="41.615884210" lon="2.389054860">
        <ele>404.37</ele>
        <time>2016-01-02T10:43:16Z</time>
      </trkpt>
      <trkpt lat="41.615907350" lon="2.389260130">
        <ele>404.85</ele>
        <time>2016-01-02T10:43:23Z</time>
      </trkpt>
      <trkpt lat="41.615940210" lon="2.389536230">
        <ele>404.85</ele>
        <time>2016-01-02T10:43:29Z</time>
      </trkpt>
      <trkpt lat="41.616015640" lon="2.389886340">
        <ele>404.85</ele>
        <time>2016-01-02T10:43:36Z</time>
      </trkpt>
      <trkpt lat="41.616025370" lon="2.390199820">
        <ele>404.85</ele>
        <time>2016-01-02T10:43:43Z</time>
      </trkpt>
      <trkpt lat="41.615964350" lon="2.390327060">
        <ele>404.85</ele>
        <time>2016-01-02T10:43:46Z</time>
      </trkpt>
      <trkpt lat="41.615822020" lon="2.390411630">
        <ele>403.41</ele>
        <time>2016-01-02T10:43:50Z</time>
      </trkpt>
      <trkpt lat="41.615620520" lon="2.390515570">
        <ele>401.49</ele>
        <time>2016-01-02T10:43:53Z</time>
      </trkpt>
      <trkpt lat="41.615490350" lon="2.390757720">
        <ele>399.57</ele>
        <time>2016-01-02T10:43:57Z</time>
      </trkpt>
      <trkpt lat="41.615513820" lon="2.391037340">
        <ele>397.64</ele>
        <time>2016-01-02T10:44:00Z</time>
      </trkpt>
      <trkpt lat="41.615570650" lon="2.391248650">
        <ele>396.20</ele>
        <time>2016-01-02T10:44:02Z</time>
      </trkpt>
      <trkpt lat="41.615668040" lon="2.391699260">
        <ele>390.43</ele>
        <time>2016-01-02T10:44:06Z</time>
      </trkpt>
      <trkpt lat="41.615699810" lon="2.391796410">
        <ele>390.43</ele>
        <time>2016-01-02T10:44:07Z</time>
      </trkpt>
      <trkpt lat="41.615780280" lon="2.391979640">
        <ele>389.47</ele>
        <time>2016-01-02T10:44:09Z</time>
      </trkpt>
      <trkpt lat="41.615936270" lon="2.392214750">
        <ele>387.55</ele>
        <time>2016-01-02T10:44:12Z</time>
      </trkpt>
      <trkpt lat="41.616108680" lon="2.392574670">
        <ele>384.18</ele>
        <time>2016-01-02T10:44:16Z</time>
      </trkpt>
      <trkpt lat="41.616129640" lon="2.392947910">
        <ele>380.82</ele>
        <time>2016-01-02T10:44:21Z</time>
      </trkpt>
      <trkpt lat="41.616075150" lon="2.393112030">
        <ele>380.34</ele>
        <time>2016-01-02T10:44:25Z</time>
      </trkpt>
      <trkpt lat="41.615998120" lon="2.393165170">
        <ele>380.82</ele>
        <time>2016-01-02T10:44:28Z</time>
      </trkpt>
      <trkpt lat="41.615856720" lon="2.393233740">
        <ele>380.82</ele>
        <time>2016-01-02T10:44:34Z</time>
      </trkpt>
      <trkpt lat="41.615795620" lon="2.393274220">
        <ele>380.82</ele>
        <time>2016-01-02T10:44:37Z</time>
      </trkpt>
      <trkpt lat="41.615719090" lon="2.393540180">
        <ele>380.82</ele>
        <time>2016-01-02T10:44:43Z</time>
      </trkpt>
      <trkpt lat="41.615676590" lon="2.393755510">
        <ele>380.82</ele>
        <time>2016-01-02T10:44:47Z</time>
      </trkpt>
      <trkpt lat="41.615678190" lon="2.393841590">
        <ele>380.34</ele>
        <time>2016-01-02T10:44:49Z</time>
      </trkpt>
      <trkpt lat="41.615628310" lon="2.394037060">
        <ele>377.94</ele>
        <time>2016-01-02T10:44:54Z</time>
      </trkpt>
      <trkpt lat="41.615568720" lon="2.394241830">
        <ele>376.97</ele>
        <time>2016-01-02T10:45:00Z</time>
      </trkpt>
      <trkpt lat="41.615427990" lon="2.394370660">
        <ele>376.49</ele>
        <time>2016-01-02T10:45:06Z</time>
      </trkpt>
      <trkpt lat="41.615373500" lon="2.394402590">
        <ele>377.94</ele>
        <time>2016-01-02T10:45:08Z</time>
      </trkpt>
      <trkpt lat="41.615328490" lon="2.394437460">
        <ele>378.42</ele>
        <time>2016-01-02T10:45:10Z</time>
      </trkpt>
      <trkpt lat="41.615300830" lon="2.394557160">
        <ele>378.90</ele>
        <time>2016-01-02T10:45:15Z</time>
      </trkpt>
      <trkpt lat="41.615381640" lon="2.394625220">
        <ele>378.90</ele>
        <time>2016-01-02T10:45:20Z</time>
      </trkpt>
      <trkpt lat="41.615388590" lon="2.394694700">
        <ele>378.42</ele>
        <time>2016-01-02T10:45:24Z</time>
      </trkpt>
      <trkpt lat="41.615468970" lon="2.394764110">
        <ele>377.45</ele>
        <time>2016-01-02T10:45:31Z</time>
      </trkpt>
      <trkpt lat="41.615508960" lon="2.394800400">
        <ele>376.49</ele>
        <time>2016-01-02T10:45:35Z</time>
      </trkpt>
      <trkpt lat="41.615555810" lon="2.394849940">
        <ele>374.57</ele>
        <time>2016-01-02T10:45:39Z</time>
      </trkpt>
      <trkpt lat="41.615570560" lon="2.394887570">
        <ele>374.57</ele>
        <time>2016-01-02T10:45:41Z</time>
      </trkpt>
      <trkpt lat="41.615628730" lon="2.395093430">
        <ele>373.61</ele>
        <time>2016-01-02T10:45:48Z</time>
      </trkpt>
      <trkpt lat="41.615618260" lon="2.395193930">
        <ele>373.13</ele>
        <time>2016-01-02T10:45:54Z</time>
      </trkpt>
      <trkpt lat="41.615628150" lon="2.395238860">
        <ele>372.65</ele>
        <time>2016-01-02T10:46:08Z</time>
      </trkpt>
      <trkpt lat="41.615612220" lon="2.395238270">
        <ele>372.65</ele>
        <time>2016-01-02T10:46:25Z</time>
      </trkpt>
      <trkpt lat="41.615617170" lon="2.395253520">
        <ele>372.65</ele>
        <time>2016-01-02T10:46:30Z</time>
      </trkpt>
      <trkpt lat="41.615606350" lon="2.395368860">
        <ele>370.24</ele>
        <time>2016-01-02T10:46:35Z</time>
      </trkpt>
      <trkpt lat="41.615599730" lon="2.395550830">
        <ele>367.84</ele>
        <time>2016-01-02T10:46:42Z</time>
      </trkpt>
      <trkpt lat="41.615594950" lon="2.395668600">
        <ele>365.92</ele>
        <time>2016-01-02T10:46:47Z</time>
      </trkpt>
      <trkpt lat="41.615577860" lon="2.395793320">
        <ele>364.96</ele>
        <time>2016-01-02T10:46:54Z</time>
      </trkpt>
      <trkpt lat="41.615545590" lon="2.395879740">
        <ele>362.55</ele>
        <time>2016-01-02T10:46:59Z</time>
      </trkpt>
      <trkpt lat="41.615476600" lon="2.395992470">
        <ele>360.63</ele>
        <time>2016-01-02T10:47:05Z</time>
      </trkpt>
      <trkpt lat="41.615438460" lon="2.396059950">
        <ele>359.67</ele>
        <time>2016-01-02T10:47:09Z</time>
      </trkpt>
      <trkpt lat="41.615352890" lon="2.396220380">
        <ele>358.23</ele>
        <time>2016-01-02T10:47:16Z</time>
      </trkpt>
      <trkpt lat="41.615321700" lon="2.396283160">
        <ele>357.27</ele>
        <time>2016-01-02T10:47:19Z</time>
      </trkpt>
      <trkpt lat="41.615314410" lon="2.396325320">
        <ele>357.27</ele>
        <time>2016-01-02T10:47:21Z</time>
      </trkpt>
      <trkpt lat="41.615270240" lon="2.396434530">
        <ele>355.83</ele>
        <time>2016-01-02T10:47:26Z</time>
      </trkpt>
      <trkpt lat="41.615275520" lon="2.396472340">
        <ele>355.83</ele>
        <time>2016-01-02T10:47:28Z</time>
      </trkpt>
      <trkpt lat="41.615294300" lon="2.396563200">
        <ele>354.38</ele>
        <time>2016-01-02T10:47:33Z</time>
      </trkpt>
      <trkpt lat="41.615298570" lon="2.396682720">
        <ele>353.42</ele>
        <time>2016-01-02T10:47:38Z</time>
      </trkpt>
      <trkpt lat="41.615304520" lon="2.396714070">
        <ele>352.46</ele>
        <time>2016-01-02T10:47:40Z</time>
      </trkpt>
      <trkpt lat="41.615355230" lon="2.396777100">
        <ele>352.46</ele>
        <time>2016-01-02T10:47:45Z</time>
      </trkpt>
      <trkpt lat="41.615383060" lon="2.396934930">
        <ele>351.50</ele>
        <time>2016-01-02T10:47:51Z</time>
      </trkpt>
      <trkpt lat="41.615372080" lon="2.397013640">
        <ele>351.02</ele>
        <time>2016-01-02T10:47:53Z</time>
      </trkpt>
      <trkpt lat="41.615331010" lon="2.397220930">
        <ele>349.10</ele>
        <time>2016-01-02T10:47:59Z</time>
      </trkpt>
      <trkpt lat="41.615268730" lon="2.397416140">
        <ele>347.65</ele>
        <time>2016-01-02T10:48:05Z</time>
      </trkpt>
      <trkpt lat="41.615182480" lon="2.397557790">
        <ele>345.25</ele>
        <time>2016-01-02T10:48:11Z</time>
      </trkpt>
      <trkpt lat="41.615083160" lon="2.397720070">
        <ele>343.33</ele>
        <time>2016-01-02T10:48:18Z</time>
      </trkpt>
      <trkpt lat="41.615059350" lon="2.397852420">
        <ele>341.41</ele>
        <time>2016-01-02T10:48:22Z</time>
      </trkpt>
      <trkpt lat="41.615060860" lon="2.398064480">
        <ele>339.96</ele>
        <time>2016-01-02T10:48:25Z</time>
      </trkpt>
      <trkpt lat="41.615043930" lon="2.398196660">
        <ele>338.52</ele>
        <time>2016-01-02T10:48:27Z</time>
      </trkpt>
      <trkpt lat="41.614995310" lon="2.398466220">
        <ele>335.64</ele>
        <time>2016-01-02T10:48:33Z</time>
      </trkpt>
      <trkpt lat="41.614963710" lon="2.398596900">
        <ele>335.16</ele>
        <time>2016-01-02T10:48:40Z</time>
      </trkpt>
      <trkpt lat="41.614957590" lon="2.398629590">
        <ele>335.16</ele>
        <time>2016-01-02T10:48:41Z</time>
      </trkpt>
      <trkpt lat="41.614979300" lon="2.398796810">
        <ele>334.68</ele>
        <time>2016-01-02T10:48:48Z</time>
      </trkpt>
      <trkpt lat="41.614962540" lon="2.398848440">
        <ele>334.68</ele>
        <time>2016-01-02T10:48:57Z</time>
      </trkpt>
      <trkpt lat="41.614959020" lon="2.398876270">
        <ele>334.68</ele>
        <time>2016-01-02T10:49:01Z</time>
      </trkpt>
      <trkpt lat="41.614945860" lon="2.398901750">
        <ele>334.20</ele>
        <time>2016-01-02T10:49:03Z</time>
      </trkpt>
      <trkpt lat="41.614917780" lon="2.399000990">
        <ele>333.23</ele>
        <time>2016-01-02T10:49:07Z</time>
      </trkpt>
      <trkpt lat="41.614886940" lon="2.399183800">
        <ele>332.75</ele>
        <time>2016-01-02T10:49:13Z</time>
      </trkpt>
      <trkpt lat="41.614861370" lon="2.399357470">
        <ele>332.27</ele>
        <time>2016-01-02T10:49:20Z</time>
      </trkpt>
      <trkpt lat="41.614800850" lon="2.399601050">
        <ele>331.79</ele>
        <time>2016-01-02T10:49:27Z</time>
      </trkpt>
      <trkpt lat="41.614749470" lon="2.399824930">
        <ele>331.79</ele>
        <time>2016-01-02T10:49:33Z</time>
      </trkpt>
      <trkpt lat="41.614700770" lon="2.400039840">
        <ele>330.35</ele>
        <time>2016-01-02T10:49:40Z</time>
      </trkpt>
      <trkpt lat="41.614646880" lon="2.400119550">
        <ele>329.87</ele>
        <time>2016-01-02T10:49:43Z</time>
      </trkpt>
      <trkpt lat="41.614618210" lon="2.400357940">
        <ele>329.39</ele>
        <time>2016-01-02T10:49:49Z</time>
      </trkpt>
      <trkpt lat="41.614608400" lon="2.400480140">
        <ele>328.43</ele>
        <time>2016-01-02T10:49:52Z</time>
      </trkpt>
      <trkpt lat="41.614552160" lon="2.400560190">
        <ele>326.99</ele>
        <time>2016-01-02T10:49:56Z</time>
      </trkpt>
      <trkpt lat="41.614457780" lon="2.400589030">
        <ele>325.06</ele>
        <time>2016-01-02T10:50:00Z</time>
      </trkpt>
      <trkpt lat="41.614376650" lon="2.400609230">
        <ele>323.14</ele>
        <time>2016-01-02T10:50:06Z</time>
      </trkpt>
      <trkpt lat="41.614334400" lon="2.400608300">
        <ele>321.70</ele>
        <time>2016-01-02T10:50:09Z</time>
      </trkpt>
      <trkpt lat="41.614298270" lon="2.400478380">
        <ele>321.22</ele>
        <time>2016-01-02T10:50:15Z</time>
      </trkpt>
      <trkpt lat="41.614240190" lon="2.400366570">
        <ele>320.26</ele>
        <time>2016-01-02T10:50:19Z</time>
      </trkpt>
      <trkpt lat="41.614178580" lon="2.400130200">
        <ele>318.33</ele>
        <time>2016-01-02T10:50:25Z</time>
      </trkpt>
      <trkpt lat="41.614162240" lon="2.399835660">
        <ele>316.41</ele>
        <time>2016-01-02T10:50:32Z</time>
      </trkpt>
      <trkpt lat="41.614152090" lon="2.399509180">
        <ele>314.49</ele>
        <time>2016-01-02T10:50:39Z</time>
      </trkpt>
      <trkpt lat="41.614152760" lon="2.399423100">
        <ele>313.53</ele>
        <time>2016-01-02T10:50:42Z</time>
      </trkpt>
      <trkpt lat="41.614089400" lon="2.399430730">
        <ele>311.60</ele>
        <time>2016-01-02T10:50:48Z</time>
      </trkpt>
      <trkpt lat="41.614079930" lon="2.399444810">
        <ele>310.64</ele>
        <time>2016-01-02T10:50:49Z</time>
      </trkpt>
      <trkpt lat="41.613997110" lon="2.399632900">
        <ele>307.76</ele>
        <time>2016-01-02T10:50:56Z</time>
      </trkpt>
      <trkpt lat="41.613965930" lon="2.399754610">
        <ele>306.80</ele>
        <time>2016-01-02T10:51:02Z</time>
      </trkpt>
      <trkpt lat="41.613948330" lon="2.399794090">
        <ele>306.32</ele>
        <time>2016-01-02T10:51:04Z</time>
      </trkpt>
      <trkpt lat="41.613918830" lon="2.399875980">
        <ele>305.36</ele>
        <time>2016-01-02T10:51:08Z</time>
      </trkpt>
      <trkpt lat="41.613861830" lon="2.400002460">
        <ele>303.91</ele>
        <time>2016-01-02T10:51:13Z</time>
      </trkpt>
      <trkpt lat="41.613726800" lon="2.400206730">
        <ele>299.59</ele>
        <time>2016-01-02T10:51:21Z</time>
      </trkpt>
      <trkpt lat="41.613658650" lon="2.400383170">
        <ele>297.67</ele>
        <time>2016-01-02T10:51:28Z</time>
      </trkpt>
      <trkpt lat="41.613635010" lon="2.400453990">
        <ele>297.18</ele>
        <time>2016-01-02T10:51:36Z</time>
      </trkpt>
      <trkpt lat="41.613626050" lon="2.400508890">
        <ele>296.70</ele>
        <time>2016-01-02T10:51:43Z</time>
      </trkpt>
      <trkpt lat="41.613620850" lon="2.400526410">
        <ele>296.70</ele>
        <time>2016-01-02T10:51:44Z</time>
      </trkpt>
      <trkpt lat="41.613560830" lon="2.400600840">
        <ele>294.78</ele>
        <time>2016-01-02T10:51:50Z</time>
      </trkpt>
      <trkpt lat="41.613536950" lon="2.400652730">
        <ele>294.30</ele>
        <time>2016-01-02T10:51:58Z</time>
      </trkpt>
      <trkpt lat="41.613526890" lon="2.400668990">
        <ele>293.82</ele>
        <time>2016-01-02T10:52:00Z</time>
      </trkpt>
      <trkpt lat="41.613506350" lon="2.400781140">
        <ele>291.90</ele>
        <time>2016-01-02T10:52:05Z</time>
      </trkpt>
      <trkpt lat="41.613417340" lon="2.400846770">
        <ele>289.97</ele>
        <time>2016-01-02T10:52:12Z</time>
      </trkpt>
      <trkpt lat="41.613317090" lon="2.400903100">
        <ele>288.53</ele>
        <time>2016-01-02T10:52:18Z</time>
      </trkpt>
      <trkpt lat="41.613204100" lon="2.400945090">
        <ele>287.09</ele>
        <time>2016-01-02T10:52:24Z</time>
      </trkpt>
      <trkpt lat="41.613123300" lon="2.400960430">
        <ele>286.13</ele>
        <time>2016-01-02T10:52:29Z</time>
      </trkpt>
      <trkpt lat="41.613029760" lon="2.400941150">
        <ele>285.17</ele>
        <time>2016-01-02T10:52:35Z</time>
      </trkpt>
      <trkpt lat="41.613004280" lon="2.400936870">
        <ele>284.69</ele>
        <time>2016-01-02T10:52:37Z</time>
      </trkpt>
      <trkpt lat="41.612965470" lon="2.400935870">
        <ele>284.69</ele>
        <time>2016-01-02T10:52:44Z</time>
      </trkpt>
      <trkpt lat="41.612910320" lon="2.400917340">
        <ele>283.73</ele>
        <time>2016-01-02T10:52:55Z</time>
      </trkpt>
      <trkpt lat="41.612843850" lon="2.400818610">
        <ele>282.28</ele>
        <time>2016-01-02T10:53:02Z</time>
      </trkpt>
      <trkpt lat="41.612807130" lon="2.400791030">
        <ele>281.32</ele>
        <time>2016-01-02T10:53:05Z</time>
      </trkpt>
      <trkpt lat="41.612720460" lon="2.400786420">
        <ele>279.88</ele>
        <time>2016-01-02T10:53:11Z</time>
      </trkpt>
      <trkpt lat="41.612583840" lon="2.400749450">
        <ele>278.44</ele>
        <time>2016-01-02T10:53:17Z</time>
      </trkpt>
      <trkpt lat="41.612436150" lon="2.400709310">
        <ele>277.48</ele>
        <time>2016-01-02T10:53:25Z</time>
      </trkpt>
      <trkpt lat="41.612426430" lon="2.400683990">
        <ele>277.00</ele>
        <time>2016-01-02T10:53:34Z</time>
      </trkpt>
      <trkpt lat="41.612411760" lon="2.400710980">
        <ele>277.00</ele>
        <time>2016-01-02T10:53:53Z</time>
      </trkpt>
      <trkpt lat="41.612395830" lon="2.400709050">
        <ele>277.00</ele>
        <time>2016-01-02T10:54:12Z</time>
      </trkpt>
      <trkpt lat="41.612302630" lon="2.400703610">
        <ele>275.56</ele>
        <time>2016-01-02T10:54:17Z</time>
      </trkpt>
      <trkpt lat="41.612199950" lon="2.400689940">
        <ele>274.59</ele>
        <time>2016-01-02T10:54:24Z</time>
      </trkpt>
      <trkpt lat="41.612114450" lon="2.400696650">
        <ele>274.11</ele>
        <time>2016-01-02T10:54:31Z</time>
      </trkpt>
      <trkpt lat="41.611993080" lon="2.400675190">
        <ele>273.15</ele>
        <time>2016-01-02T10:54:36Z</time>
      </trkpt>
      <trkpt lat="41.611914800" lon="2.400650050">
        <ele>272.67</ele>
        <time>2016-01-02T10:54:39Z</time>
      </trkpt>
      <trkpt lat="41.611861070" lon="2.400661780">
        <ele>272.67</ele>
        <time>2016-01-02T10:54:41Z</time>
      </trkpt>
      <trkpt lat="41.611663590" lon="2.400784660">
        <ele>271.23</ele>
        <time>2016-01-02T10:54:49Z</time>
      </trkpt>
      <trkpt lat="41.611507600" lon="2.400861440">
        <ele>270.27</ele>
        <time>2016-01-02T10:54:54Z</time>
      </trkpt>
      <trkpt lat="41.611415740" lon="2.400935620">
        <ele>269.79</ele>
        <time>2016-01-02T10:54:58Z</time>
      </trkpt>
      <trkpt lat="41.611272990" lon="2.400927910">
        <ele>267.86</ele>
        <time>2016-01-02T10:55:04Z</time>
      </trkpt>
      <trkpt lat="41.611106780" lon="2.400936200">
        <ele>265.46</ele>
        <time>2016-01-02T10:55:12Z</time>
      </trkpt>
      <trkpt lat="41.611035530" lon="2.400934860">
        <ele>264.02</ele>
        <time>2016-01-02T10:55:18Z</time>
      </trkpt>
      <trkpt lat="41.610939140" lon="2.400922290">
        <ele>262.58</ele>
        <time>2016-01-02T10:55:25Z</time>
      </trkpt>
      <trkpt lat="41.610926820" lon="2.400921540">
        <ele>262.58</ele>
        <time>2016-01-02T10:55:26Z</time>
      </trkpt>
      <trkpt lat="41.610903440" lon="2.400906200">
        <ele>262.10</ele>
        <time>2016-01-02T10:55:28Z</time>
      </trkpt>
      <trkpt lat="41.610821380" lon="2.400882890">
        <ele>259.69</ele>
        <time>2016-01-02T10:55:32Z</time>
      </trkpt>
      <trkpt lat="41.610719870" lon="2.400918520">
        <ele>259.21</ele>
        <time>2016-01-02T10:55:41Z</time>
      </trkpt>
      <trkpt lat="41.610717440" lon="2.400929080">
        <ele>259.69</ele>
        <time>2016-01-02T10:55:56Z</time>
      </trkpt>
      <trkpt lat="41.610727840" lon="2.400940390">
        <ele>259.69</ele>
        <time>2016-01-02T10:56:12Z</time>
      </trkpt>
      <trkpt lat="41.610720290" lon="2.400940810">
        <ele>259.69</ele>
        <time>2016-01-02T10:56:27Z</time>
      </trkpt>
      <trkpt lat="41.610689780" lon="2.400937630">
        <ele>259.21</ele>
        <time>2016-01-02T10:56:30Z</time>
      </trkpt>
      <trkpt lat="41.610656170" lon="2.400905530">
        <ele>257.77</ele>
        <time>2016-01-02T10:56:33Z</time>
      </trkpt>
      <trkpt lat="41.610609730" lon="2.400777870">
        <ele>255.85</ele>
        <time>2016-01-02T10:56:38Z</time>
      </trkpt>
      <trkpt lat="41.610537230" lon="2.400693630">
        <ele>254.41</ele>
        <time>2016-01-02T10:56:43Z</time>
      </trkpt>
      <trkpt lat="41.610509820" lon="2.400656080">
        <ele>253.93</ele>
        <time>2016-01-02T10:56:46Z</time>
      </trkpt>
      <trkpt lat="41.610349220" lon="2.400616600">
        <ele>252.48</ele>
        <time>2016-01-02T10:56:52Z</time>
      </trkpt>
      <trkpt lat="41.610220390" lon="2.400596070">
        <ele>252.48</ele>
        <time>2016-01-02T10:56:57Z</time>
      </trkpt>
      <trkpt lat="41.610170860" lon="2.400585420">
        <ele>252.48</ele>
        <time>2016-01-02T10:56:59Z</time>
      </trkpt>
      <trkpt lat="41.610114030" lon="2.400553990">
        <ele>251.04</ele>
        <time>2016-01-02T10:57:03Z</time>
      </trkpt>
      <trkpt lat="41.610071780" lon="2.400472100">
        <ele>248.64</ele>
        <time>2016-01-02T10:57:07Z</time>
      </trkpt>
      <trkpt lat="41.609910850" lon="2.400373110">
        <ele>246.72</ele>
        <time>2016-01-02T10:57:12Z</time>
      </trkpt>
      <trkpt lat="41.609769360" lon="2.400301690">
        <ele>244.79</ele>
        <time>2016-01-02T10:57:19Z</time>
      </trkpt>
      <trkpt lat="41.609685800" lon="2.400260790">
        <ele>243.83</ele>
        <time>2016-01-02T10:57:24Z</time>
      </trkpt>
      <trkpt lat="41.609620590" lon="2.400212590">
        <ele>241.91</ele>
        <time>2016-01-02T10:57:28Z</time>
      </trkpt>
      <trkpt lat="41.609482950" lon="2.400123330">
        <ele>239.99</ele>
        <time>2016-01-02T10:57:34Z</time>
      </trkpt>
      <trkpt lat="41.609437020" lon="2.400097340">
        <ele>238.54</ele>
        <time>2016-01-02T10:57:36Z</time>
      </trkpt>
      <trkpt lat="41.609332160" lon="2.399966250">
        <ele>238.06</ele>
        <time>2016-01-02T10:57:41Z</time>
      </trkpt>
      <trkpt lat="41.609331490" lon="2.399832730">
        <ele>237.58</ele>
        <time>2016-01-02T10:57:45Z</time>
      </trkpt>
      <trkpt lat="41.609433170" lon="2.399750750">
        <ele>235.18</ele>
        <time>2016-01-02T10:57:50Z</time>
      </trkpt>
      <trkpt lat="41.609500140" lon="2.399762400">
        <ele>234.70</ele>
        <time>2016-01-02T10:57:52Z</time>
      </trkpt>
      <trkpt lat="41.609625530" lon="2.399696270">
        <ele>233.26</ele>
        <time>2016-01-02T10:57:57Z</time>
      </trkpt>
      <trkpt lat="41.609712450" lon="2.399622010">
        <ele>231.81</ele>
        <time>2016-01-02T10:58:01Z</time>
      </trkpt>
      <trkpt lat="41.609739780" lon="2.399600040">
        <ele>231.33</ele>
        <time>2016-01-02T10:58:02Z</time>
      </trkpt>
      <trkpt lat="41.609896180" lon="2.399437770">
        <ele>228.93</ele>
        <time>2016-01-02T10:58:08Z</time>
      </trkpt>
      <trkpt lat="41.609927530" lon="2.399411790">
        <ele>228.45</ele>
        <time>2016-01-02T10:58:09Z</time>
      </trkpt>
      <trkpt lat="41.609948740" lon="2.399302910">
        <ele>227.01</ele>
        <time>2016-01-02T10:58:13Z</time>
      </trkpt>
      <trkpt lat="41.609914540" lon="2.399298130">
        <ele>227.01</ele>
        <time>2016-01-02T10:58:15Z</time>
      </trkpt>
      <trkpt lat="41.609802980" lon="2.399281870">
        <ele>227.01</ele>
        <time>2016-01-02T10:58:22Z</time>
      </trkpt>
      <trkpt lat="41.609635250" lon="2.399245740">
        <ele>227.49</ele>
        <time>2016-01-02T10:58:28Z</time>
      </trkpt>
      <trkpt lat="41.609500390" lon="2.399151360">
        <ele>227.49</ele>
        <time>2016-01-02T10:58:34Z</time>
      </trkpt>
      <trkpt lat="41.609477090" lon="2.399124120">
        <ele>227.49</ele>
        <time>2016-01-02T10:58:35Z</time>
      </trkpt>
      <trkpt lat="41.609352950" lon="2.399038040">
        <ele>225.57</ele>
        <time>2016-01-02T10:58:41Z</time>
      </trkpt>
      <trkpt lat="41.609293860" lon="2.398970230">
        <ele>224.61</ele>
        <time>2016-01-02T10:58:46Z</time>
      </trkpt>
      <trkpt lat="41.609175840" lon="2.398961180">
        <ele>222.68</ele>
        <time>2016-01-02T10:58:53Z</time>
      </trkpt>
      <trkpt lat="41.609035450" lon="2.398948440">
        <ele>219.80</ele>
        <time>2016-01-02T10:58:59Z</time>
      </trkpt>
      <trkpt lat="41.608916000" lon="2.398918600">
        <ele>217.88</ele>
        <time>2016-01-02T10:59:04Z</time>
      </trkpt>
      <trkpt lat="41.608778870" lon="2.398907950">
        <ele>214.51</ele>
        <time>2016-01-02T10:59:10Z</time>
      </trkpt>
      <trkpt lat="41.608712740" lon="2.399043230">
        <ele>214.03</ele>
        <time>2016-01-02T10:59:16Z</time>
      </trkpt>
      <trkpt lat="41.608684240" lon="2.399047840">
        <ele>214.03</ele>
        <time>2016-01-02T10:59:17Z</time>
      </trkpt>
      <trkpt lat="41.608491880" lon="2.399064780">
        <ele>215.95</ele>
        <time>2016-01-02T10:59:24Z</time>
      </trkpt>
      <trkpt lat="41.608437480" lon="2.399081540">
        <ele>216.43</ele>
        <time>2016-01-02T10:59:26Z</time>
      </trkpt>
      <trkpt lat="41.608285100" lon="2.399224030">
        <ele>217.40</ele>
        <time>2016-01-02T10:59:33Z</time>
      </trkpt>
      <trkpt lat="41.608137410" lon="2.399268200">
        <ele>219.32</ele>
        <time>2016-01-02T10:59:39Z</time>
      </trkpt>
      <trkpt lat="41.607918390" lon="2.399304830">
        <ele>220.28</ele>
        <time>2016-01-02T10:59:46Z</time>
      </trkpt>
      <trkpt lat="41.607746480" lon="2.399313220">
        <ele>221.72</ele>
        <time>2016-01-02T10:59:52Z</time>
      </trkpt>
      <trkpt lat="41.607657290" lon="2.399321090">
        <ele>222.20</ele>
        <time>2016-01-02T10:59:55Z</time>
      </trkpt>
      <trkpt lat="41.607437180" lon="2.399383200">
        <ele>223.16</ele>
        <time>2016-01-02T11:00:04Z</time>
      </trkpt>
      <trkpt lat="41.607293180" lon="2.399333670">
        <ele>219.32</ele>
        <time>2016-01-02T11:00:09Z</time>
      </trkpt>
      <trkpt lat="41.607271720" lon="2.399317160">
        <ele>219.32</ele>
        <time>2016-01-02T11:00:10Z</time>
      </trkpt>
      <trkpt lat="41.607140050" lon="2.399254540">
        <ele>217.40</ele>
        <time>2016-01-02T11:00:14Z</time>
      </trkpt>
      <trkpt lat="41.606980960" lon="2.399161920">
        <ele>215.47</ele>
        <time>2016-01-02T11:00:20Z</time>
      </trkpt>
      <trkpt lat="41.606801330" lon="2.399047010">
        <ele>213.07</ele>
        <time>2016-01-02T11:00:26Z</time>
      </trkpt>
      <trkpt lat="41.606580300" lon="2.398906860">
        <ele>212.11</ele>
        <time>2016-01-02T11:00:32Z</time>
      </trkpt>
      <trkpt lat="41.606410740" lon="2.398825980">
        <ele>210.67</ele>
        <time>2016-01-02T11:00:36Z</time>
      </trkpt>
      <trkpt lat="41.606293470" lon="2.398762690">
        <ele>210.19</ele>
        <time>2016-01-02T11:00:43Z</time>
      </trkpt>
      <trkpt lat="41.606178560" lon="2.398660350">
        <ele>207.30</ele>
        <time>2016-01-02T11:00:49Z</time>
      </trkpt>
      <trkpt lat="41.606007480" lon="2.398635370">
        <ele>206.34</ele>
        <time>2016-01-02T11:00:56Z</time>
      </trkpt>
      <trkpt lat="41.605896170" lon="2.398614420">
        <ele>206.34</ele>
        <time>2016-01-02T11:00:59Z</time>
      </trkpt>
      <trkpt lat="41.605739850" lon="2.398554490">
        <ele>205.38</ele>
        <time>2016-01-02T11:01:03Z</time>
      </trkpt>
      <trkpt lat="41.605656870" lon="2.398532780">
        <ele>204.90</ele>
        <time>2016-01-02T11:01:05Z</time>
      </trkpt>
      <trkpt lat="41.605403310" lon="2.398555830">
        <ele>204.42</ele>
        <time>2016-01-02T11:01:12Z</time>
      </trkpt>
      <trkpt lat="41.605162000" lon="2.398585330">
        <ele>203.94</ele>
        <time>2016-01-02T11:01:19Z</time>
      </trkpt>
      <trkpt lat="41.605023450" lon="2.398657000">
        <ele>202.98</ele>
        <time>2016-01-02T11:01:25Z</time>
      </trkpt>
      <trkpt lat="41.604875340" lon="2.398677360">
        <ele>199.61</ele>
        <time>2016-01-02T11:01:32Z</time>
      </trkpt>
      <trkpt lat="41.604780710" lon="2.398672750">
        <ele>197.69</ele>
        <time>2016-01-02T11:01:38Z</time>
      </trkpt>
      <trkpt lat="41.604648780" lon="2.398653140">
        <ele>196.25</ele>
        <time>2016-01-02T11:01:44Z</time>
      </trkpt>
      <trkpt lat="41.604612150" lon="2.398624730">
        <ele>196.25</ele>
        <time>2016-01-02T11:01:46Z</time>
      </trkpt>
      <trkpt lat="41.604588680" lon="2.398591620">
        <ele>196.25</ele>
        <time>2016-01-02T11:01:48Z</time>
      </trkpt>
      <trkpt lat="41.604578030" lon="2.398567140">
        <ele>196.25</ele>
        <time>2016-01-02T11:01:50Z</time>
      </trkpt>
      <trkpt lat="41.604654310" lon="2.398435710">
        <ele>194.32</ele>
        <time>2016-01-02T11:01:58Z</time>
      </trkpt>
      <trkpt lat="41.604750110" lon="2.398314850">
        <ele>191.92</ele>
        <time>2016-01-02T11:02:04Z</time>
      </trkpt>
      <trkpt lat="41.604800400" lon="2.398240420">
        <ele>190.48</ele>
        <time>2016-01-02T11:02:07Z</time>
      </trkpt>
      <trkpt lat="41.604907020" lon="2.398106470">
        <ele>187.59</ele>
        <time>2016-01-02T11:02:12Z</time>
      </trkpt>
      <trkpt lat="41.605066030" lon="2.398010420">
        <ele>183.75</ele>
        <time>2016-01-02T11:02:18Z</time>
      </trkpt>
      <trkpt lat="41.605146490" lon="2.397887790">
        <ele>181.83</ele>
        <time>2016-01-02T11:02:21Z</time>
      </trkpt>
      <trkpt lat="41.605155800" lon="2.397679330">
        <ele>180.38</ele>
        <time>2016-01-02T11:02:26Z</time>
      </trkpt>
      <trkpt lat="41.605130990" lon="2.397651340">
        <ele>180.38</ele>
        <time>2016-01-02T11:02:27Z</time>
      </trkpt>
      <trkpt lat="41.605054800" lon="2.397575230">
        <ele>181.83</ele>
        <time>2016-01-02T11:02:31Z</time>
      </trkpt>
      <trkpt lat="41.604924460" lon="2.397450590">
        <ele>182.79</ele>
        <time>2016-01-02T11:02:40Z</time>
      </trkpt>
      <trkpt lat="41.604782890" lon="2.397415390">
        <ele>182.79</ele>
        <time>2016-01-02T11:02:46Z</time>
      </trkpt>
      <trkpt lat="41.604612820" lon="2.397395180">
        <ele>182.79</ele>
        <time>2016-01-02T11:02:51Z</time>
      </trkpt>
      <trkpt lat="41.604376200" lon="2.397346400">
        <ele>181.83</ele>
        <time>2016-01-02T11:02:57Z</time>
      </trkpt>
      <trkpt lat="41.604339150" lon="2.397357550">
        <ele>181.83</ele>
        <time>2016-01-02T11:02:58Z</time>
      </trkpt>
      <trkpt lat="41.604053330" lon="2.397305750">
        <ele>180.38</ele>
        <time>2016-01-02T11:03:05Z</time>
      </trkpt>
      <trkpt lat="41.603863060" lon="2.397313290">
        <ele>179.42</ele>
        <time>2016-01-02T11:03:09Z</time>
      </trkpt>
      <trkpt lat="41.603672450" lon="2.397391080">
        <ele>177.02</ele>
        <time>2016-01-02T11:03:14Z</time>
      </trkpt>
      <trkpt lat="41.603507660" lon="2.397491330">
        <ele>172.21</ele>
        <time>2016-01-02T11:03:18Z</time>
      </trkpt>
      <trkpt lat="41.603412190" lon="2.397584360">
        <ele>169.81</ele>
        <time>2016-01-02T11:03:21Z</time>
      </trkpt>
      <trkpt lat="41.603337590" lon="2.397696850">
        <ele>165.96</ele>
        <time>2016-01-02T11:03:25Z</time>
      </trkpt>
      <trkpt lat="41.603313710" lon="2.397721320">
        <ele>165.96</ele>
        <time>2016-01-02T11:03:26Z</time>
      </trkpt>
      <trkpt lat="41.603206750" lon="2.397795840">
        <ele>163.08</ele>
        <time>2016-01-02T11:03:30Z</time>
      </trkpt>
      <trkpt lat="41.603179260" lon="2.397805060">
        <ele>163.08</ele>
        <time>2016-01-02T11:03:31Z</time>
      </trkpt>
      <trkpt lat="41.603033580" lon="2.397876140">
        <ele>161.64</ele>
        <time>2016-01-02T11:03:35Z</time>
      </trkpt>
      <trkpt lat="41.602888410" lon="2.397965410">
        <ele>160.20</ele>
        <time>2016-01-02T11:03:38Z</time>
      </trkpt>
      <trkpt lat="41.602630580" lon="2.398082000">
        <ele>158.75</ele>
        <time>2016-01-02T11:03:43Z</time>
      </trkpt>
      <trkpt lat="41.602492030" lon="2.398153080">
        <ele>157.79</ele>
        <time>2016-01-02T11:03:49Z</time>
      </trkpt>
      <trkpt lat="41.602417180" lon="2.398207140">
        <ele>157.79</ele>
        <time>2016-01-02T11:04:05Z</time>
      </trkpt>
      <trkpt lat="41.602395640" lon="2.398191550">
        <ele>157.79</ele>
        <time>2016-01-02T11:04:16Z</time>
      </trkpt>
      <trkpt lat="41.602396640" lon="2.398188110">
        <ele>157.79</ele>
        <time>2016-01-02T11:04:29Z</time>
      </trkpt>
      <trkpt lat="41.602392700" lon="2.398184510">
        <ele>157.79</ele>
        <time>2016-01-02T11:04:39Z</time>
      </trkpt>
      <trkpt lat="41.602320530" lon="2.398194230">
        <ele>157.79</ele>
        <time>2016-01-02T11:04:49Z</time>
      </trkpt>
      <trkpt lat="41.602224140" lon="2.398156090">
        <ele>156.35</ele>
        <time>2016-01-02T11:04:54Z</time>
      </trkpt>
      <trkpt lat="41.602094060" lon="2.398084010">
        <ele>154.91</ele>
        <time>2016-01-02T11:05:00Z</time>
      </trkpt>
      <trkpt lat="41.601896660" lon="2.398076470">
        <ele>153.95</ele>
        <time>2016-01-02T11:05:06Z</time>
      </trkpt>
      <trkpt lat="41.601701450" lon="2.397990970">
        <ele>152.03</ele>
        <time>2016-01-02T11:05:11Z</time>
      </trkpt>
      <trkpt lat="41.601549820" lon="2.397946710">
        <ele>150.10</ele>
        <time>2016-01-02T11:05:17Z</time>
      </trkpt>
      <trkpt lat="41.601448230" lon="2.397919470">
        <ele>149.62</ele>
        <time>2016-01-02T11:05:23Z</time>
      </trkpt>
      <trkpt lat="41.601385700" lon="2.397879660">
        <ele>149.62</ele>
        <time>2016-01-02T11:05:27Z</time>
      </trkpt>
      <trkpt lat="41.601349240" lon="2.397810260">
        <ele>150.10</ele>
        <time>2016-01-02T11:05:31Z</time>
      </trkpt>
      <trkpt lat="41.601286960" lon="2.397735490">
        <ele>151.06</ele>
        <time>2016-01-02T11:05:36Z</time>
      </trkpt>
      <trkpt lat="41.601266340" lon="2.397714370">
        <ele>151.54</ele>
        <time>2016-01-02T11:05:38Z</time>
      </trkpt>
      <trkpt lat="41.601165090" lon="2.397644380">
        <ele>151.54</ele>
        <time>2016-01-02T11:05:45Z</time>
      </trkpt>
      <trkpt lat="41.601109430" lon="2.397630300">
        <ele>152.03</ele>
        <time>2016-01-02T11:05:48Z</time>
      </trkpt>
      <trkpt lat="41.600937440" lon="2.397610350">
        <ele>152.03</ele>
        <time>2016-01-02T11:05:55Z</time>
      </trkpt>
      <trkpt lat="41.600785720" lon="2.397608840">
        <ele>152.03</ele>
        <time>2016-01-02T11:06:01Z</time>
      </trkpt>
      <trkpt lat="41.600611550" lon="2.397629540">
        <ele>151.06</ele>
        <time>2016-01-02T11:06:06Z</time>
      </trkpt>
      <trkpt lat="41.600462940" lon="2.397679330">
        <ele>151.06</ele>
        <time>2016-01-02T11:06:11Z</time>
      </trkpt>
      <trkpt lat="41.600293710" lon="2.397744370">
        <ele>151.06</ele>
        <time>2016-01-02T11:06:16Z</time>
      </trkpt>
      <trkpt lat="41.600263280" lon="2.397760550">
        <ele>151.06</ele>
        <time>2016-01-02T11:06:17Z</time>
      </trkpt>
      <trkpt lat="41.600147860" lon="2.397954510">
        <ele>150.58</ele>
        <time>2016-01-02T11:06:23Z</time>
      </trkpt>
      <trkpt lat="41.600010150" lon="2.398133630">
        <ele>150.10</ele>
        <time>2016-01-02T11:06:28Z</time>
      </trkpt>
      <trkpt lat="41.599945520" lon="2.398182250">
        <ele>149.62</ele>
        <time>2016-01-02T11:06:30Z</time>
      </trkpt>
      <trkpt lat="41.599592640" lon="2.398279890">
        <ele>149.62</ele>
        <time>2016-01-02T11:06:38Z</time>
      </trkpt>
      <trkpt lat="41.599523410" lon="2.398293220">
        <ele>151.06</ele>
        <time>2016-01-02T11:06:40Z</time>
      </trkpt>
      <trkpt lat="41.599346890" lon="2.398397330">
        <ele>151.06</ele>
        <time>2016-01-02T11:06:45Z</time>
      </trkpt>
      <trkpt lat="41.599172290" lon="2.398591620">
        <ele>149.14</ele>
        <time>2016-01-02T11:06:51Z</time>
      </trkpt>
      <trkpt lat="41.598970960" lon="2.398850530">
        <ele>147.70</ele>
        <time>2016-01-02T11:06:56Z</time>
      </trkpt>
      <trkpt lat="41.598682290" lon="2.399043740">
        <ele>146.74</ele>
        <time>2016-01-02T11:07:01Z</time>
      </trkpt>
      <trkpt lat="41.598366290" lon="2.399187150">
        <ele>146.74</ele>
        <time>2016-01-02T11:07:07Z</time>
      </trkpt>
      <trkpt lat="41.598027070" lon="2.399376420">
        <ele>146.74</ele>
        <time>2016-01-02T11:07:14Z</time>
      </trkpt>
      <trkpt lat="41.597833620" lon="2.399471050">
        <ele>146.26</ele>
        <time>2016-01-02T11:07:19Z</time>
      </trkpt>
      <trkpt lat="41.597624820" lon="2.399609430">
        <ele>146.26</ele>
        <time>2016-01-02T11:07:26Z</time>
      </trkpt>
      <trkpt lat="41.597460040" lon="2.399694090">
        <ele>146.26</ele>
        <time>2016-01-02T11:07:32Z</time>
      </trkpt>
      <trkpt lat="41.597232300" lon="2.399877990">
        <ele>145.78</ele>
        <time>2016-01-02T11:07:39Z</time>
      </trkpt>
      <trkpt lat="41.597116040" lon="2.400005730">
        <ele>144.34</ele>
        <time>2016-01-02T11:07:42Z</time>
      </trkpt>
      <trkpt lat="41.596964250" lon="2.400107650">
        <ele>143.85</ele>
        <time>2016-01-02T11:07:45Z</time>
      </trkpt>
      <trkpt lat="41.596730810" lon="2.400306470">
        <ele>143.85</ele>
        <time>2016-01-02T11:07:52Z</time>
      </trkpt>
      <trkpt lat="41.596650090" lon="2.400452480">
        <ele>145.30</ele>
        <time>2016-01-02T11:07:57Z</time>
      </trkpt>
      <trkpt lat="41.596538780" lon="2.400686840">
        <ele>145.30</ele>
        <time>2016-01-02T11:08:04Z</time>
      </trkpt>
      <trkpt lat="41.596524700" lon="2.400712910">
        <ele>145.30</ele>
        <time>2016-01-02T11:08:05Z</time>
      </trkpt>
      <trkpt lat="41.596362850" lon="2.400839980">
        <ele>146.26</ele>
        <time>2016-01-02T11:08:11Z</time>
      </trkpt>
      <trkpt lat="41.596157740" lon="2.401065540">
        <ele>146.26</ele>
        <time>2016-01-02T11:08:18Z</time>
      </trkpt>
      <trkpt lat="41.596125890" lon="2.401107360">
        <ele>146.26</ele>
        <time>2016-01-02T11:08:19Z</time>
      </trkpt>
      <trkpt lat="41.595905610" lon="2.401413220">
        <ele>144.82</ele>
        <time>2016-01-02T11:08:27Z</time>
      </trkpt>
      <trkpt lat="41.595821460" lon="2.401524190">
        <ele>144.34</ele>
        <time>2016-01-02T11:08:30Z</time>
      </trkpt>
      <trkpt lat="41.595631690" lon="2.401807330">
        <ele>143.37</ele>
        <time>2016-01-02T11:08:37Z</time>
      </trkpt>
      <trkpt lat="41.595431700" lon="2.402094920">
        <ele>141.45</ele>
        <time>2016-01-02T11:08:43Z</time>
      </trkpt>
      <trkpt lat="41.595219390" lon="2.402623650">
        <ele>140.97</ele>
        <time>2016-01-02T11:08:52Z</time>
      </trkpt>
      <trkpt lat="41.595089970" lon="2.403018100">
        <ele>140.49</ele>
        <time>2016-01-02T11:08:59Z</time>
      </trkpt>
      <trkpt lat="41.594991480" lon="2.403363350">
        <ele>140.01</ele>
        <time>2016-01-02T11:09:05Z</time>
      </trkpt>
      <trkpt lat="41.594953600" lon="2.403520600">
        <ele>140.01</ele>
        <time>2016-01-02T11:09:08Z</time>
      </trkpt>
      <trkpt lat="41.594694090" lon="2.403848830">
        <ele>139.53</ele>
        <time>2016-01-02T11:09:15Z</time>
      </trkpt>
      <trkpt lat="41.594524610" lon="2.404182010">
        <ele>139.53</ele>
        <time>2016-01-02T11:09:23Z</time>
      </trkpt>
      <trkpt lat="41.594313390" lon="2.404437740">
        <ele>139.05</ele>
        <time>2016-01-02T11:09:31Z</time>
      </trkpt>
      <trkpt lat="41.594217410" lon="2.404619040">
        <ele>139.05</ele>
        <time>2016-01-02T11:09:36Z</time>
      </trkpt>
      <trkpt lat="41.594239460" lon="2.404753150">
        <ele>139.05</ele>
        <time>2016-01-02T11:09:40Z</time>
      </trkpt>
      <trkpt lat="41.594225210" lon="2.404996650">
        <ele>139.05</ele>
        <time>2016-01-02T11:09:47Z</time>
      </trkpt>
      <trkpt lat="41.594176430" lon="2.405207200">
        <ele>139.05</ele>
        <time>2016-01-02T11:09:53Z</time>
      </trkpt>
      <trkpt lat="41.594181620" lon="2.405323880">
        <ele>139.05</ele>
        <time>2016-01-02T11:09:57Z</time>
      </trkpt>
      <trkpt lat="41.594262590" lon="2.405436030">
        <ele>139.05</ele>
        <time>2016-01-02T11:10:03Z</time>
      </trkpt>
      <trkpt lat="41.594245490" lon="2.405568290">
        <ele>139.05</ele>
        <time>2016-01-02T11:10:10Z</time>
      </trkpt>
      <trkpt lat="41.594154880" lon="2.405697880">
        <ele>139.05</ele>
        <time>2016-01-02T11:10:15Z</time>
      </trkpt>
      <trkpt lat="41.594109040" lon="2.405713720">
        <ele>138.57</ele>
        <time>2016-01-02T11:10:16Z</time>
      </trkpt>
      <trkpt lat="41.593831850" lon="2.405815730">
        <ele>136.16</ele>
        <time>2016-01-02T11:10:22Z</time>
      </trkpt>
      <trkpt lat="41.593735960" lon="2.405946070">
        <ele>135.68</ele>
        <time>2016-01-02T11:10:26Z</time>
      </trkpt>
      <trkpt lat="41.593729000" lon="2.406241030">
        <ele>135.68</ele>
        <time>2016-01-02T11:10:31Z</time>
      </trkpt>
      <trkpt lat="41.593737210" lon="2.406397010">
        <ele>137.13</ele>
        <time>2016-01-02T11:10:34Z</time>
      </trkpt>
      <trkpt lat="41.593782810" lon="2.406669930">
        <ele>140.01</ele>
        <time>2016-01-02T11:10:41Z</time>
      </trkpt>
      <trkpt lat="41.593875520" lon="2.406755840">
        <ele>140.49</ele>
        <time>2016-01-02T11:10:45Z</time>
      </trkpt>
      <trkpt lat="41.594000070" lon="2.406781320">
        <ele>141.45</ele>
        <time>2016-01-02T11:10:50Z</time>
      </trkpt>
      <trkpt lat="41.594100570" lon="2.406911910">
        <ele>141.93</ele>
        <time>2016-01-02T11:10:55Z</time>
      </trkpt>
      <trkpt lat="41.594314640" lon="2.407020540">
        <ele>142.89</ele>
        <time>2016-01-02T11:11:04Z</time>
      </trkpt>
      <trkpt lat="41.594476160" lon="2.407093890">
        <ele>144.34</ele>
        <time>2016-01-02T11:11:11Z</time>
      </trkpt>
      <trkpt lat="41.594597700" lon="2.407137470">
        <ele>144.34</ele>
        <time>2016-01-02T11:11:17Z</time>
      </trkpt>
      <trkpt lat="41.594734330" lon="2.407194800">
        <ele>144.82</ele>
        <time>2016-01-02T11:11:25Z</time>
      </trkpt>
      <trkpt lat="41.594877070" lon="2.407282390">
        <ele>144.82</ele>
        <time>2016-01-02T11:11:32Z</time>
      </trkpt>
      <trkpt lat="41.594960220" lon="2.407378950">
        <ele>144.82</ele>
        <time>2016-01-02T11:11:37Z</time>
      </trkpt>
      <trkpt lat="41.595043200" lon="2.407469900">
        <ele>144.82</ele>
        <time>2016-01-02T11:11:43Z</time>
      </trkpt>
      <trkpt lat="41.595079410" lon="2.407673660">
        <ele>143.37</ele>
        <time>2016-01-02T11:11:48Z</time>
      </trkpt>
      <trkpt lat="41.595076310" lon="2.407825790">
        <ele>141.93</ele>
        <time>2016-01-02T11:11:53Z</time>
      </trkpt>
      <trkpt lat="41.595070690" lon="2.407911200">
        <ele>141.93</ele>
        <time>2016-01-02T11:11:56Z</time>
      </trkpt>
      <trkpt lat="41.595035570" lon="2.408198280">
        <ele>141.45</ele>
        <time>2016-01-02T11:12:03Z</time>
      </trkpt>
      <trkpt lat="41.595016800" lon="2.408381430">
        <ele>141.45</ele>
        <time>2016-01-02T11:12:10Z</time>
      </trkpt>
      <trkpt lat="41.595005560" lon="2.408468180">
        <ele>141.45</ele>
        <time>2016-01-02T11:12:16Z</time>
      </trkpt>
      <trkpt lat="41.595017380" lon="2.408637240">
        <ele>142.89</ele>
        <time>2016-01-02T11:12:23Z</time>
      </trkpt>
      <trkpt lat="41.594999860" lon="2.408917950">
        <ele>144.34</ele>
        <time>2016-01-02T11:12:32Z</time>
      </trkpt>
      <trkpt lat="41.594998520" lon="2.409190450">
        <ele>146.26</ele>
        <time>2016-01-02T11:12:41Z</time>
      </trkpt>
      <trkpt lat="41.594985450" lon="2.409474850">
        <ele>148.18</ele>
        <time>2016-01-02T11:12:50Z</time>
      </trkpt>
      <trkpt lat="41.594978660" lon="2.409760250">
        <ele>149.62</ele>
        <time>2016-01-02T11:12:59Z</time>
      </trkpt>
      <trkpt lat="41.594974720" lon="2.410078760">
        <ele>151.54</ele>
        <time>2016-01-02T11:13:09Z</time>
      </trkpt>
      <trkpt lat="41.594967590" lon="2.410310860">
        <ele>153.95</ele>
        <time>2016-01-02T11:13:17Z</time>
      </trkpt>
      <trkpt lat="41.594953680" lon="2.410494420">
        <ele>155.87</ele>
        <time>2016-01-02T11:13:24Z</time>
      </trkpt>
      <trkpt lat="41.594938930" lon="2.410735320">
        <ele>157.79</ele>
        <time>2016-01-02T11:13:33Z</time>
      </trkpt>
      <trkpt lat="41.594928280" lon="2.410966070">
        <ele>159.72</ele>
        <time>2016-01-02T11:13:42Z</time>
      </trkpt>
      <trkpt lat="41.594926770" lon="2.411003620">
        <ele>159.72</ele>
        <time>2016-01-02T11:13:44Z</time>
      </trkpt>
      <trkpt lat="41.594795260" lon="2.411051570">
        <ele>160.68</ele>
        <time>2016-01-02T11:13:51Z</time>
      </trkpt>
      <trkpt lat="41.594727870" lon="2.411069670">
        <ele>161.64</ele>
        <time>2016-01-02T11:13:54Z</time>
      </trkpt>
      <trkpt lat="41.594533660" lon="2.411110160">
        <ele>163.08</ele>
        <time>2016-01-02T11:14:03Z</time>
      </trkpt>
      <trkpt lat="41.594345150" lon="2.411203700">
        <ele>164.04</ele>
        <time>2016-01-02T11:14:11Z</time>
      </trkpt>
      <trkpt lat="41.594161670" lon="2.411318950">
        <ele>165.48</ele>
        <time>2016-01-02T11:14:19Z</time>
      </trkpt>
      <trkpt lat="41.593976850" lon="2.411463290">
        <ele>166.93</ele>
        <time>2016-01-02T11:14:27Z</time>
      </trkpt>
      <trkpt lat="41.593886160" lon="2.411516680">
        <ele>167.89</ele>
        <time>2016-01-02T11:14:31Z</time>
      </trkpt>
      <trkpt lat="41.593724470" lon="2.411708710">
        <ele>169.81</ele>
        <time>2016-01-02T11:14:40Z</time>
      </trkpt>
      <trkpt lat="41.593639400" lon="2.411905520">
        <ele>171.73</ele>
        <time>2016-01-02T11:14:48Z</time>
      </trkpt>
      <trkpt lat="41.593586000" lon="2.412123280">
        <ele>173.66</ele>
        <time>2016-01-02T11:14:56Z</time>
      </trkpt>
      <trkpt lat="41.593568400" lon="2.412271890">
        <ele>175.10</ele>
        <time>2016-01-02T11:15:02Z</time>
      </trkpt>
      <trkpt lat="41.593529510" lon="2.412498620">
        <ele>176.06</ele>
        <time>2016-01-02T11:15:09Z</time>
      </trkpt>
      <trkpt lat="41.593514000" lon="2.412665760">
        <ele>177.02</ele>
        <time>2016-01-02T11:15:15Z</time>
      </trkpt>
      <trkpt lat="41.593473180" lon="2.412861810">
        <ele>177.98</ele>
        <time>2016-01-02T11:15:22Z</time>
      </trkpt>
      <trkpt lat="41.593449300" lon="2.413045790">
        <ele>179.42</ele>
        <time>2016-01-02T11:15:29Z</time>
      </trkpt>
      <trkpt lat="41.593441750" lon="2.413274110">
        <ele>180.38</ele>
        <time>2016-01-02T11:15:36Z</time>
      </trkpt>
      <trkpt lat="41.593462870" lon="2.413604360">
        <ele>181.35</ele>
        <time>2016-01-02T11:15:45Z</time>
      </trkpt>
      <trkpt lat="41.593481990" lon="2.413849200">
        <ele>183.75</ele>
        <time>2016-01-02T11:15:53Z</time>
      </trkpt>
      <trkpt lat="41.593523220" lon="2.414125880">
        <ele>184.23</ele>
        <time>2016-01-02T11:16:01Z</time>
      </trkpt>
      <trkpt lat="41.593551470" lon="2.414326710">
        <ele>185.19</ele>
        <time>2016-01-02T11:16:07Z</time>
      </trkpt>
      <trkpt lat="41.593561360" lon="2.414616730">
        <ele>186.63</ele>
        <time>2016-01-02T11:16:15Z</time>
      </trkpt>
      <trkpt lat="41.593567980" lon="2.414913280">
        <ele>188.08</ele>
        <time>2016-01-02T11:16:24Z</time>
      </trkpt>
      <trkpt lat="41.593611820" lon="2.415200610">
        <ele>188.08</ele>
        <time>2016-01-02T11:16:32Z</time>
      </trkpt>
      <trkpt lat="41.593566310" lon="2.415388780">
        <ele>188.08</ele>
        <time>2016-01-02T11:16:37Z</time>
      </trkpt>
      <trkpt lat="41.593541330" lon="2.415529010">
        <ele>188.56</ele>
        <time>2016-01-02T11:16:41Z</time>
      </trkpt>
      <trkpt lat="41.593496230" lon="2.415806960">
        <ele>189.52</ele>
        <time>2016-01-02T11:16:48Z</time>
      </trkpt>
      <trkpt lat="41.593475110" lon="2.416220860">
        <ele>189.52</ele>
        <time>2016-01-02T11:16:56Z</time>
      </trkpt>
      <trkpt lat="41.593472260" lon="2.416466030">
        <ele>189.52</ele>
        <time>2016-01-02T11:17:00Z</time>
      </trkpt>
      <trkpt lat="41.593406630" lon="2.416687810">
        <ele>189.52</ele>
        <time>2016-01-02T11:17:04Z</time>
      </trkpt>
      <trkpt lat="41.593371850" lon="2.416982350">
        <ele>189.52</ele>
        <time>2016-01-02T11:17:10Z</time>
      </trkpt>
      <trkpt lat="41.593497740" lon="2.417291140">
        <ele>189.52</ele>
        <time>2016-01-02T11:17:18Z</time>
      </trkpt>
      <trkpt lat="41.593610480" lon="2.417577130">
        <ele>190.96</ele>
        <time>2016-01-02T11:17:26Z</time>
      </trkpt>
      <trkpt lat="41.593549380" lon="2.417844600">
        <ele>191.44</ele>
        <time>2016-01-02T11:17:33Z</time>
      </trkpt>
      <trkpt lat="41.593475620" lon="2.418109720">
        <ele>193.36</ele>
        <time>2016-01-02T11:17:41Z</time>
      </trkpt>
      <trkpt lat="41.593499170" lon="2.418381880">
        <ele>194.80</ele>
        <time>2016-01-02T11:17:49Z</time>
      </trkpt>
      <trkpt lat="41.593536300" lon="2.418574750">
        <ele>196.25</ele>
        <time>2016-01-02T11:17:56Z</time>
      </trkpt>
      <trkpt lat="41.593531440" lon="2.418750430">
        <ele>197.69</ele>
        <time>2016-01-02T11:18:02Z</time>
      </trkpt>
      <trkpt lat="41.593479890" lon="2.418988900">
        <ele>199.13</ele>
        <time>2016-01-02T11:18:10Z</time>
      </trkpt>
      <trkpt lat="41.593408560" lon="2.419196770">
        <ele>201.05</ele>
        <time>2016-01-02T11:18:17Z</time>
      </trkpt>
      <trkpt lat="41.593363300" lon="2.419392480">
        <ele>201.05</ele>
        <time>2016-01-02T11:18:23Z</time>
      </trkpt>
      <trkpt lat="41.593392050" lon="2.419688370">
        <ele>201.05</ele>
        <time>2016-01-02T11:18:30Z</time>
      </trkpt>
      <trkpt lat="41.593403450" lon="2.419751060">
        <ele>201.05</ele>
        <time>2016-01-02T11:18:31Z</time>
      </trkpt>
      <trkpt lat="41.593457260" lon="2.419943850">
        <ele>198.65</ele>
        <time>2016-01-02T11:18:34Z</time>
      </trkpt>
      <trkpt lat="41.593481900" lon="2.420003110">
        <ele>198.17</ele>
        <time>2016-01-02T11:18:35Z</time>
      </trkpt>
      <trkpt lat="41.593587090" lon="2.420304940">
        <ele>197.69</ele>
        <time>2016-01-02T11:18:40Z</time>
      </trkpt>
      <trkpt lat="41.593591120" lon="2.420444160">
        <ele>195.28</ele>
        <time>2016-01-02T11:18:42Z</time>
      </trkpt>
      <trkpt lat="41.593615170" lon="2.420574840">
        <ele>194.32</ele>
        <time>2016-01-02T11:18:44Z</time>
      </trkpt>
      <trkpt lat="41.593637220" lon="2.420734430">
        <ele>192.88</ele>
        <time>2016-01-02T11:18:47Z</time>
      </trkpt>
      <trkpt lat="41.593730510" lon="2.420887730">
        <ele>190.48</ele>
        <time>2016-01-02T11:18:51Z</time>
      </trkpt>
      <trkpt lat="41.593766720" lon="2.420937350">
        <ele>190.00</ele>
        <time>2016-01-02T11:18:52Z</time>
      </trkpt>
      <trkpt lat="41.593809130" lon="2.421290060">
        <ele>186.15</ele>
        <time>2016-01-02T11:18:57Z</time>
      </trkpt>
      <trkpt lat="41.593869310" lon="2.421422410">
        <ele>184.23</ele>
        <time>2016-01-02T11:18:59Z</time>
      </trkpt>
      <trkpt lat="41.593953800" lon="2.421667420">
        <ele>182.31</ele>
        <time>2016-01-02T11:19:03Z</time>
      </trkpt>
      <trkpt lat="41.593994200" lon="2.421879140">
        <ele>178.46</ele>
        <time>2016-01-02T11:19:06Z</time>
      </trkpt>
      <trkpt lat="41.594100740" lon="2.422349450">
        <ele>173.17</ele>
        <time>2016-01-02T11:19:11Z</time>
      </trkpt>
      <trkpt lat="41.594191760" lon="2.422917580">
        <ele>170.77</ele>
        <time>2016-01-02T11:19:16Z</time>
      </trkpt>
      <trkpt lat="41.594326040" lon="2.423275230">
        <ele>168.85</ele>
        <time>2016-01-02T11:19:20Z</time>
      </trkpt>
      <trkpt lat="41.594377590" lon="2.423337930">
        <ele>168.85</ele>
        <time>2016-01-02T11:19:21Z</time>
      </trkpt>
      <trkpt lat="41.594595940" lon="2.423720310">
        <ele>168.85</ele>
        <time>2016-01-02T11:19:27Z</time>
      </trkpt>
      <trkpt lat="41.594593010" lon="2.423941850">
        <ele>168.37</ele>
        <time>2016-01-02T11:19:30Z</time>
      </trkpt>
      <trkpt lat="41.594595690" lon="2.424440990">
        <ele>168.37</ele>
        <time>2016-01-02T11:19:38Z</time>
      </trkpt>
      <trkpt lat="41.594629970" lon="2.424771990">
        <ele>168.37</ele>
        <time>2016-01-02T11:19:45Z</time>
      </trkpt>
      <trkpt lat="41.594642710" lon="2.424967120">
        <ele>168.37</ele>
        <time>2016-01-02T11:19:50Z</time>
      </trkpt>
      <trkpt lat="41.594651600" lon="2.425129390">
        <ele>169.81</ele>
        <time>2016-01-02T11:19:54Z</time>
      </trkpt>
      <trkpt lat="41.594719820" lon="2.425258140">
        <ele>170.77</ele>
        <time>2016-01-02T11:19:59Z</time>
      </trkpt>
      <trkpt lat="41.594856370" lon="2.425321760">
        <ele>171.25</ele>
        <time>2016-01-02T11:20:05Z</time>
      </trkpt>
      <trkpt lat="41.594876480" lon="2.425473550">
        <ele>171.25</ele>
        <time>2016-01-02T11:20:09Z</time>
      </trkpt>
      <trkpt lat="41.594832810" lon="2.425781590">
        <ele>171.25</ele>
        <time>2016-01-02T11:20:17Z</time>
      </trkpt>
      <trkpt lat="41.594838680" lon="2.426075960">
        <ele>171.73</ele>
        <time>2016-01-02T11:20:24Z</time>
      </trkpt>
      <trkpt lat="41.594841360" lon="2.426370000">
        <ele>171.73</ele>
        <time>2016-01-02T11:20:31Z</time>
      </trkpt>
      <trkpt lat="41.594830470" lon="2.426772330">
        <ele>172.69</ele>
        <time>2016-01-02T11:20:40Z</time>
      </trkpt>
      <trkpt lat="41.594769190" lon="2.426948520">
        <ele>173.66</ele>
        <time>2016-01-02T11:20:46Z</time>
      </trkpt>
      <trkpt lat="41.594674060" lon="2.427195370">
        <ele>173.66</ele>
        <time>2016-01-02T11:20:53Z</time>
      </trkpt>
      <trkpt lat="41.594526370" lon="2.427460820">
        <ele>173.66</ele>
        <time>2016-01-02T11:21:00Z</time>
      </trkpt>
      <trkpt lat="41.594472980" lon="2.427531060">
        <ele>173.66</ele>
        <time>2016-01-02T11:21:02Z</time>
      </trkpt>
      <trkpt lat="41.594397540" lon="2.427495690">
        <ele>171.73</ele>
        <time>2016-01-02T11:21:06Z</time>
      </trkpt>
      <trkpt lat="41.594303830" lon="2.427514720">
        <ele>170.29</ele>
        <time>2016-01-02T11:21:10Z</time>
      </trkpt>
      <trkpt lat="41.594273820" lon="2.427537010">
        <ele>170.29</ele>
        <time>2016-01-02T11:21:11Z</time>
      </trkpt>
      <trkpt lat="41.594063610" lon="2.427712360">
        <ele>170.29</ele>
        <time>2016-01-02T11:21:19Z</time>
      </trkpt>
      <trkpt lat="41.593841990" lon="2.427935490">
        <ele>170.29</ele>
        <time>2016-01-02T11:21:28Z</time>
      </trkpt>
      <trkpt lat="41.593714160" lon="2.427999020">
        <ele>170.29</ele>
        <time>2016-01-02T11:21:33Z</time>
      </trkpt>
      <trkpt lat="41.593527500" lon="2.428102620">
        <ele>171.25</ele>
        <time>2016-01-02T11:21:40Z</time>
      </trkpt>
      <trkpt lat="41.593402860" lon="2.428226590">
        <ele>171.73</ele>
        <time>2016-01-02T11:21:46Z</time>
      </trkpt>
      <trkpt lat="41.593338150" lon="2.428152490">
        <ele>172.69</ele>
        <time>2016-01-02T11:21:52Z</time>
      </trkpt>
      <trkpt lat="41.593373270" lon="2.427967840">
        <ele>172.69</ele>
        <time>2016-01-02T11:21:58Z</time>
      </trkpt>
      <trkpt lat="41.593398250" lon="2.427801130">
        <ele>172.69</ele>
        <time>2016-01-02T11:22:02Z</time>
      </trkpt>
      <trkpt lat="41.593406460" lon="2.427712360">
        <ele>172.21</ele>
        <time>2016-01-02T11:22:04Z</time>
      </trkpt>
      <trkpt lat="41.593345950" lon="2.427640700">
        <ele>172.69</ele>
        <time>2016-01-02T11:22:09Z</time>
      </trkpt>
      <trkpt lat="41.593196160" lon="2.427627370">
        <ele>172.69</ele>
        <time>2016-01-02T11:22:15Z</time>
      </trkpt>
      <trkpt lat="41.593159370" lon="2.427617980">
        <ele>172.69</ele>
        <time>2016-01-02T11:22:17Z</time>
      </trkpt>
      <trkpt lat="41.593066750" lon="2.427709010">
        <ele>172.69</ele>
        <time>2016-01-02T11:22:23Z</time>
      </trkpt>
      <trkpt lat="41.593021150" lon="2.427810930">
        <ele>173.17</ele>
        <time>2016-01-02T11:22:28Z</time>
      </trkpt>
      <trkpt lat="41.592969180" lon="2.427918810">
        <ele>173.17</ele>
        <time>2016-01-02T11:22:33Z</time>
      </trkpt>
      <trkpt lat="41.592951160" lon="2.427938840">
        <ele>173.17</ele>
        <time>2016-01-02T11:22:34Z</time>
      </trkpt>
      <trkpt lat="41.592926520" lon="2.427971190">
        <ele>173.17</ele>
        <time>2016-01-02T11:22:36Z</time>
      </trkpt>
      <trkpt lat="41.592912770" lon="2.428113850">
        <ele>173.17</ele>
        <time>2016-01-02T11:22:40Z</time>
      </trkpt>
      <trkpt lat="41.592829040" lon="2.428227930">
        <ele>173.66</ele>
        <time>2016-01-02T11:22:45Z</time>
      </trkpt>
      <trkpt lat="41.592607250" lon="2.428334880">
        <ele>176.06</ele>
        <time>2016-01-02T11:22:53Z</time>
      </trkpt>
      <trkpt lat="41.592441120" lon="2.428468830">
        <ele>176.06</ele>
        <time>2016-01-02T11:23:01Z</time>
      </trkpt>
      <trkpt lat="41.592412040" lon="2.428474360">
        <ele>177.02</ele>
        <time>2016-01-02T11:23:02Z</time>
      </trkpt>
      <trkpt lat="41.592234930" lon="2.428512920">
        <ele>177.50</ele>
        <time>2016-01-02T11:23:07Z</time>
      </trkpt>
      <trkpt lat="41.592115320" lon="2.428656160">
        <ele>177.98</ele>
        <time>2016-01-02T11:23:12Z</time>
      </trkpt>
      <trkpt lat="41.592088660" lon="2.428683490">
        <ele>177.98</ele>
        <time>2016-01-02T11:23:13Z</time>
      </trkpt>
      <trkpt lat="41.591923710" lon="2.428905270">
        <ele>177.02</ele>
        <time>2016-01-02T11:23:21Z</time>
      </trkpt>
      <trkpt lat="41.591909540" lon="2.428949360">
        <ele>177.02</ele>
        <time>2016-01-02T11:23:22Z</time>
      </trkpt>
      <trkpt lat="41.591762190" lon="2.429230580">
        <ele>177.02</ele>
        <time>2016-01-02T11:23:30Z</time>
      </trkpt>
      <trkpt lat="41.591724470" lon="2.429324370">
        <ele>175.58</ele>
        <time>2016-01-02T11:23:32Z</time>
      </trkpt>
      <trkpt lat="41.591560600" lon="2.429728040">
        <ele>174.14</ele>
        <time>2016-01-02T11:23:38Z</time>
      </trkpt>
      <trkpt lat="41.591497650" lon="2.430027690">
        <ele>174.14</ele>
        <time>2016-01-02T11:23:45Z</time>
      </trkpt>
      <trkpt lat="41.591523890" lon="2.430310500">
        <ele>174.14</ele>
        <time>2016-01-02T11:23:52Z</time>
      </trkpt>
      <trkpt lat="41.591522380" lon="2.430351650">
        <ele>174.14</ele>
        <time>2016-01-02T11:23:53Z</time>
      </trkpt>
      <trkpt lat="41.591520280" lon="2.430515770">
        <ele>174.14</ele>
        <time>2016-01-02T11:23:58Z</time>
      </trkpt>
      <trkpt lat="41.591506450" lon="2.430626660">
        <ele>175.58</ele>
        <time>2016-01-02T11:24:01Z</time>
      </trkpt>
      <trkpt lat="41.591455410" lon="2.430831850">
        <ele>176.54</ele>
        <time>2016-01-02T11:24:06Z</time>
      </trkpt>
      <trkpt lat="41.591476780" lon="2.430998650">
        <ele>176.54</ele>
        <time>2016-01-02T11:24:13Z</time>
      </trkpt>
      <trkpt lat="41.591389780" lon="2.431364690">
        <ele>177.50</ele>
        <time>2016-01-02T11:24:23Z</time>
      </trkpt>
      <trkpt lat="41.591390030" lon="2.431407860">
        <ele>177.50</ele>
        <time>2016-01-02T11:24:24Z</time>
      </trkpt>
      <trkpt lat="41.591498320" lon="2.431701480">
        <ele>178.46</ele>
        <time>2016-01-02T11:24:33Z</time>
      </trkpt>
      <trkpt lat="41.591609970" lon="2.431927030">
        <ele>178.94</ele>
        <time>2016-01-02T11:24:40Z</time>
      </trkpt>
      <trkpt lat="41.591789680" lon="2.432131550">
        <ele>179.42</ele>
        <time>2016-01-02T11:24:47Z</time>
      </trkpt>
      <trkpt lat="41.591990010" lon="2.432310340">
        <ele>179.90</ele>
        <time>2016-01-02T11:24:54Z</time>
      </trkpt>
      <trkpt lat="41.592129820" lon="2.432451070">
        <ele>179.90</ele>
        <time>2016-01-02T11:24:59Z</time>
      </trkpt>
      <trkpt lat="41.592322180" lon="2.432580650">
        <ele>180.87</ele>
        <time>2016-01-02T11:25:06Z</time>
      </trkpt>
      <trkpt lat="41.592536420" lon="2.432656510">
        <ele>182.31</ele>
        <time>2016-01-02T11:25:13Z</time>
      </trkpt>
      <trkpt lat="41.592695430" lon="2.432816020">
        <ele>182.79</ele>
        <time>2016-01-02T11:25:19Z</time>
      </trkpt>
      <trkpt lat="41.592956100" lon="2.432992210">
        <ele>183.75</ele>
        <time>2016-01-02T11:25:27Z</time>
      </trkpt>
      <trkpt lat="41.593225500" lon="2.433168140">
        <ele>184.23</ele>
        <time>2016-01-02T11:25:36Z</time>
      </trkpt>
      <trkpt lat="41.593427420" lon="2.433334440">
        <ele>184.23</ele>
        <time>2016-01-02T11:25:43Z</time>
      </trkpt>
      <trkpt lat="41.593607800" lon="2.433599640">
        <ele>185.19</ele>
        <time>2016-01-02T11:25:51Z</time>
      </trkpt>
      <trkpt lat="41.593773590" lon="2.433808770">
        <ele>185.67</ele>
        <time>2016-01-02T11:25:58Z</time>
      </trkpt>
      <trkpt lat="41.593959590" lon="2.434012370">
        <ele>188.08</ele>
        <time>2016-01-02T11:26:05Z</time>
      </trkpt>
      <trkpt lat="41.594144740" lon="2.434152340">
        <ele>189.04</ele>
        <time>2016-01-02T11:26:12Z</time>
      </trkpt>
      <trkpt lat="41.594309360" lon="2.434419390">
        <ele>189.04</ele>
        <time>2016-01-02T11:26:19Z</time>
      </trkpt>
      <trkpt lat="41.594359490" lon="2.434519560">
        <ele>189.04</ele>
        <time>2016-01-02T11:26:21Z</time>
      </trkpt>
      <trkpt lat="41.594419330" lon="2.434684180">
        <ele>189.04</ele>
        <time>2016-01-02T11:26:24Z</time>
      </trkpt>
      <trkpt lat="41.594458640" lon="2.434913340">
        <ele>187.59</ele>
        <time>2016-01-02T11:26:28Z</time>
      </trkpt>
      <trkpt lat="41.594432070" lon="2.435353300">
        <ele>185.67</ele>
        <time>2016-01-02T11:26:36Z</time>
      </trkpt>
      <trkpt lat="41.594310030" lon="2.435540470">
        <ele>185.67</ele>
        <time>2016-01-02T11:26:42Z</time>
      </trkpt>
      <trkpt lat="41.594264520" lon="2.435586070">
        <ele>185.67</ele>
        <time>2016-01-02T11:26:44Z</time>
      </trkpt>
      <trkpt lat="41.594273150" lon="2.435737030">
        <ele>185.67</ele>
        <time>2016-01-02T11:26:48Z</time>
      </trkpt>
      <trkpt lat="41.594369130" lon="2.435943310">
        <ele>185.67</ele>
        <time>2016-01-02T11:26:55Z</time>
      </trkpt>
      <trkpt lat="41.594401560" lon="2.436000970">
        <ele>187.11</ele>
        <time>2016-01-02T11:26:57Z</time>
      </trkpt>
      <trkpt lat="41.594468280" lon="2.436151510">
        <ele>187.11</ele>
        <time>2016-01-02T11:27:01Z</time>
      </trkpt>
      <trkpt lat="41.594549760" lon="2.436208680">
        <ele>187.11</ele>
        <time>2016-01-02T11:27:04Z</time>
      </trkpt>
      <trkpt lat="41.594602650" lon="2.436350580">
        <ele>185.67</ele>
        <time>2016-01-02T11:27:08Z</time>
      </trkpt>
      <trkpt lat="41.594674390" lon="2.436534150">
        <ele>185.67</ele>
        <time>2016-01-02T11:27:13Z</time>
      </trkpt>
      <trkpt lat="41.594802470" lon="2.436747550">
        <ele>187.11</ele>
        <time>2016-01-02T11:27:19Z</time>
      </trkpt>
      <trkpt lat="41.594903890" lon="2.436972770">
        <ele>187.59</ele>
        <time>2016-01-02T11:27:25Z</time>
      </trkpt>
      <trkpt lat="41.594938340" lon="2.437220960">
        <ele>187.59</ele>
        <time>2016-01-02T11:27:31Z</time>
      </trkpt>
      <trkpt lat="41.594998520" lon="2.437515000">
        <ele>188.56</ele>
        <time>2016-01-02T11:27:38Z</time>
      </trkpt>
      <trkpt lat="41.595033310" lon="2.437988660">
        <ele>189.04</ele>
        <time>2016-01-02T11:27:46Z</time>
      </trkpt>
      <trkpt lat="41.595115370" lon="2.438451930">
        <ele>189.04</ele>
        <time>2016-01-02T11:27:55Z</time>
      </trkpt>
      <trkpt lat="41.595278390" lon="2.438906640">
        <ele>189.52</ele>
        <time>2016-01-02T11:28:04Z</time>
      </trkpt>
      <trkpt lat="41.595540500" lon="2.439206880">
        <ele>190.00</ele>
        <time>2016-01-02T11:28:13Z</time>
      </trkpt>
      <trkpt lat="41.595771500" lon="2.439300090">
        <ele>190.48</ele>
        <time>2016-01-02T11:28:20Z</time>
      </trkpt>
      <trkpt lat="41.595863120" lon="2.439288190">
        <ele>190.96</ele>
        <time>2016-01-02T11:28:23Z</time>
      </trkpt>
      <trkpt lat="41.595929580" lon="2.439433110">
        <ele>191.44</ele>
        <time>2016-01-02T11:28:28Z</time>
      </trkpt>
      <trkpt lat="41.596010390" lon="2.439598070">
        <ele>191.44</ele>
        <time>2016-01-02T11:28:33Z</time>
      </trkpt>
      <trkpt lat="41.596206860" lon="2.439821110">
        <ele>191.92</ele>
        <time>2016-01-02T11:28:40Z</time>
      </trkpt>
      <trkpt lat="41.596477510" lon="2.440107600">
        <ele>191.92</ele>
        <time>2016-01-02T11:28:49Z</time>
      </trkpt>
      <trkpt lat="41.596696450" lon="2.440345980">
        <ele>192.88</ele>
        <time>2016-01-02T11:28:57Z</time>
      </trkpt>
      <trkpt lat="41.596875900" lon="2.440500300">
        <ele>192.88</ele>
        <time>2016-01-02T11:29:03Z</time>
      </trkpt>
      <trkpt lat="41.597044380" lon="2.440747980">
        <ele>194.32</ele>
        <time>2016-01-02T11:29:10Z</time>
      </trkpt>
      <trkpt lat="41.597173290" lon="2.441023660">
        <ele>194.32</ele>
        <time>2016-01-02T11:29:17Z</time>
      </trkpt>
      <trkpt lat="41.597261220" lon="2.441293310">
        <ele>194.80</ele>
        <time>2016-01-02T11:29:24Z</time>
      </trkpt>
      <trkpt lat="41.597358870" lon="2.441498660">
        <ele>195.28</ele>
        <time>2016-01-02T11:29:31Z</time>
      </trkpt>
      <trkpt lat="41.597444780" lon="2.441770740">
        <ele>195.77</ele>
        <time>2016-01-02T11:29:39Z</time>
      </trkpt>
      <trkpt lat="41.597497920" lon="2.442124960">
        <ele>196.73</ele>
        <time>2016-01-02T11:29:47Z</time>
      </trkpt>
      <trkpt lat="41.597556760" lon="2.442345240">
        <ele>198.65</ele>
        <time>2016-01-02T11:29:53Z</time>
      </trkpt>
      <trkpt lat="41.597632280" lon="2.442584120">
        <ele>199.13</ele>
        <time>2016-01-02T11:29:59Z</time>
      </trkpt>
      <trkpt lat="41.597716520" lon="2.442873880">
        <ele>199.13</ele>
        <time>2016-01-02T11:30:06Z</time>
      </trkpt>
      <trkpt lat="41.597761030" lon="2.443214690">
        <ele>199.13</ele>
        <time>2016-01-02T11:30:14Z</time>
      </trkpt>
      <trkpt lat="41.597810060" lon="2.443531610">
        <ele>199.13</ele>
        <time>2016-01-02T11:30:21Z</time>
      </trkpt>
      <trkpt lat="41.597877870" lon="2.443836130">
        <ele>199.13</ele>
        <time>2016-01-02T11:30:28Z</time>
      </trkpt>
      <trkpt lat="41.598000080" lon="2.443872590">
        <ele>200.57</ele>
        <time>2016-01-02T11:30:34Z</time>
      </trkpt>
      <trkpt lat="41.598119110" lon="2.443912650">
        <ele>202.98</ele>
        <time>2016-01-02T11:30:41Z</time>
      </trkpt>
      <trkpt lat="41.598283060" lon="2.443949450">
        <ele>205.38</ele>
        <time>2016-01-02T11:30:50Z</time>
      </trkpt>
      <trkpt lat="41.598387160" lon="2.444006700">
        <ele>206.82</ele>
        <time>2016-01-02T11:30:56Z</time>
      </trkpt>
      <trkpt lat="41.598521100" lon="2.444049030">
        <ele>208.26</ele>
        <time>2016-01-02T11:31:03Z</time>
      </trkpt>
      <trkpt lat="41.598693600" lon="2.444095460">
        <ele>211.15</ele>
        <time>2016-01-02T11:31:13Z</time>
      </trkpt>
      <trkpt lat="41.598832070" lon="2.444175510">
        <ele>213.07</ele>
        <time>2016-01-02T11:31:21Z</time>
      </trkpt>
      <trkpt lat="41.599008340" lon="2.444197890">
        <ele>215.47</ele>
        <time>2016-01-02T11:31:30Z</time>
      </trkpt>
      <trkpt lat="41.599090650" lon="2.444285310">
        <ele>216.43</ele>
        <time>2016-01-02T11:31:35Z</time>
      </trkpt>
      <trkpt lat="41.599195930" lon="2.444574150">
        <ele>216.91</ele>
        <time>2016-01-02T11:31:46Z</time>
      </trkpt>
      <trkpt lat="41.599298360" lon="2.444894510">
        <ele>217.40</ele>
        <time>2016-01-02T11:31:55Z</time>
      </trkpt>
      <trkpt lat="41.599438330" lon="2.445288880">
        <ele>218.84</ele>
        <time>2016-01-02T11:32:06Z</time>
      </trkpt>
      <trkpt lat="41.599550400" lon="2.445636560">
        <ele>219.80</ele>
        <time>2016-01-02T11:32:15Z</time>
      </trkpt>
      <trkpt lat="41.599664980" lon="2.445898660">
        <ele>219.80</ele>
        <time>2016-01-02T11:32:21Z</time>
      </trkpt>
      <trkpt lat="41.599832950" lon="2.446324630">
        <ele>218.36</ele>
        <time>2016-01-02T11:32:28Z</time>
      </trkpt>
      <trkpt lat="41.599896990" lon="2.446446670">
        <ele>218.36</ele>
        <time>2016-01-02T11:32:30Z</time>
      </trkpt>
      <trkpt lat="41.600152470" lon="2.446576250">
        <ele>216.91</ele>
        <time>2016-01-02T11:32:35Z</time>
      </trkpt>
      <trkpt lat="41.600575930" lon="2.446615820">
        <ele>216.91</ele>
        <time>2016-01-02T11:32:43Z</time>
      </trkpt>
      <trkpt lat="41.600786560" lon="2.446731150">
        <ele>216.91</ele>
        <time>2016-01-02T11:32:49Z</time>
      </trkpt>
      <trkpt lat="41.600837270" lon="2.446846320">
        <ele>218.36</ele>
        <time>2016-01-02T11:32:52Z</time>
      </trkpt>
      <trkpt lat="41.600891840" lon="2.447091240">
        <ele>218.36</ele>
        <time>2016-01-02T11:32:59Z</time>
      </trkpt>
      <trkpt lat="41.600833670" lon="2.447140020">
        <ele>219.32</ele>
        <time>2016-01-02T11:33:03Z</time>
      </trkpt>
      <trkpt lat="41.600740800" lon="2.447189720">
        <ele>219.80</ele>
        <time>2016-01-02T11:33:10Z</time>
      </trkpt>
      <trkpt lat="41.600775500" lon="2.447205900">
        <ele>219.80</ele>
        <time>2016-01-02T11:33:17Z</time>
      </trkpt>
      <trkpt lat="41.600779770" lon="2.447179160">
        <ele>220.28</ele>
        <time>2016-01-02T11:33:24Z</time>
      </trkpt>
      <trkpt lat="41.600793270" lon="2.447161230">
        <ele>220.28</ele>
        <time>2016-01-02T11:33:31Z</time>
      </trkpt>
      <trkpt lat="41.600806340" lon="2.447176650">
        <ele>219.80</ele>
        <time>2016-01-02T11:33:56Z</time>
      </trkpt>
      <trkpt lat="41.600799050" lon="2.447173210">
        <ele>219.80</ele>
        <time>2016-01-02T11:34:15Z</time>
      </trkpt>
      <trkpt lat="41.600789580" lon="2.447166930">
        <ele>219.80</ele>
        <time>2016-01-02T11:34:30Z</time>
      </trkpt>
      <trkpt lat="41.600793520" lon="2.447168690">
        <ele>219.80</ele>
        <time>2016-01-02T11:34:49Z</time>
      </trkpt>
      <trkpt lat="41.600800900" lon="2.447187380">
        <ele>219.80</ele>
        <time>2016-01-02T11:35:03Z</time>
      </trkpt>
      <trkpt lat="41.600805840" lon="2.447203720">
        <ele>219.80</ele>
        <time>2016-01-02T11:35:20Z</time>
      </trkpt>
      <trkpt lat="41.600827050" lon="2.447204730">
        <ele>219.80</ele>
        <time>2016-01-02T11:35:36Z</time>
      </trkpt>
      <trkpt lat="41.600827890" lon="2.447191650">
        <ele>219.80</ele>
        <time>2016-01-02T11:35:50Z</time>
      </trkpt>
      <trkpt lat="41.600828050" lon="2.447202210">
        <ele>219.80</ele>
        <time>2016-01-02T11:36:01Z</time>
      </trkpt>
      <trkpt lat="41.600837610" lon="2.447199870">
        <ele>219.80</ele>
        <time>2016-01-02T11:36:18Z</time>
      </trkpt>
      <trkpt lat="41.600824360" lon="2.447184700">
        <ele>220.28</ele>
        <time>2016-01-02T11:36:38Z</time>
      </trkpt>
      <trkpt lat="41.600835180" lon="2.447188470">
        <ele>220.28</ele>
        <time>2016-01-02T11:36:57Z</time>
      </trkpt>
      <trkpt lat="41.600832160" lon="2.447186120">
        <ele>220.28</ele>
        <time>2016-01-02T11:37:16Z</time>
      </trkpt>
      <trkpt lat="41.600827380" lon="2.447165170">
        <ele>220.28</ele>
        <time>2016-01-02T11:37:32Z</time>
      </trkpt>
      <trkpt lat="41.600822270" lon="2.447154270">
        <ele>220.28</ele>
        <time>2016-01-02T11:37:42Z</time>
      </trkpt>
      <trkpt lat="41.600814810" lon="2.447148490">
        <ele>220.28</ele>
        <time>2016-01-02T11:37:56Z</time>
      </trkpt>
      <trkpt lat="41.600817320" lon="2.447163740">
        <ele>220.28</ele>
        <time>2016-01-02T11:38:14Z</time>
      </trkpt>
      <trkpt lat="41.600817240" lon="2.447161140">
        <ele>220.28</ele>
        <time>2016-01-02T11:38:29Z</time>
      </trkpt>
      <trkpt lat="41.600816150" lon="2.447165920">
        <ele>220.28</ele>
        <time>2016-01-02T11:38:48Z</time>
      </trkpt>
      <trkpt lat="41.600831910" lon="2.447163410">
        <ele>220.28</ele>
        <time>2016-01-02T11:39:06Z</time>
      </trkpt>
      <trkpt lat="41.600791260" lon="2.447202720">
        <ele>220.76</ele>
        <time>2016-01-02T11:42:10Z</time>
      </trkpt>
      <trkpt lat="41.600792600" lon="2.447205400">
        <ele>220.76</ele>
        <time>2016-01-02T11:42:24Z</time>
      </trkpt>
      <trkpt lat="41.600793770" lon="2.447210760">
        <ele>220.76</ele>
        <time>2016-01-02T11:42:34Z</time>
      </trkpt>
      <trkpt lat="41.600786390" lon="2.447207580">
        <ele>221.24</ele>
        <time>2016-01-02T11:42:43Z</time>
      </trkpt>
      <trkpt lat="41.600776670" lon="2.447197600">
        <ele>221.24</ele>
        <time>2016-01-02T11:42:53Z</time>
      </trkpt>
      <trkpt lat="41.600774320" lon="2.447197440">
        <ele>221.24</ele>
        <time>2016-01-02T11:43:04Z</time>
      </trkpt>
      <trkpt lat="41.600716240" lon="2.447203220">
        <ele>221.72</ele>
        <time>2016-01-02T12:51:06Z</time>
      </trkpt>
      <trkpt lat="41.600721270" lon="2.447215460">
        <ele>222.68</ele>
        <time>2016-01-02T12:51:08Z</time>
      </trkpt>
      <trkpt lat="41.600739710" lon="2.447142870">
        <ele>222.68</ele>
        <time>2016-01-02T12:51:15Z</time>
      </trkpt>
      <trkpt lat="41.600792510" lon="2.447189220">
        <ele>224.12</ele>
        <time>2016-01-02T12:51:36Z</time>
      </trkpt>
      <trkpt lat="41.600800230" lon="2.447185280">
        <ele>224.12</ele>
        <time>2016-01-02T12:51:54Z</time>
      </trkpt>
      <trkpt lat="41.600784470" lon="2.447196770">
        <ele>224.12</ele>
        <time>2016-01-02T12:52:04Z</time>
      </trkpt>
      <trkpt lat="41.600780360" lon="2.447204640">
        <ele>224.12</ele>
        <time>2016-01-02T12:52:07Z</time>
      </trkpt>
      <trkpt lat="41.600735520" lon="2.447187460">
        <ele>224.12</ele>
        <time>2016-01-02T12:52:14Z</time>
      </trkpt>
      <trkpt lat="41.600741470" lon="2.447183190">
        <ele>224.12</ele>
        <time>2016-01-02T12:52:15Z</time>
      </trkpt>
      <trkpt lat="41.600801900" lon="2.447157710">
        <ele>224.12</ele>
        <time>2016-01-02T12:52:19Z</time>
      </trkpt>
      <trkpt lat="41.600844820" lon="2.447141030">
        <ele>222.68</ele>
        <time>2016-01-02T12:52:23Z</time>
      </trkpt>
      <trkpt lat="41.600887400" lon="2.447179000">
        <ele>222.68</ele>
        <time>2016-01-02T12:52:27Z</time>
      </trkpt>
      <trkpt lat="41.600925950" lon="2.447201380">
        <ele>222.68</ele>
        <time>2016-01-02T12:52:30Z</time>
      </trkpt>
      <trkpt lat="41.600965260" lon="2.447294750">
        <ele>222.68</ele>
        <time>2016-01-02T12:52:35Z</time>
      </trkpt>
      <trkpt lat="41.601003650" lon="2.447455260">
        <ele>222.68</ele>
        <time>2016-01-02T12:52:44Z</time>
      </trkpt>
      <trkpt lat="41.601050760" lon="2.447620720">
        <ele>223.64</ele>
        <time>2016-01-02T12:52:52Z</time>
      </trkpt>
      <trkpt lat="41.601181600" lon="2.447791630">
        <ele>223.64</ele>
        <time>2016-01-02T12:53:00Z</time>
      </trkpt>
      <trkpt lat="41.601273470" lon="2.447946280">
        <ele>222.68</ele>
        <time>2016-01-02T12:53:04Z</time>
      </trkpt>
      <trkpt lat="41.601475810" lon="2.448074350">
        <ele>220.28</ele>
        <time>2016-01-02T12:53:09Z</time>
      </trkpt>
      <trkpt lat="41.601514870" lon="2.448346590">
        <ele>219.80</ele>
        <time>2016-01-02T12:53:13Z</time>
      </trkpt>
      <trkpt lat="41.601530460" lon="2.448787320">
        <ele>219.32</ele>
        <time>2016-01-02T12:53:20Z</time>
      </trkpt>
      <trkpt lat="41.601638830" lon="2.449238350">
        <ele>220.76</ele>
        <time>2016-01-02T12:53:30Z</time>
      </trkpt>
      <trkpt lat="41.601720390" lon="2.449522830">
        <ele>221.24</ele>
        <time>2016-01-02T12:53:38Z</time>
      </trkpt>
      <trkpt lat="41.601797760" lon="2.449793980">
        <ele>221.24</ele>
        <time>2016-01-02T12:53:45Z</time>
      </trkpt>
      <trkpt lat="41.601818710" lon="2.450051730">
        <ele>221.24</ele>
        <time>2016-01-02T12:53:52Z</time>
      </trkpt>
      <trkpt lat="41.601904880" lon="2.450309390">
        <ele>221.72</ele>
        <time>2016-01-02T12:54:00Z</time>
      </trkpt>
      <trkpt lat="41.601957770" lon="2.450532180">
        <ele>222.68</ele>
        <time>2016-01-02T12:54:07Z</time>
      </trkpt>
      <trkpt lat="41.602017700" lon="2.450776680">
        <ele>223.64</ele>
        <time>2016-01-02T12:54:15Z</time>
      </trkpt>
      <trkpt lat="41.602078210" lon="2.451074490">
        <ele>224.12</ele>
        <time>2016-01-02T12:54:23Z</time>
      </trkpt>
      <trkpt lat="41.602242160" lon="2.451489220">
        <ele>222.68</ele>
        <time>2016-01-02T12:54:31Z</time>
      </trkpt>
      <trkpt lat="41.602317600" lon="2.451787790">
        <ele>222.68</ele>
        <time>2016-01-02T12:54:37Z</time>
      </trkpt>
      <trkpt lat="41.602364460" lon="2.451925750">
        <ele>222.20</ele>
        <time>2016-01-02T12:54:40Z</time>
      </trkpt>
      <trkpt lat="41.602511890" lon="2.452135890">
        <ele>220.76</ele>
        <time>2016-01-02T12:54:45Z</time>
      </trkpt>
      <trkpt lat="41.602694200" lon="2.452358680">
        <ele>219.32</ele>
        <time>2016-01-02T12:54:52Z</time>
      </trkpt>
      <trkpt lat="41.602796290" lon="2.452566630">
        <ele>219.80</ele>
        <time>2016-01-02T12:54:58Z</time>
      </trkpt>
      <trkpt lat="41.602916570" lon="2.452771230">
        <ele>218.84</ele>
        <time>2016-01-02T12:55:04Z</time>
      </trkpt>
      <trkpt lat="41.603090580" lon="2.452948090">
        <ele>218.36</ele>
        <time>2016-01-02T12:55:10Z</time>
      </trkpt>
      <trkpt lat="41.603225190" lon="2.452970390">
        <ele>219.80</ele>
        <time>2016-01-02T12:55:15Z</time>
      </trkpt>
      <trkpt lat="41.603379500" lon="2.452971140">
        <ele>221.72</ele>
        <time>2016-01-02T12:55:22Z</time>
      </trkpt>
      <trkpt lat="41.603506660" lon="2.452980950">
        <ele>223.16</ele>
        <time>2016-01-02T12:55:28Z</time>
      </trkpt>
      <trkpt lat="41.603642360" lon="2.453042390">
        <ele>223.64</ele>
        <time>2016-01-02T12:55:36Z</time>
      </trkpt>
      <trkpt lat="41.603798930" lon="2.453157890">
        <ele>224.12</ele>
        <time>2016-01-02T12:55:43Z</time>
      </trkpt>
      <trkpt lat="41.603897170" lon="2.453300800">
        <ele>224.61</ele>
        <time>2016-01-02T12:55:49Z</time>
      </trkpt>
      <trkpt lat="41.603984170" lon="2.453534740">
        <ele>225.09</ele>
        <time>2016-01-02T12:55:57Z</time>
      </trkpt>
      <trkpt lat="41.604035970" lon="2.453762060">
        <ele>225.09</ele>
        <time>2016-01-02T12:56:05Z</time>
      </trkpt>
      <trkpt lat="41.604020470" lon="2.453971440">
        <ele>225.09</ele>
        <time>2016-01-02T12:56:11Z</time>
      </trkpt>
      <trkpt lat="41.603968580" lon="2.454190710">
        <ele>226.53</ele>
        <time>2016-01-02T12:56:17Z</time>
      </trkpt>
      <trkpt lat="41.603958440" lon="2.454440320">
        <ele>228.45</ele>
        <time>2016-01-02T12:56:25Z</time>
      </trkpt>
      <trkpt lat="41.603987110" lon="2.454673340">
        <ele>228.93</ele>
        <time>2016-01-02T12:56:32Z</time>
      </trkpt>
      <trkpt lat="41.604011000" lon="2.454842230">
        <ele>228.93</ele>
        <time>2016-01-02T12:56:37Z</time>
      </trkpt>
      <trkpt lat="41.604096240" lon="2.455060160">
        <ele>228.93</ele>
        <time>2016-01-02T12:56:44Z</time>
      </trkpt>
      <trkpt lat="41.604107050" lon="2.455101570">
        <ele>228.93</ele>
        <time>2016-01-02T12:56:45Z</time>
      </trkpt>
      <trkpt lat="41.604194060" lon="2.455342050">
        <ele>229.41</ele>
        <time>2016-01-02T12:56:52Z</time>
      </trkpt>
      <trkpt lat="41.604363710" lon="2.455593670">
        <ele>229.41</ele>
        <time>2016-01-02T12:56:59Z</time>
      </trkpt>
      <trkpt lat="41.604491280" lon="2.455741360">
        <ele>229.89</ele>
        <time>2016-01-02T12:57:05Z</time>
      </trkpt>
      <trkpt lat="41.604614240" lon="2.455830380">
        <ele>231.33</ele>
        <time>2016-01-02T12:57:11Z</time>
      </trkpt>
      <trkpt lat="41.604647180" lon="2.455851420">
        <ele>231.81</ele>
        <time>2016-01-02T12:57:13Z</time>
      </trkpt>
      <trkpt lat="41.604742400" lon="2.455892650">
        <ele>231.81</ele>
        <time>2016-01-02T12:57:19Z</time>
      </trkpt>
      <trkpt lat="41.604849100" lon="2.455974290">
        <ele>233.26</ele>
        <time>2016-01-02T12:57:25Z</time>
      </trkpt>
      <trkpt lat="41.604927310" lon="2.456061800">
        <ele>234.70</ele>
        <time>2016-01-02T12:57:29Z</time>
      </trkpt>
      <trkpt lat="41.604963260" lon="2.456104630">
        <ele>235.18</ele>
        <time>2016-01-02T12:57:32Z</time>
      </trkpt>
      <trkpt lat="41.605025460" lon="2.456228940">
        <ele>236.62</ele>
        <time>2016-01-02T12:57:38Z</time>
      </trkpt>
      <trkpt lat="41.605060410" lon="2.456337820">
        <ele>238.06</ele>
        <time>2016-01-02T12:57:42Z</time>
      </trkpt>
      <trkpt lat="41.605137690" lon="2.456479810">
        <ele>239.51</ele>
        <time>2016-01-02T12:57:48Z</time>
      </trkpt>
      <trkpt lat="41.605188990" lon="2.456567820">
        <ele>240.47</ele>
        <time>2016-01-02T12:57:52Z</time>
      </trkpt>
      <trkpt lat="41.605218160" lon="2.456658170">
        <ele>240.47</ele>
        <time>2016-01-02T12:57:56Z</time>
      </trkpt>
      <trkpt lat="41.605235010" lon="2.456893960">
        <ele>240.47</ele>
        <time>2016-01-02T12:58:05Z</time>
      </trkpt>
      <trkpt lat="41.605230230" lon="2.457060090">
        <ele>240.95</ele>
        <time>2016-01-02T12:58:11Z</time>
      </trkpt>
      <trkpt lat="41.605241710" lon="2.457225130">
        <ele>241.43</ele>
        <time>2016-01-02T12:58:17Z</time>
      </trkpt>
      <trkpt lat="41.605251940" lon="2.457426290">
        <ele>241.43</ele>
        <time>2016-01-02T12:58:23Z</time>
      </trkpt>
      <trkpt lat="41.605273810" lon="2.457584630">
        <ele>241.91</ele>
        <time>2016-01-02T12:58:28Z</time>
      </trkpt>
      <trkpt lat="41.605330560" lon="2.457814370">
        <ele>241.91</ele>
        <time>2016-01-02T12:58:36Z</time>
      </trkpt>
      <trkpt lat="41.605356290" lon="2.458027780">
        <ele>241.91</ele>
        <time>2016-01-02T12:58:43Z</time>
      </trkpt>
      <trkpt lat="41.605395270" lon="2.458254840">
        <ele>242.39</ele>
        <time>2016-01-02T12:58:50Z</time>
      </trkpt>
      <trkpt lat="41.605426370" lon="2.458437480">
        <ele>242.87</ele>
        <time>2016-01-02T12:58:57Z</time>
      </trkpt>
      <trkpt lat="41.605417980" lon="2.458643850">
        <ele>242.87</ele>
        <time>2016-01-02T12:59:04Z</time>
      </trkpt>
      <trkpt lat="41.605442290" lon="2.458874770">
        <ele>243.35</ele>
        <time>2016-01-02T12:59:12Z</time>
      </trkpt>
      <trkpt lat="41.605506500" lon="2.459098650">
        <ele>243.83</ele>
        <time>2016-01-02T12:59:19Z</time>
      </trkpt>
      <trkpt lat="41.605532310" lon="2.459374250">
        <ele>244.31</ele>
        <time>2016-01-02T12:59:26Z</time>
      </trkpt>
      <trkpt lat="41.605550170" lon="2.459451860">
        <ele>244.79</ele>
        <time>2016-01-02T12:59:28Z</time>
      </trkpt>
      <trkpt lat="41.605622000" lon="2.459747490">
        <ele>245.75</ele>
        <time>2016-01-02T12:59:37Z</time>
      </trkpt>
      <trkpt lat="41.605691150" lon="2.459999620">
        <ele>247.20</ele>
        <time>2016-01-02T12:59:45Z</time>
      </trkpt>
      <trkpt lat="41.605732140" lon="2.460114950">
        <ele>247.68</ele>
        <time>2016-01-02T12:59:49Z</time>
      </trkpt>
      <trkpt lat="41.605836580" lon="2.460378230">
        <ele>248.64</ele>
        <time>2016-01-02T12:59:56Z</time>
      </trkpt>
      <trkpt lat="41.605942270" lon="2.460641250">
        <ele>249.60</ele>
        <time>2016-01-02T13:00:03Z</time>
      </trkpt>
      <trkpt lat="41.606064650" lon="2.460883070">
        <ele>252.00</ele>
        <time>2016-01-02T13:00:10Z</time>
      </trkpt>
      <trkpt lat="41.606156680" lon="2.461097150">
        <ele>253.44</ele>
        <time>2016-01-02T13:00:17Z</time>
      </trkpt>
      <trkpt lat="41.606257680" lon="2.461333520">
        <ele>255.85</ele>
        <time>2016-01-02T13:00:25Z</time>
      </trkpt>
      <trkpt lat="41.606380390" lon="2.461498390">
        <ele>256.81</ele>
        <time>2016-01-02T13:00:31Z</time>
      </trkpt>
      <trkpt lat="41.606594050" lon="2.461648680">
        <ele>258.25</ele>
        <time>2016-01-02T13:00:37Z</time>
      </trkpt>
      <trkpt lat="41.606775010" lon="2.461795780">
        <ele>259.21</ele>
        <time>2016-01-02T13:00:43Z</time>
      </trkpt>
      <trkpt lat="41.606954050" lon="2.461919490">
        <ele>259.69</ele>
        <time>2016-01-02T13:00:49Z</time>
      </trkpt>
      <trkpt lat="41.607177930" lon="2.462136500">
        <ele>261.14</ele>
        <time>2016-01-02T13:00:57Z</time>
      </trkpt>
      <trkpt lat="41.607411700" lon="2.462433890">
        <ele>262.58</ele>
        <time>2016-01-02T13:01:06Z</time>
      </trkpt>
      <trkpt lat="41.607608340" lon="2.462688030">
        <ele>263.06</ele>
        <time>2016-01-02T13:01:14Z</time>
      </trkpt>
      <trkpt lat="41.607696100" lon="2.462937900">
        <ele>264.50</ele>
        <time>2016-01-02T13:01:21Z</time>
      </trkpt>
      <trkpt lat="41.607716890" lon="2.463181560">
        <ele>264.98</ele>
        <time>2016-01-02T13:01:28Z</time>
      </trkpt>
      <trkpt lat="41.607690570" lon="2.463480040">
        <ele>265.46</ele>
        <time>2016-01-02T13:01:36Z</time>
      </trkpt>
      <trkpt lat="41.607678000" lon="2.463528900">
        <ele>265.46</ele>
        <time>2016-01-02T13:01:37Z</time>
      </trkpt>
      <trkpt lat="41.607617650" lon="2.463795950">
        <ele>264.50</ele>
        <time>2016-01-02T13:01:42Z</time>
      </trkpt>
      <trkpt lat="41.607612200" lon="2.463960240">
        <ele>264.98</ele>
        <time>2016-01-02T13:01:46Z</time>
      </trkpt>
      <trkpt lat="41.607775310" lon="2.464311190">
        <ele>265.46</ele>
        <time>2016-01-02T13:01:54Z</time>
      </trkpt>
      <trkpt lat="41.607823170" lon="2.464442030">
        <ele>266.90</ele>
        <time>2016-01-02T13:01:59Z</time>
      </trkpt>
      <trkpt lat="41.607888050" lon="2.464646460">
        <ele>267.86</ele>
        <time>2016-01-02T13:02:06Z</time>
      </trkpt>
      <trkpt lat="41.607940010" lon="2.464872610">
        <ele>268.35</ele>
        <time>2016-01-02T13:02:12Z</time>
      </trkpt>
      <trkpt lat="41.608049310" lon="2.465151810">
        <ele>268.83</ele>
        <time>2016-01-02T13:02:19Z</time>
      </trkpt>
      <trkpt lat="41.608160790" lon="2.465341320">
        <ele>269.31</ele>
        <time>2016-01-02T13:02:24Z</time>
      </trkpt>
      <trkpt lat="41.608241340" lon="2.465549030">
        <ele>270.27</ele>
        <time>2016-01-02T13:02:30Z</time>
      </trkpt>
      <trkpt lat="41.608332540" lon="2.465768300">
        <ele>272.19</ele>
        <time>2016-01-02T13:02:36Z</time>
      </trkpt>
      <trkpt lat="41.608530690" lon="2.466113550">
        <ele>272.19</ele>
        <time>2016-01-02T13:02:44Z</time>
      </trkpt>
      <trkpt lat="41.608558260" lon="2.466156460">
        <ele>272.67</ele>
        <time>2016-01-02T13:02:45Z</time>
      </trkpt>
      <trkpt lat="41.608738470" lon="2.466353270">
        <ele>272.67</ele>
        <time>2016-01-02T13:02:51Z</time>
      </trkpt>
      <trkpt lat="41.608879290" lon="2.466613610">
        <ele>273.63</ele>
        <time>2016-01-02T13:02:57Z</time>
      </trkpt>
      <trkpt lat="41.608943240" lon="2.466860710">
        <ele>275.07</ele>
        <time>2016-01-02T13:03:04Z</time>
      </trkpt>
      <trkpt lat="41.608987500" lon="2.467079310">
        <ele>276.04</ele>
        <time>2016-01-02T13:03:10Z</time>
      </trkpt>
      <trkpt lat="41.609016670" lon="2.467397070">
        <ele>277.00</ele>
        <time>2016-01-02T13:03:18Z</time>
      </trkpt>
      <trkpt lat="41.609079280" lon="2.467852120">
        <ele>279.40</ele>
        <time>2016-01-02T13:03:27Z</time>
      </trkpt>
      <trkpt lat="41.609063190" lon="2.468199890">
        <ele>280.84</ele>
        <time>2016-01-02T13:03:35Z</time>
      </trkpt>
      <trkpt lat="41.608959500" lon="2.468618650">
        <ele>280.84</ele>
        <time>2016-01-02T13:03:45Z</time>
      </trkpt>
      <trkpt lat="41.608902340" lon="2.468778570">
        <ele>280.84</ele>
        <time>2016-01-02T13:03:49Z</time>
      </trkpt>
      <trkpt lat="41.608922210" lon="2.468936150">
        <ele>280.84</ele>
        <time>2016-01-02T13:03:53Z</time>
      </trkpt>
      <trkpt lat="41.609007530" lon="2.469224240">
        <ele>280.84</ele>
        <time>2016-01-02T13:04:00Z</time>
      </trkpt>
      <trkpt lat="41.609143910" lon="2.469494300">
        <ele>280.84</ele>
        <time>2016-01-02T13:04:07Z</time>
      </trkpt>
      <trkpt lat="41.609227890" lon="2.469740480">
        <ele>282.28</ele>
        <time>2016-01-02T13:04:15Z</time>
      </trkpt>
      <trkpt lat="41.609273490" lon="2.470018680">
        <ele>283.25</ele>
        <time>2016-01-02T13:04:23Z</time>
      </trkpt>
      <trkpt lat="41.609314480" lon="2.470305670">
        <ele>284.21</ele>
        <time>2016-01-02T13:04:31Z</time>
      </trkpt>
      <trkpt lat="41.609390590" lon="2.470644050">
        <ele>284.69</ele>
        <time>2016-01-02T13:04:40Z</time>
      </trkpt>
      <trkpt lat="41.609436770" lon="2.470847140">
        <ele>284.69</ele>
        <time>2016-01-02T13:04:46Z</time>
      </trkpt>
      <trkpt lat="41.609474490" lon="2.471046630">
        <ele>284.69</ele>
        <time>2016-01-02T13:04:52Z</time>
      </trkpt>
      <trkpt lat="41.609533500" lon="2.471313600">
        <ele>285.17</ele>
        <time>2016-01-02T13:05:00Z</time>
      </trkpt>
      <trkpt lat="41.609596360" lon="2.471571760">
        <ele>285.65</ele>
        <time>2016-01-02T13:05:08Z</time>
      </trkpt>
      <trkpt lat="41.609748490" lon="2.471800670">
        <ele>286.13</ele>
        <time>2016-01-02T13:05:14Z</time>
      </trkpt>
      <trkpt lat="41.609939940" lon="2.471949280">
        <ele>286.13</ele>
        <time>2016-01-02T13:05:21Z</time>
      </trkpt>
      <trkpt lat="41.610135150" lon="2.472079870">
        <ele>286.61</ele>
        <time>2016-01-02T13:05:29Z</time>
      </trkpt>
      <trkpt lat="41.610371270" lon="2.472199140">
        <ele>287.57</ele>
        <time>2016-01-02T13:05:38Z</time>
      </trkpt>
      <trkpt lat="41.610596740" lon="2.472337860">
        <ele>288.53</ele>
        <time>2016-01-02T13:05:47Z</time>
      </trkpt>
      <trkpt lat="41.610772680" lon="2.472408190">
        <ele>289.49</ele>
        <time>2016-01-02T13:05:54Z</time>
      </trkpt>
      <trkpt lat="41.610838140" lon="2.472434010">
        <ele>290.46</ele>
        <time>2016-01-02T13:05:58Z</time>
      </trkpt>
      <trkpt lat="41.610992280" lon="2.472505590">
        <ele>292.86</ele>
        <time>2016-01-02T13:06:07Z</time>
      </trkpt>
      <trkpt lat="41.611137540" lon="2.472589070">
        <ele>294.30</ele>
        <time>2016-01-02T13:06:15Z</time>
      </trkpt>
      <trkpt lat="41.611197140" lon="2.472640370">
        <ele>294.78</ele>
        <time>2016-01-02T13:06:19Z</time>
      </trkpt>
      <trkpt lat="41.611285650" lon="2.472823340">
        <ele>296.22</ele>
        <time>2016-01-02T13:06:29Z</time>
      </trkpt>
      <trkpt lat="41.611312140" lon="2.472925180">
        <ele>297.67</ele>
        <time>2016-01-02T13:06:35Z</time>
      </trkpt>
      <trkpt lat="41.611417330" lon="2.473120570">
        <ele>298.63</ele>
        <time>2016-01-02T13:06:44Z</time>
      </trkpt>
      <trkpt lat="41.611459320" lon="2.473184690">
        <ele>299.11</ele>
        <time>2016-01-02T13:06:48Z</time>
      </trkpt>
      <trkpt lat="41.611538700" lon="2.473299350">
        <ele>301.51</ele>
        <time>2016-01-02T13:06:56Z</time>
      </trkpt>
      <trkpt lat="41.611625370" lon="2.473370600">
        <ele>302.95</ele>
        <time>2016-01-02T13:07:03Z</time>
      </trkpt>
      <trkpt lat="41.611696200" lon="2.473439830">
        <ele>304.88</ele>
        <time>2016-01-02T13:07:10Z</time>
      </trkpt>
      <trkpt lat="41.611808850" lon="2.473466740">
        <ele>306.32</ele>
        <time>2016-01-02T13:07:18Z</time>
      </trkpt>
      <trkpt lat="41.611869620" lon="2.473495410">
        <ele>307.28</ele>
        <time>2016-01-02T13:07:23Z</time>
      </trkpt>
      <trkpt lat="41.611919070" lon="2.473511160">
        <ele>307.76</ele>
        <time>2016-01-02T13:07:27Z</time>
      </trkpt>
      <trkpt lat="41.612050420" lon="2.473515610">
        <ele>309.20</ele>
        <time>2016-01-02T13:07:36Z</time>
      </trkpt>
      <trkpt lat="41.612109840" lon="2.473537820">
        <ele>310.16</ele>
        <time>2016-01-02T13:07:41Z</time>
      </trkpt>
      <trkpt lat="41.612175470" lon="2.473619630">
        <ele>311.12</ele>
        <time>2016-01-02T13:07:48Z</time>
      </trkpt>
      <trkpt lat="41.612236660" lon="2.473773770">
        <ele>312.09</ele>
        <time>2016-01-02T13:07:57Z</time>
      </trkpt>
      <trkpt lat="41.612273040" lon="2.473977870">
        <ele>312.57</ele>
        <time>2016-01-02T13:08:06Z</time>
      </trkpt>
      <trkpt lat="41.612360460" lon="2.474192950">
        <ele>313.05</ele>
        <time>2016-01-02T13:08:13Z</time>
      </trkpt>
      <trkpt lat="41.612374040" lon="2.474229580">
        <ele>313.05</ele>
        <time>2016-01-02T13:08:14Z</time>
      </trkpt>
      <trkpt lat="41.612359290" lon="2.474524370">
        <ele>313.05</ele>
        <time>2016-01-02T13:08:22Z</time>
      </trkpt>
      <trkpt lat="41.612352670" lon="2.474764760">
        <ele>313.05</ele>
        <time>2016-01-02T13:08:29Z</time>
      </trkpt>
      <trkpt lat="41.612366660" lon="2.475053770">
        <ele>313.05</ele>
        <time>2016-01-02T13:08:36Z</time>
      </trkpt>
      <trkpt lat="41.612368260" lon="2.475248900">
        <ele>313.05</ele>
        <time>2016-01-02T13:08:42Z</time>
      </trkpt>
      <trkpt lat="41.612411090" lon="2.475376890">
        <ele>313.53</ele>
        <time>2016-01-02T13:08:48Z</time>
      </trkpt>
      <trkpt lat="41.612456690" lon="2.475495910">
        <ele>314.49</ele>
        <time>2016-01-02T13:08:54Z</time>
      </trkpt>
      <trkpt lat="41.612559620" lon="2.475661210">
        <ele>314.49</ele>
        <time>2016-01-02T13:09:00Z</time>
      </trkpt>
      <trkpt lat="41.612610660" lon="2.475887940">
        <ele>314.49</ele>
        <time>2016-01-02T13:09:06Z</time>
      </trkpt>
      <trkpt lat="41.612657270" lon="2.476027830">
        <ele>314.49</ele>
        <time>2016-01-02T13:09:12Z</time>
      </trkpt>
      <trkpt lat="41.612707310" lon="2.476150710">
        <ele>314.49</ele>
        <time>2016-01-02T13:09:16Z</time>
      </trkpt>
      <trkpt lat="41.612803280" lon="2.476361260">
        <ele>314.97</ele>
        <time>2016-01-02T13:09:23Z</time>
      </trkpt>
      <trkpt lat="41.612837140" lon="2.476434440">
        <ele>315.45</ele>
        <time>2016-01-02T13:09:26Z</time>
      </trkpt>
      <trkpt lat="41.612936210" lon="2.476640630">
        <ele>316.41</ele>
        <time>2016-01-02T13:09:32Z</time>
      </trkpt>
      <trkpt lat="41.612950300" lon="2.476678350">
        <ele>316.41</ele>
        <time>2016-01-02T13:09:33Z</time>
      </trkpt>
      <trkpt lat="41.613031520" lon="2.476900130">
        <ele>317.37</ele>
        <time>2016-01-02T13:09:41Z</time>
      </trkpt>
      <trkpt lat="41.613116170" lon="2.477064420">
        <ele>318.81</ele>
        <time>2016-01-02T13:09:48Z</time>
      </trkpt>
      <trkpt lat="41.613150290" lon="2.477229630">
        <ele>320.74</ele>
        <time>2016-01-02T13:09:54Z</time>
      </trkpt>
      <trkpt lat="41.613122880" lon="2.477436330">
        <ele>322.66</ele>
        <time>2016-01-02T13:10:01Z</time>
      </trkpt>
      <trkpt lat="41.613088600" lon="2.477656100">
        <ele>323.62</ele>
        <time>2016-01-02T13:10:08Z</time>
      </trkpt>
      <trkpt lat="41.613025820" lon="2.477879980">
        <ele>326.02</ele>
        <time>2016-01-02T13:10:17Z</time>
      </trkpt>
      <trkpt lat="41.612974020" lon="2.477986930">
        <ele>327.47</ele>
        <time>2016-01-02T13:10:23Z</time>
      </trkpt>
      <trkpt lat="41.612924650" lon="2.478138480">
        <ele>327.47</ele>
        <time>2016-01-02T13:10:29Z</time>
      </trkpt>
      <trkpt lat="41.612872680" lon="2.478330760">
        <ele>327.95</ele>
        <time>2016-01-02T13:10:36Z</time>
      </trkpt>
      <trkpt lat="41.612863710" lon="2.478496890">
        <ele>328.91</ele>
        <time>2016-01-02T13:10:43Z</time>
      </trkpt>
      <trkpt lat="41.612851220" lon="2.478672240">
        <ele>328.91</ele>
        <time>2016-01-02T13:10:49Z</time>
      </trkpt>
      <trkpt lat="41.612849970" lon="2.478889410">
        <ele>328.91</ele>
        <time>2016-01-02T13:10:56Z</time>
      </trkpt>
      <trkpt lat="41.612804370" lon="2.479183780">
        <ele>329.39</ele>
        <time>2016-01-02T13:11:05Z</time>
      </trkpt>
      <trkpt lat="41.612767490" lon="2.479486120">
        <ele>330.35</ele>
        <time>2016-01-02T13:11:15Z</time>
      </trkpt>
      <trkpt lat="41.612758600" lon="2.479645790">
        <ele>331.31</ele>
        <time>2016-01-02T13:11:22Z</time>
      </trkpt>
      <trkpt lat="41.612757760" lon="2.479691390">
        <ele>331.79</ele>
        <time>2016-01-02T13:11:25Z</time>
      </trkpt>
      <trkpt lat="41.612770000" lon="2.479719720">
        <ele>332.27</ele>
        <time>2016-01-02T13:11:27Z</time>
      </trkpt>
      <trkpt lat="41.612799340" lon="2.479785440">
        <ele>333.23</ele>
        <time>2016-01-02T13:11:31Z</time>
      </trkpt>
      <trkpt lat="41.612824230" lon="2.479811590">
        <ele>333.71</ele>
        <time>2016-01-02T13:11:33Z</time>
      </trkpt>
      <trkpt lat="41.612833450" lon="2.479865400">
        <ele>334.20</ele>
        <time>2016-01-02T13:11:36Z</time>
      </trkpt>
      <trkpt lat="41.612864890" lon="2.480000940">
        <ele>334.68</ele>
        <time>2016-01-02T13:11:42Z</time>
      </trkpt>
      <trkpt lat="41.612872010" lon="2.480019120">
        <ele>335.16</ele>
        <time>2016-01-02T13:11:43Z</time>
      </trkpt>
      <trkpt lat="41.612888770" lon="2.480070250">
        <ele>335.64</ele>
        <time>2016-01-02T13:11:46Z</time>
      </trkpt>
      <trkpt lat="41.612893720" lon="2.480191120">
        <ele>337.08</ele>
        <time>2016-01-02T13:11:54Z</time>
      </trkpt>
      <trkpt lat="41.612897830" lon="2.480368900">
        <ele>338.52</ele>
        <time>2016-01-02T13:12:01Z</time>
      </trkpt>
      <trkpt lat="41.612860110" lon="2.480544750">
        <ele>340.44</ele>
        <time>2016-01-02T13:12:08Z</time>
      </trkpt>
      <trkpt lat="41.612838400" lon="2.480746420">
        <ele>340.92</ele>
        <time>2016-01-02T13:12:15Z</time>
      </trkpt>
      <trkpt lat="41.612864800" lon="2.480979940">
        <ele>341.41</ele>
        <time>2016-01-02T13:12:22Z</time>
      </trkpt>
      <trkpt lat="41.612854070" lon="2.481140460">
        <ele>341.41</ele>
        <time>2016-01-02T13:12:25Z</time>
      </trkpt>
      <trkpt lat="41.612895650" lon="2.481374390">
        <ele>341.41</ele>
        <time>2016-01-02T13:12:30Z</time>
      </trkpt>
      <trkpt lat="41.612952890" lon="2.481498700">
        <ele>339.48</ele>
        <time>2016-01-02T13:12:33Z</time>
      </trkpt>
      <trkpt lat="41.613042410" lon="2.481741440">
        <ele>337.08</ele>
        <time>2016-01-02T13:12:39Z</time>
      </trkpt>
      <trkpt lat="41.613032860" lon="2.482050560">
        <ele>335.16</ele>
        <time>2016-01-02T13:12:44Z</time>
      </trkpt>
      <trkpt lat="41.613060600" lon="2.482340660">
        <ele>337.08</ele>
        <time>2016-01-02T13:12:49Z</time>
      </trkpt>
      <trkpt lat="41.613137130" lon="2.482676860">
        <ele>339.48</ele>
        <time>2016-01-02T13:13:00Z</time>
      </trkpt>
      <trkpt lat="41.613132180" lon="2.482779290">
        <ele>339.96</ele>
        <time>2016-01-02T13:13:03Z</time>
      </trkpt>
      <trkpt lat="41.613047360" lon="2.483050940">
        <ele>340.92</ele>
        <time>2016-01-02T13:13:12Z</time>
      </trkpt>
      <trkpt lat="41.613000590" lon="2.483167620">
        <ele>341.89</ele>
        <time>2016-01-02T13:13:17Z</time>
      </trkpt>
      <trkpt lat="41.612922050" lon="2.483338270">
        <ele>343.33</ele>
        <time>2016-01-02T13:13:25Z</time>
      </trkpt>
      <trkpt lat="41.612888190" lon="2.483436260">
        <ele>344.77</ele>
        <time>2016-01-02T13:13:31Z</time>
      </trkpt>
      <trkpt lat="41.612858930" lon="2.483564920">
        <ele>346.69</ele>
        <time>2016-01-02T13:13:38Z</time>
      </trkpt>
      <trkpt lat="41.612833370" lon="2.483689640">
        <ele>347.65</ele>
        <time>2016-01-02T13:13:44Z</time>
      </trkpt>
      <trkpt lat="41.612788440" lon="2.483833650">
        <ele>348.13</ele>
        <time>2016-01-02T13:13:51Z</time>
      </trkpt>
      <trkpt lat="41.612736310" lon="2.483982510">
        <ele>349.58</ele>
        <time>2016-01-02T13:13:59Z</time>
      </trkpt>
      <trkpt lat="41.612662290" lon="2.484111000">
        <ele>351.02</ele>
        <time>2016-01-02T13:14:05Z</time>
      </trkpt>
      <trkpt lat="41.612602030" lon="2.484191970">
        <ele>351.98</ele>
        <time>2016-01-02T13:14:11Z</time>
      </trkpt>
      <trkpt lat="41.612522650" lon="2.484362290">
        <ele>352.94</ele>
        <time>2016-01-02T13:14:18Z</time>
      </trkpt>
      <trkpt lat="41.612445960" lon="2.484526240">
        <ele>353.90</ele>
        <time>2016-01-02T13:14:25Z</time>
      </trkpt>
      <trkpt lat="41.612430120" lon="2.484556420">
        <ele>354.86</ele>
        <time>2016-01-02T13:14:27Z</time>
      </trkpt>
      <trkpt lat="41.612335150" lon="2.484643920">
        <ele>356.31</ele>
        <time>2016-01-02T13:14:33Z</time>
      </trkpt>
      <trkpt lat="41.612286530" lon="2.484696650">
        <ele>356.79</ele>
        <time>2016-01-02T13:14:36Z</time>
      </trkpt>
      <trkpt lat="41.612226690" lon="2.484794380">
        <ele>358.23</ele>
        <time>2016-01-02T13:14:42Z</time>
      </trkpt>
      <trkpt lat="41.612160970" lon="2.484974590">
        <ele>359.67</ele>
        <time>2016-01-02T13:14:49Z</time>
      </trkpt>
      <trkpt lat="41.612121490" lon="2.485192270">
        <ele>361.59</ele>
        <time>2016-01-02T13:14:57Z</time>
      </trkpt>
      <trkpt lat="41.612102380" lon="2.485364010">
        <ele>363.52</ele>
        <time>2016-01-02T13:15:05Z</time>
      </trkpt>
      <trkpt lat="41.612090150" lon="2.485567110">
        <ele>365.44</ele>
        <time>2016-01-02T13:15:14Z</time>
      </trkpt>
      <trkpt lat="41.612077410" lon="2.485749920">
        <ele>367.36</ele>
        <time>2016-01-02T13:15:22Z</time>
      </trkpt>
      <trkpt lat="41.612068190" lon="2.485871120">
        <ele>368.32</ele>
        <time>2016-01-02T13:15:27Z</time>
      </trkpt>
      <trkpt lat="41.612086460" lon="2.486080160">
        <ele>369.76</ele>
        <time>2016-01-02T13:15:35Z</time>
      </trkpt>
      <trkpt lat="41.612109000" lon="2.486205470">
        <ele>370.73</ele>
        <time>2016-01-02T13:15:41Z</time>
      </trkpt>
      <trkpt lat="41.612186620" lon="2.486421890">
        <ele>372.65</ele>
        <time>2016-01-02T13:15:49Z</time>
      </trkpt>
      <trkpt lat="41.612173290" lon="2.486576710">
        <ele>373.13</ele>
        <time>2016-01-02T13:15:56Z</time>
      </trkpt>
      <trkpt lat="41.612148820" lon="2.486661360">
        <ele>375.53</ele>
        <time>2016-01-02T13:16:04Z</time>
      </trkpt>
      <trkpt lat="41.612139770" lon="2.486692380">
        <ele>375.53</ele>
        <time>2016-01-02T13:16:07Z</time>
      </trkpt>
      <trkpt lat="41.612115120" lon="2.486925060">
        <ele>376.97</ele>
        <time>2016-01-02T13:16:16Z</time>
      </trkpt>
      <trkpt lat="41.612104230" lon="2.487105440">
        <ele>378.42</ele>
        <time>2016-01-02T13:16:24Z</time>
      </trkpt>
      <trkpt lat="41.612114200" lon="2.487249020">
        <ele>379.86</ele>
        <time>2016-01-02T13:16:31Z</time>
      </trkpt>
      <trkpt lat="41.612128120" lon="2.487421600">
        <ele>380.82</ele>
        <time>2016-01-02T13:16:39Z</time>
      </trkpt>
      <trkpt lat="41.612145890" lon="2.487543220">
        <ele>382.26</ele>
        <time>2016-01-02T13:16:45Z</time>
      </trkpt>
      <trkpt lat="41.612182260" lon="2.487695020">
        <ele>382.74</ele>
        <time>2016-01-02T13:16:51Z</time>
      </trkpt>
      <trkpt lat="41.612229870" lon="2.487922090">
        <ele>384.66</ele>
        <time>2016-01-02T13:16:59Z</time>
      </trkpt>
      <trkpt lat="41.612318720" lon="2.488136750">
        <ele>386.11</ele>
        <time>2016-01-02T13:17:06Z</time>
      </trkpt>
      <trkpt lat="41.612318470" lon="2.488166670">
        <ele>386.11</ele>
        <time>2016-01-02T13:17:07Z</time>
      </trkpt>
      <trkpt lat="41.612209590" lon="2.488335310">
        <ele>386.59</ele>
        <time>2016-01-02T13:17:15Z</time>
      </trkpt>
      <trkpt lat="41.612189810" lon="2.488354760">
        <ele>387.07</ele>
        <time>2016-01-02T13:17:17Z</time>
      </trkpt>
      <trkpt lat="41.612114700" lon="2.488416030">
        <ele>388.51</ele>
        <time>2016-01-02T13:17:24Z</time>
      </trkpt>
      <trkpt lat="41.612079840" lon="2.488557100">
        <ele>388.51</ele>
        <time>2016-01-02T13:17:30Z</time>
      </trkpt>
      <trkpt lat="41.612098610" lon="2.488758260">
        <ele>389.47</ele>
        <time>2016-01-02T13:17:38Z</time>
      </trkpt>
      <trkpt lat="41.612109590" lon="2.488807550">
        <ele>389.47</ele>
        <time>2016-01-02T13:17:40Z</time>
      </trkpt>
      <trkpt lat="41.612134990" lon="2.488978790">
        <ele>390.43</ele>
        <time>2016-01-02T13:17:48Z</time>
      </trkpt>
      <trkpt lat="41.612142620" lon="2.489123630">
        <ele>391.39</ele>
        <time>2016-01-02T13:17:55Z</time>
      </trkpt>
      <trkpt lat="41.612124340" lon="2.489253890">
        <ele>393.80</ele>
        <time>2016-01-02T13:18:02Z</time>
      </trkpt>
      <trkpt lat="41.612117050" lon="2.489297560">
        <ele>394.28</ele>
        <time>2016-01-02T13:18:05Z</time>
      </trkpt>
      <trkpt lat="41.612122580" lon="2.489470640">
        <ele>395.24</ele>
        <time>2016-01-02T13:18:13Z</time>
      </trkpt>
      <trkpt lat="41.612127950" lon="2.489501740">
        <ele>395.72</ele>
        <time>2016-01-02T13:18:15Z</time>
      </trkpt>
      <trkpt lat="41.612140440" lon="2.489709110">
        <ele>397.64</ele>
        <time>2016-01-02T13:18:24Z</time>
      </trkpt>
      <trkpt lat="41.612126100" lon="2.489795270">
        <ele>398.60</ele>
        <time>2016-01-02T13:18:28Z</time>
      </trkpt>
      <trkpt lat="41.612065500" lon="2.489907590">
        <ele>400.05</ele>
        <time>2016-01-02T13:18:35Z</time>
      </trkpt>
      <trkpt lat="41.612029800" lon="2.490023510">
        <ele>401.49</ele>
        <time>2016-01-02T13:18:42Z</time>
      </trkpt>
      <trkpt lat="41.612027030" lon="2.490039770">
        <ele>401.49</ele>
        <time>2016-01-02T13:18:43Z</time>
      </trkpt>
      <trkpt lat="41.612023680" lon="2.490090320">
        <ele>401.97</ele>
        <time>2016-01-02T13:18:46Z</time>
      </trkpt>
      <trkpt lat="41.611994590" lon="2.490257030">
        <ele>403.41</ele>
        <time>2016-01-02T13:18:54Z</time>
      </trkpt>
      <trkpt lat="41.611989810" lon="2.490301120">
        <ele>404.37</ele>
        <time>2016-01-02T13:18:56Z</time>
      </trkpt>
      <trkpt lat="41.611969030" lon="2.490352500">
        <ele>404.85</ele>
        <time>2016-01-02T13:18:59Z</time>
      </trkpt>
      <trkpt lat="41.611923600" lon="2.490496500">
        <ele>407.74</ele>
        <time>2016-01-02T13:19:07Z</time>
      </trkpt>
      <trkpt lat="41.611884870" lon="2.490683170">
        <ele>409.66</ele>
        <time>2016-01-02T13:19:16Z</time>
      </trkpt>
      <trkpt lat="41.611875990" lon="2.490732290">
        <ele>410.14</ele>
        <time>2016-01-02T13:19:18Z</time>
      </trkpt>
      <trkpt lat="41.611863250" lon="2.490773270">
        <ele>410.14</ele>
        <time>2016-01-02T13:19:20Z</time>
      </trkpt>
      <trkpt lat="41.611830470" lon="2.491025400">
        <ele>411.10</ele>
        <time>2016-01-02T13:19:29Z</time>
      </trkpt>
      <trkpt lat="41.611830310" lon="2.491148620">
        <ele>411.58</ele>
        <time>2016-01-02T13:19:34Z</time>
      </trkpt>
      <trkpt lat="41.611852600" lon="2.491221200">
        <ele>412.54</ele>
        <time>2016-01-02T13:19:38Z</time>
      </trkpt>
      <trkpt lat="41.611943380" lon="2.491517420">
        <ele>413.98</ele>
        <time>2016-01-02T13:19:46Z</time>
      </trkpt>
      <trkpt lat="41.611998280" lon="2.491696370">
        <ele>414.47</ele>
        <time>2016-01-02T13:19:53Z</time>
      </trkpt>
      <trkpt lat="41.612045050" lon="2.491767280">
        <ele>415.43</ele>
        <time>2016-01-02T13:19:57Z</time>
      </trkpt>
      <trkpt lat="41.612124340" lon="2.491906340">
        <ele>417.35</ele>
        <time>2016-01-02T13:20:05Z</time>
      </trkpt>
      <trkpt lat="41.612209420" lon="2.492138100">
        <ele>417.83</ele>
        <time>2016-01-02T13:20:14Z</time>
      </trkpt>
      <trkpt lat="41.612250410" lon="2.492179090">
        <ele>418.31</ele>
        <time>2016-01-02T13:20:17Z</time>
      </trkpt>
      <trkpt lat="41.612330200" lon="2.492261400">
        <ele>418.31</ele>
        <time>2016-01-02T13:20:22Z</time>
      </trkpt>
      <trkpt lat="41.612337580" lon="2.492362060">
        <ele>418.79</ele>
        <time>2016-01-02T13:20:27Z</time>
      </trkpt>
      <trkpt lat="41.612222080" lon="2.492486030">
        <ele>420.71</ele>
        <time>2016-01-02T13:20:37Z</time>
      </trkpt>
      <trkpt lat="41.612205310" lon="2.492681250">
        <ele>420.71</ele>
        <time>2016-01-02T13:20:44Z</time>
      </trkpt>
      <trkpt lat="41.612179330" lon="2.492926330">
        <ele>420.71</ele>
        <time>2016-01-02T13:20:52Z</time>
      </trkpt>
      <trkpt lat="41.612167850" lon="2.493130680">
        <ele>421.68</ele>
        <time>2016-01-02T13:20:59Z</time>
      </trkpt>
      <trkpt lat="41.612174890" lon="2.493324890">
        <ele>421.68</ele>
        <time>2016-01-02T13:21:05Z</time>
      </trkpt>
      <trkpt lat="41.612226440" lon="2.493518520">
        <ele>422.64</ele>
        <time>2016-01-02T13:21:12Z</time>
      </trkpt>
      <trkpt lat="41.612336320" lon="2.493663940">
        <ele>423.60</ele>
        <time>2016-01-02T13:21:19Z</time>
      </trkpt>
      <trkpt lat="41.612464230" lon="2.493760670">
        <ele>424.56</ele>
        <time>2016-01-02T13:21:26Z</time>
      </trkpt>
      <trkpt lat="41.612512590" lon="2.493906350">
        <ele>425.52</ele>
        <time>2016-01-02T13:21:32Z</time>
      </trkpt>
      <trkpt lat="41.612396090" lon="2.494000640">
        <ele>427.44</ele>
        <time>2016-01-02T13:21:40Z</time>
      </trkpt>
      <trkpt lat="41.612383930" lon="2.494010280">
        <ele>427.44</ele>
        <time>2016-01-02T13:21:41Z</time>
      </trkpt>
      <trkpt lat="41.612331290" lon="2.494071470">
        <ele>428.40</ele>
        <time>2016-01-02T13:21:46Z</time>
      </trkpt>
      <trkpt lat="41.612291230" lon="2.494225700">
        <ele>428.89</ele>
        <time>2016-01-02T13:21:53Z</time>
      </trkpt>
      <trkpt lat="41.612255690" lon="2.494330050">
        <ele>430.33</ele>
        <time>2016-01-02T13:22:00Z</time>
      </trkpt>
      <trkpt lat="41.612186540" lon="2.494465080">
        <ele>431.29</ele>
        <time>2016-01-02T13:22:10Z</time>
      </trkpt>
      <trkpt lat="41.612075980" lon="2.494680830">
        <ele>432.73</ele>
        <time>2016-01-02T13:22:17Z</time>
      </trkpt>
      <trkpt lat="41.612086710" lon="2.494861130">
        <ele>434.17</ele>
        <time>2016-01-02T13:22:24Z</time>
      </trkpt>
      <trkpt lat="41.612145050" lon="2.494852240">
        <ele>435.61</ele>
        <time>2016-01-02T13:22:30Z</time>
      </trkpt>
      <trkpt lat="41.612243450" lon="2.494782170">
        <ele>437.06</ele>
        <time>2016-01-02T13:22:39Z</time>
      </trkpt>
      <trkpt lat="41.612367170" lon="2.494661560">
        <ele>438.02</ele>
        <time>2016-01-02T13:22:47Z</time>
      </trkpt>
      <trkpt lat="41.612446630" lon="2.494564580">
        <ele>438.02</ele>
        <time>2016-01-02T13:22:54Z</time>
      </trkpt>
      <trkpt lat="41.612488290" lon="2.494535240">
        <ele>438.50</ele>
        <time>2016-01-02T13:22:58Z</time>
      </trkpt>
      <trkpt lat="41.612522320" lon="2.494603720">
        <ele>439.46</ele>
        <time>2016-01-02T13:23:04Z</time>
      </trkpt>
      <trkpt lat="41.612467500" lon="2.494710250">
        <ele>441.86</ele>
        <time>2016-01-02T13:23:12Z</time>
      </trkpt>
      <trkpt lat="41.612429780" lon="2.494857860">
        <ele>442.34</ele>
        <time>2016-01-02T13:23:19Z</time>
      </trkpt>
      <trkpt lat="41.612414190" lon="2.494911340">
        <ele>443.31</ele>
        <time>2016-01-02T13:23:22Z</time>
      </trkpt>
      <trkpt lat="41.612431620" lon="2.495079980">
        <ele>445.23</ele>
        <time>2016-01-02T13:23:30Z</time>
      </trkpt>
      <trkpt lat="41.612475550" lon="2.495279130">
        <ele>446.67</ele>
        <time>2016-01-02T13:23:39Z</time>
      </trkpt>
      <trkpt lat="41.612479650" lon="2.495351130">
        <ele>447.15</ele>
        <time>2016-01-02T13:23:43Z</time>
      </trkpt>
      <trkpt lat="41.612495580" lon="2.495451970">
        <ele>448.11</ele>
        <time>2016-01-02T13:23:48Z</time>
      </trkpt>
      <trkpt lat="41.612519300" lon="2.495587590">
        <ele>448.59</ele>
        <time>2016-01-02T13:23:55Z</time>
      </trkpt>
      <trkpt lat="41.612530530" lon="2.495620360">
        <ele>448.59</ele>
        <time>2016-01-02T13:23:57Z</time>
      </trkpt>
      <trkpt lat="41.612572020" lon="2.495745500">
        <ele>448.59</ele>
        <time>2016-01-02T13:24:03Z</time>
      </trkpt>
      <trkpt lat="41.612603120" lon="2.495963010">
        <ele>447.15</ele>
        <time>2016-01-02T13:24:09Z</time>
      </trkpt>
      <trkpt lat="41.612683750" lon="2.496244230">
        <ele>444.75</ele>
        <time>2016-01-02T13:24:15Z</time>
      </trkpt>
      <trkpt lat="41.612780810" lon="2.496546060">
        <ele>442.34</ele>
        <time>2016-01-02T13:24:21Z</time>
      </trkpt>
      <trkpt lat="41.612800260" lon="2.496614200">
        <ele>441.86</ele>
        <time>2016-01-02T13:24:22Z</time>
      </trkpt>
      <trkpt lat="41.612888190" lon="2.496864490">
        <ele>440.42</ele>
        <time>2016-01-02T13:24:25Z</time>
      </trkpt>
      <trkpt lat="41.612988520" lon="2.497122650">
        <ele>437.54</ele>
        <time>2016-01-02T13:24:28Z</time>
      </trkpt>
      <trkpt lat="41.613184240" lon="2.497352400">
        <ele>435.61</ele>
        <time>2016-01-02T13:24:33Z</time>
      </trkpt>
      <trkpt lat="41.613259090" lon="2.497337980">
        <ele>434.65</ele>
        <time>2016-01-02T13:24:35Z</time>
      </trkpt>
      <trkpt lat="41.613489920" lon="2.497348460">
        <ele>432.73</ele>
        <time>2016-01-02T13:24:42Z</time>
      </trkpt>
      <trkpt lat="41.613524120" lon="2.497374780">
        <ele>432.73</ele>
        <time>2016-01-02T13:24:43Z</time>
      </trkpt>
      <trkpt lat="41.613656470" lon="2.497579550">
        <ele>431.77</ele>
        <time>2016-01-02T13:24:47Z</time>
      </trkpt>
      <trkpt lat="41.613714470" lon="2.497694710">
        <ele>431.29</ele>
        <time>2016-01-02T13:24:49Z</time>
      </trkpt>
      <trkpt lat="41.613921420" lon="2.497814990">
        <ele>428.40</ele>
        <time>2016-01-02T13:24:54Z</time>
      </trkpt>
      <trkpt lat="41.614137260" lon="2.497678450">
        <ele>425.04</ele>
        <time>2016-01-02T13:24:59Z</time>
      </trkpt>
      <trkpt lat="41.614169110" lon="2.497634780">
        <ele>424.56</ele>
        <time>2016-01-02T13:25:00Z</time>
      </trkpt>
      <trkpt lat="41.614274890" lon="2.497482650">
        <ele>422.16</ele>
        <time>2016-01-02T13:25:04Z</time>
      </trkpt>
      <trkpt lat="41.614313700" lon="2.497547610">
        <ele>420.71</ele>
        <time>2016-01-02T13:25:08Z</time>
      </trkpt>
      <trkpt lat="41.614221330" lon="2.497687090">
        <ele>417.35</ele>
        <time>2016-01-02T13:25:13Z</time>
      </trkpt>
      <trkpt lat="41.614167010" lon="2.497852380">
        <ele>415.43</ele>
        <time>2016-01-02T13:25:17Z</time>
      </trkpt>
      <trkpt lat="41.614138680" lon="2.497933930">
        <ele>414.47</ele>
        <time>2016-01-02T13:25:19Z</time>
      </trkpt>
      <trkpt lat="41.614081020" lon="2.498029660">
        <ele>411.58</ele>
        <time>2016-01-02T13:25:22Z</time>
      </trkpt>
      <trkpt lat="41.613954280" lon="2.498162680">
        <ele>407.74</ele>
        <time>2016-01-02T13:25:27Z</time>
      </trkpt>
      <trkpt lat="41.613936180" lon="2.498201990">
        <ele>407.74</ele>
        <time>2016-01-02T13:25:28Z</time>
      </trkpt>
      <trkpt lat="41.613850930" lon="2.498378010">
        <ele>404.85</ele>
        <time>2016-01-02T13:25:32Z</time>
      </trkpt>
      <trkpt lat="41.613741300" lon="2.498546400">
        <ele>402.45</ele>
        <time>2016-01-02T13:25:37Z</time>
      </trkpt>
      <trkpt lat="41.613616830" lon="2.498587720">
        <ele>399.57</ele>
        <time>2016-01-02T13:25:42Z</time>
      </trkpt>
      <trkpt lat="41.613557980" lon="2.498583030">
        <ele>398.12</ele>
        <time>2016-01-02T13:25:44Z</time>
      </trkpt>
      <trkpt lat="41.613375180" lon="2.498537510">
        <ele>394.76</ele>
        <time>2016-01-02T13:25:50Z</time>
      </trkpt>
      <trkpt lat="41.613256990" lon="2.498561320">
        <ele>392.36</ele>
        <time>2016-01-02T13:25:54Z</time>
      </trkpt>
      <trkpt lat="41.613196560" lon="2.498593420">
        <ele>390.43</ele>
        <time>2016-01-02T13:25:56Z</time>
      </trkpt>
      <trkpt lat="41.613173000" lon="2.498731050">
        <ele>388.03</ele>
        <time>2016-01-02T13:26:00Z</time>
      </trkpt>
      <trkpt lat="41.613192870" lon="2.498831640">
        <ele>385.63</ele>
        <time>2016-01-02T13:26:04Z</time>
      </trkpt>
      <trkpt lat="41.613255310" lon="2.498942190">
        <ele>383.70</ele>
        <time>2016-01-02T13:26:09Z</time>
      </trkpt>
      <trkpt lat="41.613280210" lon="2.499076050">
        <ele>381.30</ele>
        <time>2016-01-02T13:26:15Z</time>
      </trkpt>
      <trkpt lat="41.613335950" lon="2.499227760">
        <ele>379.38</ele>
        <time>2016-01-02T13:26:21Z</time>
      </trkpt>
      <trkpt lat="41.613406100" lon="2.499318540">
        <ele>379.38</ele>
        <time>2016-01-02T13:26:28Z</time>
      </trkpt>
      <trkpt lat="41.613477600" lon="2.499362880">
        <ele>377.94</ele>
        <time>2016-01-02T13:26:32Z</time>
      </trkpt>
      <trkpt lat="41.613536190" lon="2.499403620">
        <ele>376.01</ele>
        <time>2016-01-02T13:26:36Z</time>
      </trkpt>
      <trkpt lat="41.613563520" lon="2.499403780">
        <ele>375.53</ele>
        <time>2016-01-02T13:26:38Z</time>
      </trkpt>
      <trkpt lat="41.613590760" lon="2.499406630">
        <ele>374.57</ele>
        <time>2016-01-02T13:26:40Z</time>
      </trkpt>
      <trkpt lat="41.613621850" lon="2.499463630">
        <ele>372.17</ele>
        <time>2016-01-02T13:26:45Z</time>
      </trkpt>
      <trkpt lat="41.613641130" lon="2.499554740">
        <ele>368.80</ele>
        <time>2016-01-02T13:26:49Z</time>
      </trkpt>
      <trkpt lat="41.613653040" lon="2.499614420">
        <ele>368.32</ele>
        <time>2016-01-02T13:26:51Z</time>
      </trkpt>
      <trkpt lat="41.613670800" lon="2.499650800">
        <ele>368.32</ele>
        <time>2016-01-02T13:26:56Z</time>
      </trkpt>
      <trkpt lat="41.613727890" lon="2.499752810">
        <ele>366.88</ele>
        <time>2016-01-02T13:27:05Z</time>
      </trkpt>
      <trkpt lat="41.613728980" lon="2.499781890">
        <ele>366.40</ele>
        <time>2016-01-02T13:27:07Z</time>
      </trkpt>
      <trkpt lat="41.613781950" lon="2.499917680">
        <ele>363.52</ele>
        <time>2016-01-02T13:27:14Z</time>
      </trkpt>
      <trkpt lat="41.613815480" lon="2.499959760">
        <ele>363.04</ele>
        <time>2016-01-02T13:27:16Z</time>
      </trkpt>
      <trkpt lat="41.613870880" lon="2.500151870">
        <ele>359.67</ele>
        <time>2016-01-02T13:27:22Z</time>
      </trkpt>
      <trkpt lat="41.613947740" lon="2.500283800">
        <ele>358.23</ele>
        <time>2016-01-02T13:27:25Z</time>
      </trkpt>
      <trkpt lat="41.614064590" lon="2.500479940">
        <ele>354.38</ele>
        <time>2016-01-02T13:27:29Z</time>
      </trkpt>
      <trkpt lat="41.614165840" lon="2.500651100">
        <ele>350.54</ele>
        <time>2016-01-02T13:27:33Z</time>
      </trkpt>
      <trkpt lat="41.614195260" lon="2.500710270">
        <ele>350.06</ele>
        <time>2016-01-02T13:27:34Z</time>
      </trkpt>
      <trkpt lat="41.614293660" lon="2.501077060">
        <ele>345.73</ele>
        <time>2016-01-02T13:27:39Z</time>
      </trkpt>
      <trkpt lat="41.614484440" lon="2.501294070">
        <ele>343.81</ele>
        <time>2016-01-02T13:27:43Z</time>
      </trkpt>
      <trkpt lat="41.614548810" lon="2.501343780">
        <ele>343.33</ele>
        <time>2016-01-02T13:27:44Z</time>
      </trkpt>
      <trkpt lat="41.614871510" lon="2.501422900">
        <ele>340.92</ele>
        <time>2016-01-02T13:27:49Z</time>
      </trkpt>
      <trkpt lat="41.614919960" lon="2.501487110">
        <ele>340.44</ele>
        <time>2016-01-02T13:27:52Z</time>
      </trkpt>
      <trkpt lat="41.614941420" lon="2.501617030">
        <ele>340.44</ele>
        <time>2016-01-02T13:27:58Z</time>
      </trkpt>
      <trkpt lat="41.614966230" lon="2.501871000">
        <ele>340.44</ele>
        <time>2016-01-02T13:28:07Z</time>
      </trkpt>
      <trkpt lat="41.614992130" lon="2.501971410">
        <ele>340.44</ele>
        <time>2016-01-02T13:28:09Z</time>
      </trkpt>
      <trkpt lat="41.615074860" lon="2.502152380">
        <ele>339.48</ele>
        <time>2016-01-02T13:28:12Z</time>
      </trkpt>
      <trkpt lat="41.615175860" lon="2.502449770">
        <ele>338.04</ele>
        <time>2016-01-02T13:28:16Z</time>
      </trkpt>
      <trkpt lat="41.615202010" lon="2.502631320">
        <ele>337.08</ele>
        <time>2016-01-02T13:28:18Z</time>
      </trkpt>
      <trkpt lat="41.615313320" lon="2.502934750">
        <ele>337.08</ele>
        <time>2016-01-02T13:28:22Z</time>
      </trkpt>
      <trkpt lat="41.615439810" lon="2.503249490">
        <ele>336.60</ele>
        <time>2016-01-02T13:28:27Z</time>
      </trkpt>
      <trkpt lat="41.615504260" lon="2.503717030">
        <ele>333.71</ele>
        <time>2016-01-02T13:28:35Z</time>
      </trkpt>
      <trkpt lat="41.615452630" lon="2.504045180">
        <ele>328.91</ele>
        <time>2016-01-02T13:28:40Z</time>
      </trkpt>
      <trkpt lat="41.615391360" lon="2.504235370">
        <ele>325.06</ele>
        <time>2016-01-02T13:28:44Z</time>
      </trkpt>
      <trkpt lat="41.615363360" lon="2.504256150">
        <ele>324.58</ele>
        <time>2016-01-02T13:28:45Z</time>
      </trkpt>
      <trkpt lat="41.615247780" lon="2.504199570">
        <ele>322.66</ele>
        <time>2016-01-02T13:28:50Z</time>
      </trkpt>
      <trkpt lat="41.615207880" lon="2.504089940">
        <ele>320.26</ele>
        <time>2016-01-02T13:28:53Z</time>
      </trkpt>
      <trkpt lat="41.615087770" lon="2.503826580">
        <ele>316.41</ele>
        <time>2016-01-02T13:28:59Z</time>
      </trkpt>
      <trkpt lat="41.614978630" lon="2.503696410">
        <ele>313.53</ele>
        <time>2016-01-02T13:29:03Z</time>
      </trkpt>
      <trkpt lat="41.614885340" lon="2.503484600">
        <ele>310.64</ele>
        <time>2016-01-02T13:29:08Z</time>
      </trkpt>
      <trkpt lat="41.614869580" lon="2.503364320">
        <ele>308.72</ele>
        <time>2016-01-02T13:29:11Z</time>
      </trkpt>
      <trkpt lat="41.614843270" lon="2.503311510">
        <ele>308.24</ele>
        <time>2016-01-02T13:29:13Z</time>
      </trkpt>
      <trkpt lat="41.614709320" lon="2.503098610">
        <ele>305.36</ele>
        <time>2016-01-02T13:29:20Z</time>
      </trkpt>
      <trkpt lat="41.614588040" lon="2.502948070">
        <ele>302.47</ele>
        <time>2016-01-02T13:29:25Z</time>
      </trkpt>
      <trkpt lat="41.614542610" lon="2.502904400">
        <ele>301.03</ele>
        <time>2016-01-02T13:29:27Z</time>
      </trkpt>
      <trkpt lat="41.614524840" lon="2.502980930">
        <ele>299.11</ele>
        <time>2016-01-02T13:29:32Z</time>
      </trkpt>
      <trkpt lat="41.614635390" lon="2.503134820">
        <ele>297.18</ele>
        <time>2016-01-02T13:29:38Z</time>
      </trkpt>
      <trkpt lat="41.614659870" lon="2.503156530">
        <ele>296.70</ele>
        <time>2016-01-02T13:29:39Z</time>
      </trkpt>
      <trkpt lat="41.614667750" lon="2.503239180">
        <ele>295.74</ele>
        <time>2016-01-02T13:29:41Z</time>
      </trkpt>
      <trkpt lat="41.614641680" lon="2.503324080">
        <ele>294.78</ele>
        <time>2016-01-02T13:29:43Z</time>
      </trkpt>
      <trkpt lat="41.614548140" lon="2.503533300">
        <ele>291.90</ele>
        <time>2016-01-02T13:29:49Z</time>
      </trkpt>
      <trkpt lat="41.614534060" lon="2.503730690">
        <ele>289.01</ele>
        <time>2016-01-02T13:29:54Z</time>
      </trkpt>
      <trkpt lat="41.614519980" lon="2.503919700">
        <ele>287.57</ele>
        <time>2016-01-02T13:30:00Z</time>
      </trkpt>
      <trkpt lat="41.614506650" lon="2.504066470">
        <ele>286.13</ele>
        <time>2016-01-02T13:30:06Z</time>
      </trkpt>
      <trkpt lat="41.614457360" lon="2.504282300">
        <ele>283.73</ele>
        <time>2016-01-02T13:30:11Z</time>
      </trkpt>
      <trkpt lat="41.614526180" lon="2.504529570">
        <ele>279.88</ele>
        <time>2016-01-02T13:30:16Z</time>
      </trkpt>
      <trkpt lat="41.614553250" lon="2.504620350">
        <ele>278.92</ele>
        <time>2016-01-02T13:30:18Z</time>
      </trkpt>
      <trkpt lat="41.614602960" lon="2.504882620">
        <ele>277.00</ele>
        <time>2016-01-02T13:30:25Z</time>
      </trkpt>
      <trkpt lat="41.614629110" lon="2.505071380">
        <ele>275.56</ele>
        <time>2016-01-02T13:30:31Z</time>
      </trkpt>
      <trkpt lat="41.614631450" lon="2.505108760">
        <ele>274.11</ele>
        <time>2016-01-02T13:30:33Z</time>
      </trkpt>
      <trkpt lat="41.614641760" lon="2.505171620">
        <ele>273.63</ele>
        <time>2016-01-02T13:30:35Z</time>
      </trkpt>
      <trkpt lat="41.614617620" lon="2.505295930">
        <ele>271.23</ele>
        <time>2016-01-02T13:30:38Z</time>
      </trkpt>
      <trkpt lat="41.614590550" lon="2.505422830">
        <ele>268.83</ele>
        <time>2016-01-02T13:30:42Z</time>
      </trkpt>
      <trkpt lat="41.614710660" lon="2.505854500">
        <ele>265.94</ele>
        <time>2016-01-02T13:30:48Z</time>
      </trkpt>
      <trkpt lat="41.614863300" lon="2.506109730">
        <ele>264.98</ele>
        <time>2016-01-02T13:30:55Z</time>
      </trkpt>
      <trkpt lat="41.614912160" lon="2.506266300">
        <ele>264.50</ele>
        <time>2016-01-02T13:31:02Z</time>
      </trkpt>
      <trkpt lat="41.614932530" lon="2.506472410">
        <ele>262.10</ele>
        <time>2016-01-02T13:31:08Z</time>
      </trkpt>
      <trkpt lat="41.614963630" lon="2.506671150">
        <ele>259.69</ele>
        <time>2016-01-02T13:31:13Z</time>
      </trkpt>
      <trkpt lat="41.615012080" lon="2.506834760">
        <ele>257.29</ele>
        <time>2016-01-02T13:31:18Z</time>
      </trkpt>
      <trkpt lat="41.615078710" lon="2.507041960">
        <ele>254.41</ele>
        <time>2016-01-02T13:31:24Z</time>
      </trkpt>
      <trkpt lat="41.615139820" lon="2.507257630">
        <ele>252.96</ele>
        <time>2016-01-02T13:31:29Z</time>
      </trkpt>
      <trkpt lat="41.615177960" lon="2.507369950">
        <ele>252.48</ele>
        <time>2016-01-02T13:31:32Z</time>
      </trkpt>
      <trkpt lat="41.615239230" lon="2.507628530">
        <ele>251.52</ele>
        <time>2016-01-02T13:31:38Z</time>
      </trkpt>
      <trkpt lat="41.615384990" lon="2.507815020">
        <ele>248.16</ele>
        <time>2016-01-02T13:31:44Z</time>
      </trkpt>
      <trkpt lat="41.615438550" lon="2.507939580">
        <ele>246.72</ele>
        <time>2016-01-02T13:31:47Z</time>
      </trkpt>
      <trkpt lat="41.615440810" lon="2.508160610">
        <ele>245.75</ele>
        <time>2016-01-02T13:31:52Z</time>
      </trkpt>
      <trkpt lat="41.615434530" lon="2.508420110">
        <ele>245.27</ele>
        <time>2016-01-02T13:31:58Z</time>
      </trkpt>
      <trkpt lat="41.615508620" lon="2.508648940">
        <ele>244.31</ele>
        <time>2016-01-02T13:32:05Z</time>
      </trkpt>
      <trkpt lat="41.615505600" lon="2.508905510">
        <ele>243.83</ele>
        <time>2016-01-02T13:32:11Z</time>
      </trkpt>
      <trkpt lat="41.615475010" lon="2.509106260">
        <ele>242.87</ele>
        <time>2016-01-02T13:32:16Z</time>
      </trkpt>
      <trkpt lat="41.615516000" lon="2.509412870">
        <ele>242.39</ele>
        <time>2016-01-02T13:32:23Z</time>
      </trkpt>
      <trkpt lat="41.615652790" lon="2.509637840">
        <ele>240.95</ele>
        <time>2016-01-02T13:32:29Z</time>
      </trkpt>
      <trkpt lat="41.615709370" lon="2.509886030">
        <ele>240.47</ele>
        <time>2016-01-02T13:32:34Z</time>
      </trkpt>
      <trkpt lat="41.615734930" lon="2.509997420">
        <ele>240.47</ele>
        <time>2016-01-02T13:32:36Z</time>
      </trkpt>
      <trkpt lat="41.615907850" lon="2.510412490">
        <ele>239.02</ele>
        <time>2016-01-02T13:32:44Z</time>
      </trkpt>
      <trkpt lat="41.616064260" lon="2.510832090">
        <ele>237.58</ele>
        <time>2016-01-02T13:32:51Z</time>
      </trkpt>
      <trkpt lat="41.616161740" lon="2.511132250">
        <ele>237.58</ele>
        <time>2016-01-02T13:32:56Z</time>
      </trkpt>
      <trkpt lat="41.616260730" lon="2.511349840">
        <ele>236.14</ele>
        <time>2016-01-02T13:33:01Z</time>
      </trkpt>
      <trkpt lat="41.616272550" lon="2.511375070">
        <ele>236.14</ele>
        <time>2016-01-02T13:33:02Z</time>
      </trkpt>
      <trkpt lat="41.616339520" lon="2.511516310">
        <ele>236.14</ele>
        <time>2016-01-02T13:33:09Z</time>
      </trkpt>
      <trkpt lat="41.616383610" lon="2.511608840">
        <ele>235.66</ele>
        <time>2016-01-02T13:33:18Z</time>
      </trkpt>
      <trkpt lat="41.616481510" lon="2.511767680">
        <ele>235.18</ele>
        <time>2016-01-02T13:33:23Z</time>
      </trkpt>
      <trkpt lat="41.616554510" lon="2.511945210">
        <ele>234.70</ele>
        <time>2016-01-02T13:33:27Z</time>
      </trkpt>
      <trkpt lat="41.616689800" lon="2.512186520">
        <ele>233.74</ele>
        <time>2016-01-02T13:33:32Z</time>
      </trkpt>
      <trkpt lat="41.616757110" lon="2.512359020">
        <ele>233.26</ele>
        <time>2016-01-02T13:33:35Z</time>
      </trkpt>
      <trkpt lat="41.616881580" lon="2.512953300">
        <ele>231.81</ele>
        <time>2016-01-02T13:33:43Z</time>
      </trkpt>
      <trkpt lat="41.616904540" lon="2.513335850">
        <ele>230.85</ele>
        <time>2016-01-02T13:33:49Z</time>
      </trkpt>
      <trkpt lat="41.616915610" lon="2.513950830">
        <ele>228.45</ele>
        <time>2016-01-02T13:33:57Z</time>
      </trkpt>
      <trkpt lat="41.616915360" lon="2.514102790">
        <ele>227.97</ele>
        <time>2016-01-02T13:33:59Z</time>
      </trkpt>
      <trkpt lat="41.616908570" lon="2.514692460">
        <ele>225.57</ele>
        <time>2016-01-02T13:34:07Z</time>
      </trkpt>
      <trkpt lat="41.616903200" lon="2.515167550">
        <ele>224.61</ele>
        <time>2016-01-02T13:34:13Z</time>
      </trkpt>
      <trkpt lat="41.616876210" lon="2.515781520">
        <ele>221.72</ele>
        <time>2016-01-02T13:34:20Z</time>
      </trkpt>
      <trkpt lat="41.616878560" lon="2.515854440">
        <ele>221.72</ele>
        <time>2016-01-02T13:34:21Z</time>
      </trkpt>
      <trkpt lat="41.616854670" lon="2.516517620">
        <ele>220.28</ele>
        <time>2016-01-02T13:34:28Z</time>
      </trkpt>
      <trkpt lat="41.616797930" lon="2.517309460">
        <ele>217.88</ele>
        <time>2016-01-02T13:34:36Z</time>
      </trkpt>
      <trkpt lat="41.616763730" lon="2.517923430">
        <ele>215.47</ele>
        <time>2016-01-02T13:34:42Z</time>
      </trkpt>
      <trkpt lat="41.616746290" lon="2.518425420">
        <ele>213.55</ele>
        <time>2016-01-02T13:34:47Z</time>
      </trkpt>
      <trkpt lat="41.616628610" lon="2.518742760">
        <ele>213.07</ele>
        <time>2016-01-02T13:34:51Z</time>
      </trkpt>
      <trkpt lat="41.616569430" lon="2.519041660">
        <ele>213.07</ele>
        <time>2016-01-02T13:34:56Z</time>
      </trkpt>
      <trkpt lat="41.616499950" lon="2.519412900">
        <ele>212.11</ele>
        <time>2016-01-02T13:35:03Z</time>
      </trkpt>
      <trkpt lat="41.616350250" lon="2.519948420">
        <ele>210.19</ele>
        <time>2016-01-02T13:35:11Z</time>
      </trkpt>
      <trkpt lat="41.616307330" lon="2.520085880">
        <ele>209.70</ele>
        <time>2016-01-02T13:35:13Z</time>
      </trkpt>
      <trkpt lat="41.616284870" lon="2.520151170">
        <ele>209.70</ele>
        <time>2016-01-02T13:35:14Z</time>
      </trkpt>
      <trkpt lat="41.616230140" lon="2.520285450">
        <ele>209.22</ele>
        <time>2016-01-02T13:35:16Z</time>
      </trkpt>
      <trkpt lat="41.616050010" lon="2.520884510">
        <ele>207.78</ele>
        <time>2016-01-02T13:35:24Z</time>
      </trkpt>
      <trkpt lat="41.616031150" lon="2.520961370">
        <ele>207.78</ele>
        <time>2016-01-02T13:35:25Z</time>
      </trkpt>
      <trkpt lat="41.615909020" lon="2.521757150">
        <ele>206.82</ele>
        <time>2016-01-02T13:35:35Z</time>
      </trkpt>
      <trkpt lat="41.615901900" lon="2.521823620">
        <ele>206.82</ele>
        <time>2016-01-02T13:35:36Z</time>
      </trkpt>
      <trkpt lat="41.615805510" lon="2.522501040">
        <ele>203.94</ele>
        <time>2016-01-02T13:35:44Z</time>
      </trkpt>
      <trkpt lat="41.615701490" lon="2.523192880">
        <ele>201.53</ele>
        <time>2016-01-02T13:35:51Z</time>
      </trkpt>
      <trkpt lat="41.615676010" lon="2.523369240">
        <ele>201.05</ele>
        <time>2016-01-02T13:35:53Z</time>
      </trkpt>
      <trkpt lat="41.615670060" lon="2.523669810">
        <ele>199.61</ele>
        <time>2016-01-02T13:35:57Z</time>
      </trkpt>
      <trkpt lat="41.615627810" lon="2.524294770">
        <ele>196.73</ele>
        <time>2016-01-02T13:36:04Z</time>
      </trkpt>
      <trkpt lat="41.615578270" lon="2.524829530">
        <ele>194.80</ele>
        <time>2016-01-02T13:36:09Z</time>
      </trkpt>
      <trkpt lat="41.615572830" lon="2.525148630">
        <ele>194.32</ele>
        <time>2016-01-02T13:36:12Z</time>
      </trkpt>
      <trkpt lat="41.615543740" lon="2.525787500">
        <ele>190.96</ele>
        <time>2016-01-02T13:36:18Z</time>
      </trkpt>
      <trkpt lat="41.615552040" lon="2.526074920">
        <ele>190.48</ele>
        <time>2016-01-02T13:36:21Z</time>
      </trkpt>
      <trkpt lat="41.615606770" lon="2.526700210">
        <ele>188.56</ele>
        <time>2016-01-02T13:36:28Z</time>
      </trkpt>
      <trkpt lat="41.615605010" lon="2.526802550">
        <ele>188.08</ele>
        <time>2016-01-02T13:36:29Z</time>
      </trkpt>
      <trkpt lat="41.615460840" lon="2.527686840">
        <ele>185.19</ele>
        <time>2016-01-02T13:36:37Z</time>
      </trkpt>
      <trkpt lat="41.615311390" lon="2.528458560">
        <ele>183.27</ele>
        <time>2016-01-02T13:36:44Z</time>
      </trkpt>
      <trkpt lat="41.615229760" lon="2.528851760">
        <ele>182.31</ele>
        <time>2016-01-02T13:36:48Z</time>
      </trkpt>
      <trkpt lat="41.615192040" lon="2.529460450">
        <ele>180.87</ele>
        <time>2016-01-02T13:36:54Z</time>
      </trkpt>
      <trkpt lat="41.615170330" lon="2.530312810">
        <ele>177.98</ele>
        <time>2016-01-02T13:37:02Z</time>
      </trkpt>
      <trkpt lat="41.615115590" lon="2.531110350">
        <ele>175.58</ele>
        <time>2016-01-02T13:37:09Z</time>
      </trkpt>
      <trkpt lat="41.615107380" lon="2.531216800">
        <ele>175.10</ele>
        <time>2016-01-02T13:37:10Z</time>
      </trkpt>
      <trkpt lat="41.615200000" lon="2.531671010">
        <ele>172.21</ele>
        <time>2016-01-02T13:37:15Z</time>
      </trkpt>
      <trkpt lat="41.615214920" lon="2.531897570">
        <ele>171.25</ele>
        <time>2016-01-02T13:37:17Z</time>
      </trkpt>
      <trkpt lat="41.615149460" lon="2.532334520">
        <ele>169.81</ele>
        <time>2016-01-02T13:37:21Z</time>
      </trkpt>
      <trkpt lat="41.615125900" lon="2.532493190">
        <ele>169.81</ele>
        <time>2016-01-02T13:37:23Z</time>
      </trkpt>
      <trkpt lat="41.614988860" lon="2.533012120">
        <ele>168.85</ele>
        <time>2016-01-02T13:37:30Z</time>
      </trkpt>
      <trkpt lat="41.614789870" lon="2.533572530">
        <ele>166.45</ele>
        <time>2016-01-02T13:37:37Z</time>
      </trkpt>
      <trkpt lat="41.614636480" lon="2.534041250">
        <ele>164.52</ele>
        <time>2016-01-02T13:37:42Z</time>
      </trkpt>
      <trkpt lat="41.614487790" lon="2.534526310">
        <ele>163.08</ele>
        <time>2016-01-02T13:37:47Z</time>
      </trkpt>
      <trkpt lat="41.614302970" lon="2.535073140">
        <ele>160.68</ele>
        <time>2016-01-02T13:37:53Z</time>
      </trkpt>
      <trkpt lat="41.614259050" lon="2.535233150">
        <ele>160.68</ele>
        <time>2016-01-02T13:37:55Z</time>
      </trkpt>
      <trkpt lat="41.614042040" lon="2.535861290">
        <ele>158.27</ele>
        <time>2016-01-02T13:38:03Z</time>
      </trkpt>
      <trkpt lat="41.614021500" lon="2.535934630">
        <ele>158.27</ele>
        <time>2016-01-02T13:38:04Z</time>
      </trkpt>
      <trkpt lat="41.613823190" lon="2.536384740">
        <ele>156.35</ele>
        <time>2016-01-02T13:38:11Z</time>
      </trkpt>
      <trkpt lat="41.613732330" lon="2.536572500">
        <ele>155.87</ele>
        <time>2016-01-02T13:38:16Z</time>
      </trkpt>
      <trkpt lat="41.613716740" lon="2.536590180">
        <ele>155.39</ele>
        <time>2016-01-02T13:38:21Z</time>
      </trkpt>
      <trkpt lat="41.613696960" lon="2.536592780">
        <ele>155.39</ele>
        <time>2016-01-02T13:38:23Z</time>
      </trkpt>
      <trkpt lat="41.613610460" lon="2.536638630">
        <ele>155.39</ele>
        <time>2016-01-02T13:38:28Z</time>
      </trkpt>
      <trkpt lat="41.613585390" lon="2.536747760">
        <ele>155.39</ele>
        <time>2016-01-02T13:38:32Z</time>
      </trkpt>
      <trkpt lat="41.613483890" lon="2.536900140">
        <ele>154.91</ele>
        <time>2016-01-02T13:38:38Z</time>
      </trkpt>
      <trkpt lat="41.613472740" lon="2.536991260">
        <ele>154.43</ele>
        <time>2016-01-02T13:38:41Z</time>
      </trkpt>
      <trkpt lat="41.613442900" lon="2.537045740">
        <ele>154.43</ele>
        <time>2016-01-02T13:38:45Z</time>
      </trkpt>
      <trkpt lat="41.613388750" lon="2.537142970">
        <ele>153.47</ele>
        <time>2016-01-02T13:38:49Z</time>
      </trkpt>
      <trkpt lat="41.613146350" lon="2.537438430">
        <ele>152.99</ele>
        <time>2016-01-02T13:38:57Z</time>
      </trkpt>
      <trkpt lat="41.613112820" lon="2.537483530">
        <ele>152.99</ele>
        <time>2016-01-02T13:38:58Z</time>
      </trkpt>
      <trkpt lat="41.612786510" lon="2.537852250">
        <ele>151.06</ele>
        <time>2016-01-02T13:39:06Z</time>
      </trkpt>
      <trkpt lat="41.612495160" lon="2.538219290">
        <ele>149.62</ele>
        <time>2016-01-02T13:39:13Z</time>
      </trkpt>
      <trkpt lat="41.612206240" lon="2.538688510">
        <ele>147.22</ele>
        <time>2016-01-02T13:39:21Z</time>
      </trkpt>
      <trkpt lat="41.612086880" lon="2.538892360">
        <ele>146.74</ele>
        <time>2016-01-02T13:39:24Z</time>
      </trkpt>
      <trkpt lat="41.611889900" lon="2.539057650">
        <ele>145.78</ele>
        <time>2016-01-02T13:39:30Z</time>
      </trkpt>
      <trkpt lat="41.611858390" lon="2.538983890">
        <ele>145.30</ele>
        <time>2016-01-02T13:39:32Z</time>
      </trkpt>
      <trkpt lat="41.611794180" lon="2.538759330">
        <ele>145.30</ele>
        <time>2016-01-02T13:39:39Z</time>
      </trkpt>
      <trkpt lat="41.611760740" lon="2.538749860">
        <ele>147.22</ele>
        <time>2016-01-02T13:39:41Z</time>
      </trkpt>
      <trkpt lat="41.611615390" lon="2.538746430">
        <ele>147.70</ele>
        <time>2016-01-02T13:39:46Z</time>
      </trkpt>
      <trkpt lat="41.611402410" lon="2.538767050">
        <ele>146.26</ele>
        <time>2016-01-02T13:39:50Z</time>
      </trkpt>
      <trkpt lat="41.611183560" lon="2.538799990">
        <ele>145.30</ele>
        <time>2016-01-02T13:39:54Z</time>
      </trkpt>
      <trkpt lat="41.610928250" lon="2.538880870">
        <ele>143.85</ele>
        <time>2016-01-02T13:39:59Z</time>
      </trkpt>
      <trkpt lat="41.610561290" lon="2.539075920">
        <ele>142.41</ele>
        <time>2016-01-02T13:40:06Z</time>
      </trkpt>
      <trkpt lat="41.610236570" lon="2.539266690">
        <ele>140.97</ele>
        <time>2016-01-02T13:40:12Z</time>
      </trkpt>
      <trkpt lat="41.609929880" lon="2.539449420">
        <ele>139.05</ele>
        <time>2016-01-02T13:40:18Z</time>
      </trkpt>
      <trkpt lat="41.609853850" lon="2.539513620">
        <ele>138.57</ele>
        <time>2016-01-02T13:40:20Z</time>
      </trkpt>
      <trkpt lat="41.609549260" lon="2.539674720">
        <ele>138.09</ele>
        <time>2016-01-02T13:40:27Z</time>
      </trkpt>
      <trkpt lat="41.609362930" lon="2.539782510">
        <ele>136.64</ele>
        <time>2016-01-02T13:40:31Z</time>
      </trkpt>
      <trkpt lat="41.609153880" lon="2.540112010">
        <ele>134.72</ele>
        <time>2016-01-02T13:40:37Z</time>
      </trkpt>
      <trkpt lat="41.608924890" lon="2.540461950">
        <ele>134.72</ele>
        <time>2016-01-02T13:40:44Z</time>
      </trkpt>
      <trkpt lat="41.608800420" lon="2.540442840">
        <ele>133.76</ele>
        <time>2016-01-02T13:40:48Z</time>
      </trkpt>
      <trkpt lat="41.608720700" lon="2.540310660">
        <ele>132.32</ele>
        <time>2016-01-02T13:40:52Z</time>
      </trkpt>
      <trkpt lat="41.608641080" lon="2.540314430">
        <ele>132.32</ele>
        <time>2016-01-02T13:40:54Z</time>
      </trkpt>
      <trkpt lat="41.608323820" lon="2.540365470">
        <ele>131.84</ele>
        <time>2016-01-02T13:41:01Z</time>
      </trkpt>
      <trkpt lat="41.607940850" lon="2.540436300">
        <ele>130.88</ele>
        <time>2016-01-02T13:41:09Z</time>
      </trkpt>
      <trkpt lat="41.607651680" lon="2.540525320">
        <ele>129.92</ele>
        <time>2016-01-02T13:41:16Z</time>
      </trkpt>
      <trkpt lat="41.607526450" lon="2.540721870">
        <ele>129.92</ele>
        <time>2016-01-02T13:41:21Z</time>
      </trkpt>
      <trkpt lat="41.607366520" lon="2.540856400">
        <ele>128.95</ele>
        <time>2016-01-02T13:41:27Z</time>
      </trkpt>
      <trkpt lat="41.607092440" lon="2.540804100">
        <ele>127.99</ele>
        <time>2016-01-02T13:41:34Z</time>
      </trkpt>
      <trkpt lat="41.606690020" lon="2.540644590">
        <ele>127.51</ele>
        <time>2016-01-02T13:41:43Z</time>
      </trkpt>
      <trkpt lat="41.606556750" lon="2.540566220">
        <ele>127.03</ele>
        <time>2016-01-02T13:41:46Z</time>
      </trkpt>
      <trkpt lat="41.606166990" lon="2.540409140">
        <ele>125.59</ele>
        <time>2016-01-02T13:41:54Z</time>
      </trkpt>
      <trkpt lat="41.605918050" lon="2.540392630">
        <ele>125.11</ele>
        <time>2016-01-02T13:41:59Z</time>
      </trkpt>
      <trkpt lat="41.605918720" lon="2.540470750">
        <ele>125.11</ele>
        <time>2016-01-02T13:42:03Z</time>
      </trkpt>
      <trkpt lat="41.605963060" lon="2.540537300">
        <ele>125.11</ele>
        <time>2016-01-02T13:42:06Z</time>
      </trkpt>
      <trkpt lat="41.605988040" lon="2.540637970">
        <ele>126.07</ele>
        <time>2016-01-02T13:42:09Z</time>
      </trkpt>
      <trkpt lat="41.606197840" lon="2.540682980">
        <ele>126.55</ele>
        <time>2016-01-02T13:42:17Z</time>
      </trkpt>
      <trkpt lat="41.606420460" lon="2.540749790">
        <ele>127.51</ele>
        <time>2016-01-02T13:42:25Z</time>
      </trkpt>
      <trkpt lat="41.606446780" lon="2.540758170">
        <ele>127.51</ele>
        <time>2016-01-02T13:42:26Z</time>
      </trkpt>
      <trkpt lat="41.606570490" lon="2.540945330">
        <ele>128.47</ele>
        <time>2016-01-02T13:42:33Z</time>
      </trkpt>
      <trkpt lat="41.606604360" lon="2.541119340">
        <ele>128.95</ele>
        <time>2016-01-02T13:42:38Z</time>
      </trkpt>
      <trkpt lat="41.606680550" lon="2.541399800">
        <ele>130.88</ele>
        <time>2016-01-02T13:42:46Z</time>
      </trkpt>
      <trkpt lat="41.606767130" lon="2.541706910">
        <ele>132.80</ele>
        <time>2016-01-02T13:42:54Z</time>
      </trkpt>
      <trkpt lat="41.606883890" lon="2.541970940">
        <ele>134.24</ele>
        <time>2016-01-02T13:43:01Z</time>
      </trkpt>
      <trkpt lat="41.606994030" lon="2.542200440">
        <ele>136.16</ele>
        <time>2016-01-02T13:43:08Z</time>
      </trkpt>
      <trkpt lat="41.607059410" lon="2.542340250">
        <ele>136.64</ele>
        <time>2016-01-02T13:43:13Z</time>
      </trkpt>
      <trkpt lat="41.607079280" lon="2.542383000">
        <ele>137.61</ele>
        <time>2016-01-02T13:43:20Z</time>
      </trkpt>
      <trkpt lat="41.607075670" lon="2.542369670">
        <ele>137.61</ele>
        <time>2016-01-02T13:43:29Z</time>
      </trkpt>
      <trkpt lat="41.607070640" lon="2.542394730">
        <ele>137.61</ele>
        <time>2016-01-02T13:43:41Z</time>
      </trkpt>
      <trkpt lat="41.607085230" lon="2.542370680">
        <ele>137.13</ele>
        <time>2016-01-02T13:43:58Z</time>
      </trkpt>
      <trkpt lat="41.607183880" lon="2.542322900">
        <ele>137.13</ele>
        <time>2016-01-02T13:44:15Z</time>
      </trkpt>
      <trkpt lat="41.607184130" lon="2.542351990">
        <ele>137.13</ele>
        <time>2016-01-02T13:44:30Z</time>
      </trkpt>
      <trkpt lat="41.607077940" lon="2.542386770">
        <ele>137.13</ele>
        <time>2016-01-02T13:44:45Z</time>
      </trkpt>
      <trkpt lat="41.607156140" lon="2.542332370">
        <ele>136.64</ele>
        <time>2016-01-02T13:45:03Z</time>
      </trkpt>
      <trkpt lat="41.607170140" lon="2.542328680">
        <ele>136.64</ele>
        <time>2016-01-02T13:45:21Z</time>
      </trkpt>
      <trkpt lat="41.607145660" lon="2.542348800">
        <ele>136.64</ele>
        <time>2016-01-02T13:45:39Z</time>
      </trkpt>
      <trkpt lat="41.607097380" lon="2.542383330">
        <ele>136.64</ele>
        <time>2016-01-02T13:45:55Z</time>
      </trkpt>
      <trkpt lat="41.606982380" lon="2.542451900">
        <ele>136.64</ele>
        <time>2016-01-02T13:46:13Z</time>
      </trkpt>
    </trkseg>
  </trk>
</gpx>
